[[{"header":{"parameterUnit":"m.s-1","parameterCategory":1,"la1":30.6,"la2":29.2853,"lo1":-89.7004,"lo2":-87.6739,"dx":0.0162,"dy":0.0183,"nx":112,"ny":82,"refTime":"2022-12-07T18:00:00:Z","depth":0,"parameterNumber":2,"parameterNumberName":"U-component_of_WINDS"},"data":[0.0,0.0,0.0,0.0,0.0,0.0,0.0,0.0,0.0,0.0,0.0,0.0,0.0,0.0,0.0,0.0,0.0,0.0,0.0,0.0,0.0,0.0,0.0,0.0,0.0,0.0,0.0,0.0,0.0,0.0,0.0,0.0,0.0,0.0,0.0,0.0,0.0,0.0,0.0,0.0,0.0,0.0,0.0,0.0,0.0,0.0,0.0,0.0,0.0,0.0,0.0,0.0,0.0,0.0,0.0,0.0,0.0,0.0,0.0,0.0,0.0,0.0,0.0,0.0,0.0,0.0,0.0,0.0,0.0,0.0,0.0,0.0,0.0,0.0,0.0,0.0,0.0,0.0,0.0,0.0,0.0,0.0,0.0,0.0,0.0,0.0,0.0,0.0,0.0,0.0,-1.4076,-1.4161,-1.4161,-1.4191,-1.4283,-1.3952,-1.3597,-1.3324,0.0,0.0,0.0,0.0,0.0,0.0,0.0,0.0,0.0,0.0,0.0,0.0,0.0,0.0,0.0,0.0,0.0,0.0,0.0,0.0,0.0,0.0,0.0,0.0,0.0,0.0,0.0,0.0,0.0,0.0,0.0,0.0,0.0,0.0,0.0,0.0,0.0,0.0,0.0,0.0,0.0,0.0,0.0,0.0,0.0,0.0,0.0,0.0,0.0,0.0,0.0,0.0,0.0,0.0,0.0,0.0,0.0,0.0,0.0,0.0,0.0,0.0,0.0,0.0,0.0,0.0,0.0,0.0,0.0,0.0,0.0,0.0,0.0,0.0,0.0,0.0,0.0,0.0,0.0,0.0,0.0,0.0,0.0,0.0,0.0,0.0,0.0,0.0,0.0,0.0,0.0,0.0,0.0,0.0,0.0,0.0,0.0,0.0,0.0,0.0,0.0,0.0,0.0,0.0,-1.4405,-1.48,-1.4842,-1.4691,-1.4335,-1.4242,-1.3813,-1.2954,0.0,0.0,0.0,0.0,0.0,0.0,0.0,0.0,0.0,0.0,0.0,0.0,0.0,0.0,0.0,0.0,0.0,0.0,0.0,0.0,0.0,0.0,0.0,0.0,0.0,0.0,0.0,0.0,0.0,0.0,0.0,0.0,0.0,0.0,0.0,0.0,0.0,0.0,0.0,0.0,0.0,0.0,0.0,0.0,0.0,0.0,0.0,0.0,0.0,0.0,0.0,0.0,0.0,0.0,0.0,0.0,0.0,0.0,0.0,0.0,0.0,0.0,0.0,0.0,0.0,0.0,0.0,0.0,0.0,0.0,0.0,0.0,0.0,0.0,0.0,0.0,0.0,0.0,0.0,0.0,0.0,0.0,0.0,0.0,0.0,0.0,0.0,0.0,0.0,0.0,0.0,0.0,0.0,0.0,0.0,0.0,0.0,0.0,0.0,0.0,0.0,0.0,0.0,-1.4397,-1.4863,-1.5328,-1.5152,-1.5018,-1.5059,-1.4593,-1.3937,-1.3018,-1.2171,0.0,0.0,0.0,0.0,0.0,0.0,0.0,0.0,0.0,0.0,0.0,0.0,0.0,0.0,0.0,0.0,0.0,0.0,0.0,0.0,0.0,0.0,0.0,0.0,0.0,0.0,0.0,0.0,0.0,0.0,0.0,0.0,0.0,0.0,0.0,0.0,0.0,0.0,0.0,0.0,0.0,0.0,0.0,0.0,0.0,0.0,0.0,0.0,0.0,0.0,0.0,0.0,0.0,0.0,0.0,0.0,0.0,0.0,0.0,0.0,0.0,0.0,0.0,0.0,0.0,0.0,0.0,0.0,0.0,0.0,0.0,0.0,0.0,0.0,0.0,0.0,0.0,0.0,0.0,0.0,0.0,0.0,0.0,0.0,0.0,0.0,0.0,0.0,0.0,0.0,0.0,0.0,0.0,0.0,0.0,0.0,0.0,0.0,0.0,0.0,0.0,0.0,-1.4873,-1.5339,-1.5804,-1.5535,-1.5421,-1.567,-1.5038,-1.4216,-1.3263,-1.2307,0.0,0.0,0.0,0.0,0.0,0.0,0.0,0.0,0.0,0.0,0.0,0.0,0.0,0.0,0.0,0.0,0.0,0.0,0.0,0.0,0.0,0.0,0.0,0.0,0.0,0.0,0.0,0.0,0.0,0.0,0.0,0.0,0.0,0.0,0.0,0.0,0.0,0.0,0.0,0.0,0.0,0.0,0.0,0.0,0.0,0.0,0.0,0.0,0.0,0.0,0.0,0.0,0.0,0.0,0.0,0.0,0.0,0.0,0.0,0.0,0.0,0.0,0.0,0.0,0.0,0.0,0.0,0.0,0.0,0.0,0.0,0.0,0.0,0.0,0.0,0.0,0.0,0.0,0.0,0.0,0.0,0.0,0.0,0.0,0.0,0.0,0.0,0.0,0.0,0.0,0.0,0.0,0.0,0.0,0.0,0.0,0.0,0.0,0.0,0.0,0.0,0.0,-1.5359,-1.5815,-1.6309,-1.633,-1.6153,-1.5722,-1.5628,-1.5001,-1.3567,-1.2702,0.0,0.0,0.0,0.0,0.0,0.0,0.0,0.0,0.0,0.0,0.0,0.0,0.0,0.0,0.0,0.0,0.0,0.0,0.0,0.0,0.0,0.0,0.0,0.0,0.0,0.0,0.0,0.0,0.0,0.0,0.0,0.0,0.0,0.0,0.0,0.0,0.0,0.0,0.0,0.0,0.0,0.0,0.0,0.0,0.0,0.0,0.0,0.0,0.0,0.0,0.0,0.0,0.0,0.0,0.0,0.0,0.0,0.0,0.0,0.0,0.0,0.0,0.0,0.0,0.0,0.0,0.0,0.0,0.0,0.0,0.0,0.0,0.0,0.0,0.0,0.0,0.0,0.0,0.0,0.0,0.0,0.0,0.0,0.0,0.0,0.0,0.0,0.0,0.0,0.0,0.0,0.0,0.0,0.0,0.0,0.0,0.0,0.0,0.0,0.0,0.0,0.0,-1.5832,-1.6572,-1.6748,-1.7057,-1.7036,-1.6541,-1.628,-1.5288,-1.3298,0.0,0.0,0.0,0.0,0.0,0.0,0.0,0.0,0.0,0.0,0.0,0.0,0.0,0.0,0.0,0.0,0.0,0.0,0.0,0.0,0.0,0.0,0.0,0.0,0.0,0.0,0.0,0.0,0.0,0.0,0.0,0.0,0.0,0.0,0.0,0.0,0.0,0.0,0.0,0.0,0.0,0.0,0.0,0.0,0.0,0.0,0.0,0.0,0.0,0.0,0.0,0.0,0.0,0.0,0.0,0.0,0.0,0.0,0.0,0.0,0.0,0.0,0.0,0.0,0.0,0.0,0.0,0.0,0.0,0.0,0.0,0.0,0.0,0.0,0.0,0.0,0.0,0.0,0.0,0.0,0.0,0.0,0.0,0.0,0.0,0.0,0.0,0.0,0.0,0.0,0.0,0.0,0.0,0.0,0.0,0.0,0.0,0.0,0.0,0.0,0.0,0.0,-1.4693,-1.6071,-1.7068,-1.7213,-1.7513,-1.7575,-1.7254,-1.682,-1.5656,-1.3479,0.0,0.0,0.0,0.0,0.0,0.0,0.0,0.0,0.0,0.0,0.0,0.0,0.0,0.0,0.0,0.0,0.0,0.0,0.0,0.0,0.0,0.0,0.0,0.0,0.0,0.0,0.0,0.0,0.0,0.0,0.0,0.0,0.0,0.0,0.0,0.0,0.0,0.0,0.0,0.0,0.0,0.0,0.0,0.0,0.0,0.0,0.0,0.0,0.0,0.0,0.0,0.0,0.0,0.0,0.0,0.0,0.0,0.0,0.0,0.0,0.0,0.0,0.0,0.0,0.0,0.0,0.0,0.0,0.0,0.0,0.0,0.0,0.0,0.0,0.0,0.0,0.0,0.0,0.0,0.0,0.0,0.0,0.0,0.0,0.0,0.0,0.0,0.0,0.0,0.0,0.0,0.0,0.0,0.0,0.0,0.0,0.0,0.0,0.0,0.0,0.0,0.0,-1.4596,-1.6062,-1.7203,-1.7657,-1.7719,-1.7719,-1.7709,-1.7285,-1.6175,0.0,0.0,0.0,0.0,0.0,0.0,0.0,0.0,0.0,0.0,0.0,0.0,0.0,0.0,0.0,0.0,0.0,0.0,0.0,0.0,0.0,0.0,0.0,0.0,0.0,0.0,0.0,0.0,0.0,0.0,0.0,0.0,0.0,0.0,0.0,0.0,0.0,0.0,0.0,0.0,0.0,0.0,0.0,0.0,0.0,0.0,0.0,0.0,0.0,0.0,0.0,0.0,0.0,0.0,0.0,0.0,0.0,0.0,0.0,0.0,0.0,0.0,0.0,0.0,0.0,0.0,0.0,0.0,0.0,0.0,0.0,0.0,0.0,0.0,0.0,0.0,0.0,0.0,0.0,0.0,0.0,0.0,0.0,0.0,0.0,0.0,0.0,0.0,0.0,0.0,0.0,0.0,0.0,0.0,0.0,0.0,0.0,0.0,0.0,0.0,0.0,0.0,0.0,-1.4811,-1.6719,-1.804,-1.8175,-1.8485,-1.8547,-1.8216,-1.8071,-1.6888,-1.4341,0.0,0.0,0.0,0.0,0.0,0.0,0.0,0.0,0.0,0.0,0.0,0.0,0.0,0.0,0.0,0.0,0.0,0.0,0.0,0.0,0.0,0.0,0.0,0.0,0.0,0.0,0.0,0.0,0.0,0.0,0.0,0.0,0.0,0.0,0.0,0.0,0.0,0.0,0.0,0.0,0.0,0.0,0.0,0.0,0.0,0.0,0.0,0.0,0.0,0.0,0.0,0.0,0.0,0.0,0.0,0.0,0.0,0.0,0.0,0.0,0.0,0.0,0.0,0.0,0.0,0.0,0.0,0.0,0.0,0.0,0.0,0.0,0.0,0.0,0.0,0.0,0.0,0.0,0.0,0.0,0.0,0.0,0.0,0.0,0.0,0.0,0.0,0.0,0.0,0.0,0.0,0.0,0.0,0.0,0.0,0.0,0.0,0.0,0.0,0.0,0.0,0.0,-1.4844,-1.7125,-1.8756,-1.8942,-1.9334,-1.9427,-1.9005,-1.8797,-1.7607,-1.5065,0.0,0.0,0.0,0.0,0.0,0.0,0.0,0.0,0.0,0.0,0.0,0.0,0.0,0.0,0.0,0.0,0.0,0.0,0.0,0.0,0.0,0.0,0.0,0.0,0.0,0.0,0.0,0.0,0.0,0.0,0.0,0.0,0.0,0.0,0.0,0.0,0.0,0.0,0.0,0.0,0.0,0.0,0.0,0.0,0.0,0.0,0.0,0.0,0.0,0.0,0.0,0.0,0.0,0.0,0.0,0.0,0.0,0.0,0.0,0.0,0.0,0.0,0.0,0.0,0.0,0.0,0.0,0.0,0.0,0.0,0.0,0.0,0.0,0.0,0.0,0.0,0.0,0.0,0.0,0.0,0.0,0.0,0.0,0.0,0.0,0.0,0.0,0.0,0.0,0.0,0.0,0.0,0.0,0.0,0.0,0.0,0.0,0.0,0.0,0.0,0.0,0.0,-1.4858,-1.7396,-1.9279,-1.963,-1.9996,-2.0078,-1.9747,-1.9284,-1.821,-1.6299,0.0,0.0,0.0,0.0,0.0,0.0,0.0,0.0,0.0,0.0,0.0,0.0,0.0,0.0,0.0,0.0,0.0,0.0,0.0,0.0,0.0,0.0,0.0,0.0,0.0,0.0,0.0,0.0,0.0,0.0,0.0,0.0,0.0,0.0,0.0,0.0,0.0,0.0,0.0,0.0,0.0,0.0,0.0,0.0,0.0,0.0,0.0,0.0,0.0,0.0,0.0,0.0,0.0,0.0,0.0,0.0,0.0,0.0,0.0,0.0,-1.6892,-1.5695,0.0,0.0,0.0,0.0,0.0,0.0,0.0,0.0,0.0,0.0,0.0,0.0,0.0,0.0,0.0,0.0,0.0,0.0,0.0,0.0,0.0,0.0,0.0,0.0,0.0,0.0,0.0,0.0,0.0,0.0,0.0,0.0,0.0,0.0,0.0,0.0,0.0,0.0,0.0,0.0,-1.5783,-1.7949,-1.9258,-1.8836,-1.8843,-1.8935,-1.902,-1.8621,-1.8125,-1.7535,-1.5971,0.0,0.0,0.0,0.0,0.0,0.0,0.0,0.0,0.0,0.0,0.0,0.0,0.0,0.0,0.0,0.0,0.0,0.0,0.0,0.0,0.0,0.0,0.0,0.0,0.0,0.0,0.0,0.0,0.0,0.0,0.0,0.0,0.0,0.0,0.0,0.0,0.0,0.0,0.0,0.0,0.0,0.0,0.0,0.0,0.0,0.0,0.0,0.0,0.0,0.0,0.0,0.0,0.0,0.0,0.0,0.0,0.0,0.0,0.0,-1.7948,-1.6688,0.0,0.0,0.0,0.0,0.0,0.0,0.0,0.0,0.0,0.0,0.0,0.0,0.0,0.0,0.0,0.0,0.0,0.0,0.0,0.0,0.0,0.0,0.0,0.0,0.0,0.0,0.0,0.0,0.0,0.0,0.0,0.0,0.0,0.0,0.0,0.0,0.0,0.0,0.0,0.0,-1.6139,-1.8418,-1.9855,-1.9504,-1.9287,-1.9127,-1.8985,-1.8434,-1.7742,-1.7072,-1.5822,0.0,0.0,0.0,0.0,0.0,0.0,0.0,0.0,0.0,0.0,0.0,0.0,0.0,0.0,0.0,0.0,0.0,0.0,0.0,0.0,0.0,0.0,0.0,0.0,0.0,0.0,0.0,0.0,0.0,0.0,0.0,0.0,0.0,0.0,0.0,0.0,0.0,0.0,0.0,0.0,0.0,0.0,0.0,0.0,0.0,0.0,0.0,0.0,0.0,0.0,0.0,0.0,0.0,-2.1824,-2.1757,-2.0727,-2.1162,-2.1346,-2.119,-1.9448,-1.8185,-1.7271,-1.6584,0.0,0.0,0.0,0.0,0.0,0.0,0.0,0.0,0.0,0.0,0.0,0.0,0.0,0.0,0.0,0.0,0.0,0.0,0.0,0.0,0.0,0.0,-1.527,-1.5213,-1.5782,-1.5878,-1.4021,0.0,0.0,0.0,0.0,0.0,0.0,0.0,0.0,0.0,0.0,0.0,-1.6599,-1.8941,-2.0522,-2.0412,-1.9992,-1.9627,-1.9294,-1.8315,-1.7377,-1.6599,-1.5572,-1.4617,0.0,0.0,0.0,0.0,0.0,0.0,0.0,0.0,0.0,0.0,0.0,0.0,0.0,0.0,0.0,0.0,0.0,0.0,0.0,0.0,0.0,0.0,0.0,0.0,0.0,0.0,0.0,0.0,0.0,0.0,0.0,0.0,-1.6947,-1.7492,0.0,0.0,0.0,0.0,0.0,0.0,0.0,0.0,0.0,0.0,0.0,0.0,0.0,-2.0688,-2.1774,-2.1964,-2.2242,-2.2637,-2.3273,-2.3573,-2.3544,-2.3339,-2.3251,-2.3208,-2.2828,0.0,-1.9333,-1.8254,0.0,0.0,0.0,0.0,0.0,0.0,0.0,0.0,0.0,0.0,0.0,0.0,0.0,0.0,0.0,0.0,0.0,0.0,0.0,0.0,0.0,0.0,-1.6506,-1.6682,-1.6687,-1.6699,-1.6917,-1.6369,-1.5604,-1.4867,-1.4827,-1.454,0.0,0.0,0.0,0.0,0.0,0.0,-1.8274,-1.9793,-2.0547,-2.0058,-1.9493,-1.9314,-1.9539,-1.7961,-1.7332,-1.8212,-1.643,-1.5282,-1.5212,-1.3244,0.0,0.0,0.0,0.0,0.0,0.0,0.0,0.0,0.0,0.0,0.0,0.0,0.0,0.0,0.0,0.0,0.0,0.0,0.0,0.0,0.0,0.0,0.0,0.0,0.0,0.0,0.0,0.0,0.0,-1.7261,-1.7692,-1.875,-1.862,-1.866,0.0,0.0,0.0,0.0,0.0,0.0,0.0,0.0,0.0,-2.2644,-2.278,-2.3198,-2.397,-2.4154,-2.4253,-2.4283,-2.4619,-2.4687,-2.4589,-2.4453,-2.4086,-2.3589,-2.3131,-2.213,-2.0681,-1.9783,-1.8559,-1.7236,0.0,0.0,0.0,0.0,-1.6084,-1.5938,-1.5958,-1.5929,-1.5841,-1.5772,0.0,0.0,0.0,0.0,0.0,0.0,0.0,-1.6016,-1.6486,-1.7173,-1.7803,-1.787,-1.8022,-1.8257,-1.8651,-1.8428,-1.7752,-1.6466,-1.6355,-1.6057,-1.4716,-1.495,0.0,0.0,0.0,-1.8062,-1.8319,-1.9657,-2.0281,-1.9501,-1.9237,-1.8965,-1.8541,-1.7824,-1.7207,-1.6823,-1.5897,-1.5194,-1.4665,-1.3535,-1.257,0.0,0.0,0.0,0.0,0.0,0.0,0.0,0.0,0.0,0.0,0.0,0.0,0.0,0.0,0.0,0.0,0.0,0.0,0.0,0.0,0.0,0.0,0.0,0.0,0.0,0.0,0.0,0.0,-1.8258,-1.8613,-1.9939,-1.9897,-1.9902,0.0,0.0,0.0,0.0,0.0,0.0,-2.2047,-2.2984,-2.3763,-2.4296,-2.4736,-2.5133,-2.5452,-2.589,-2.5968,-2.5743,-2.609,-2.6133,-2.5902,-2.5603,-2.5108,-2.4472,-2.37,-2.2859,-2.1985,-2.0853,-1.9565,-1.8241,-1.8128,-1.8013,-1.7939,-1.7753,-1.7585,-1.7468,-1.7468,-1.7394,-1.7298,-1.7276,-1.7276,-1.7115,-1.6342,0.0,0.0,0.0,0.0,-1.721,-1.7504,-1.8254,-1.8929,-1.8929,-1.9297,-1.9686,-1.9962,-2.0001,-1.9549,-1.8014,-1.7799,-1.7524,-1.6476,-1.6759,0.0,-1.6871,-1.8408,-1.9356,-1.8679,-1.9752,-2.0225,-1.9273,-1.909,-1.8758,-1.8065,-1.7751,-1.7065,-1.5878,-1.556,-1.512,-1.4554,-1.3859,-1.3177,-1.2494,0.0,0.0,0.0,0.0,0.0,0.0,0.0,0.0,0.0,0.0,0.0,0.0,0.0,0.0,0.0,0.0,0.0,0.0,0.0,0.0,0.0,0.0,0.0,0.0,0.0,0.0,0.0,0.0,0.0,-2.0822,-2.108,0.0,0.0,0.0,0.0,-2.2654,-2.3696,-2.4416,-2.4594,-2.5164,-2.5456,-2.5425,-2.5451,-2.5414,-2.5294,-2.6383,-2.6934,-2.6913,-2.7812,-2.8308,-2.8377,-2.7213,-2.6769,-2.6856,-2.5829,-2.4678,-2.3433,-2.1275,-2.0342,-2.0209,-1.982,-1.9699,-1.9603,-1.8967,-1.8713,-1.867,-1.8291,-1.8146,-1.8113,-1.8007,-1.7949,-1.7804,-1.7136,-1.7615,0.0,0.0,-1.833,-1.9153,-1.9182,-1.9494,-1.9816,-1.9816,-2.0185,-2.0654,-2.1045,-2.1133,-2.084,-1.9839,-1.9564,-1.9375,-1.8967,0.0,-1.8976,-1.9758,-1.9996,-2.0121,-2.0258,-2.0729,-2.0672,-1.9702,-1.9122,-1.8833,-1.894,-1.7717,-1.6959,-1.6925,-1.598,-1.556,-1.5898,-1.4334,-1.3496,-1.3519,-1.2255,0.0,0.0,0.0,0.0,0.0,0.0,0.0,0.0,0.0,0.0,0.0,0.0,0.0,0.0,0.0,0.0,0.0,0.0,0.0,0.0,0.0,0.0,0.0,0.0,0.0,0.0,0.0,0.0,-2.2555,-2.2874,0.0,-2.3892,-2.4221,-2.4349,-2.4238,-2.4719,-2.5198,-2.5589,-2.6199,-2.6642,-2.6968,-2.7302,-2.7425,-2.729,-2.7765,-2.7933,-2.771,-2.8187,-2.8377,-2.823,-2.7236,-2.655,-2.6095,-2.5121,-2.4222,-2.3322,-2.2514,-2.1673,-2.0855,-2.069,-2.038,-1.996,-1.9726,-1.951,-1.9309,-1.9167,-1.9006,-1.8889,-1.8864,-1.8838,-1.8851,-1.8851,-1.9116,-1.9506,-1.9841,-2.0227,-2.0605,-2.0889,-2.1074,-2.1182,-2.1182,-2.1299,-2.1465,-2.1621,-2.165,-2.1554,-2.1204,-2.1125,-2.0847,-2.0199,-2.0479,-2.0714,-2.0444,-2.1108,-2.1461,-2.0912,-2.0659,-2.0133,-1.9187,-1.8899,-1.8556,-1.7934,-1.8018,-1.7789,-1.6981,-1.6566,-1.6154,-1.5612,-1.5025,-1.4366,-1.3546,-1.3085,-1.2438,0.0,0.0,0.0,0.0,0.0,0.0,0.0,0.0,0.0,0.0,0.0,0.0,0.0,0.0,0.0,0.0,0.0,0.0,0.0,0.0,0.0,0.0,0.0,0.0,0.0,-2.1721,-2.2601,-2.4013,-2.4296,-2.4638,-2.5319,-2.5671,-2.5895,-2.5922,-2.6233,-2.6555,-2.6926,-2.7323,-2.7685,-2.7997,-2.8341,-2.8473,-2.8304,-2.8388,-2.8303,-2.8109,-2.842,-2.8509,-2.8349,-2.7674,-2.7085,-2.6504,-2.5309,-2.4527,-2.407,-2.3763,-2.2968,-2.1909,-2.1842,-2.147,-2.1015,-2.094,-2.0735,-2.049,-2.0414,-2.029,-2.0166,-2.0166,-2.0166,-2.0215,-2.0498,-2.0576,-2.0703,-2.1289,-2.1455,-2.1523,-2.1807,-2.1992,-2.21,-2.21,-2.2314,-2.2529,-2.2529,-2.2637,-2.2648,-2.2251,-2.2055,-2.1758,-2.1329,-2.1704,-2.1884,-2.1244,-2.2183,-2.2499,-2.1329,-2.1156,-2.0617,-1.9325,-1.9081,-1.8598,-1.7534,-1.8091,-1.804,-1.7079,-1.7011,-1.6682,-1.5943,-1.5709,-1.5138,-1.4165,-1.3718,-1.3126,-1.2324,0.0,0.0,0.0,0.0,0.0,0.0,0.0,0.0,0.0,0.0,0.0,0.0,0.0,0.0,0.0,0.0,0.0,0.0,0.0,0.0,0.0,0.0,0.0,-2.3428,-2.3548,-2.4042,-2.504,-2.5263,-2.5525,-2.5948,-2.6608,-2.7272,-2.7774,-2.8285,-2.8579,-2.8605,-2.8605,-2.8558,-2.844,-2.844,-2.8355,-2.816,-2.816,-2.816,-2.816,-2.8712,-2.8938,-2.8887,-2.8624,-2.8471,-2.8351,-2.6569,-2.579,-2.5748,-2.486,-2.4152,-2.3543,-2.3309,-2.3032,-2.2768,-2.2564,-2.2359,-2.2164,-2.1967,-2.1885,-2.1885,-2.1885,-2.1885,-2.1885,-2.1904,-2.1914,-2.1924,-2.1943,-2.1953,-2.1963,-2.1963,-2.2266,-2.2568,-2.2568,-2.3159,-2.3764,-2.3809,-2.4085,-2.4034,-2.299,-2.2322,-2.2048,-2.2415,-2.244,-2.2409,-2.2208,-2.3066,0.0,-2.1613,-2.2321,-2.217,-2.0119,-1.9614,-1.8988,-1.7927,-1.783,-1.7691,-1.7315,-1.7301,-1.7201,-1.691,-1.6272,-1.5739,-1.5396,-1.4187,-1.3375,-1.3038,0.0,0.0,0.0,0.0,0.0,0.0,0.0,0.0,0.0,0.0,0.0,0.0,0.0,0.0,0.0,0.0,0.0,0.0,0.0,0.0,0.0,-2.375,-2.4437,-2.4032,-2.4466,-2.5237,-2.6343,-2.6516,-2.6833,-2.764,-2.7903,-2.802,-2.8015,-2.8154,-2.8419,-2.8786,-2.8811,-2.9,-2.9403,-2.9416,-2.9365,-2.9327,-2.9327,-2.9327,-2.934,-2.9892,-2.9764,-2.9024,-2.8763,-2.8241,-2.7484,-2.6365,-2.5758,-2.5547,-2.5334,-2.5005,-2.4593,-2.3725,-2.298,-2.2359,-2.2287,-2.2164,-2.1967,-2.1926,-2.1885,-2.1885,-2.1885,-2.1885,-2.1943,-2.2246,-2.2559,-2.2924,-2.3184,-2.3486,-2.3721,-2.3721,-2.3809,-2.3896,-2.3896,-2.346,-2.3298,-2.4055,-2.3717,-2.313,-2.2849,-2.2686,-2.2318,-2.1682,-2.156,-2.1538,-2.1466,-2.1737,-2.1781,-2.1306,-2.1609,-2.1323,-1.9982,-1.9797,-1.9307,-1.8258,-1.8167,-1.8028,-1.7699,-1.7684,-1.7435,-1.6925,-1.6734,-1.6228,-1.5403,-1.4805,-1.4229,0.0,0.0,0.0,0.0,0.0,0.0,0.0,0.0,0.0,0.0,0.0,0.0,0.0,0.0,0.0,0.0,0.0,0.0,0.0,0.0,0.0,0.0,-2.5136,-2.5681,-2.582,-2.5871,-2.6302,-2.7449,-2.7507,-2.7744,-2.852,-2.8609,-2.8673,-2.88,-2.8812,-2.895,-2.9277,-2.9289,-2.9553,-3.0118,-3.0143,-3.0244,-3.0457,-3.0244,-3.0143,-3.0143,-3.0457,-3.005,-2.9109,-2.9188,-2.8697,-2.77,-2.684,-2.627,-2.6,-2.5659,-2.5305,-2.4896,0.0,0.0,0.0,0.0,-2.3036,-2.2949,-2.2949,-2.2949,-2.2949,-2.2949,-2.2949,-2.2988,-2.3232,-2.3486,-2.374,-2.3984,-2.4228,-2.4414,-2.4414,-2.4414,-2.4414,-2.4414,-2.4076,-2.3918,-2.4547,-2.4354,-2.3898,-2.3439,-2.3343,0.0,-2.1939,-2.1817,-2.1613,-2.0906,-2.1553,-2.1904,-2.1188,-2.1548,-2.1646,-2.1016,-2.0434,-1.9854,-1.9227,-1.8746,0.0,0.0,0.0,-1.7728,-1.7077,-1.6969,0.0,0.0,0.0,-1.5101,-1.4589,-1.445,0.0,0.0,-1.2797,-1.2628,0.0,0.0,0.0,0.0,0.0,0.0,0.0,0.0,0.0,0.0,0.0,0.0,0.0,0.0,0.0,0.0,-2.66,-2.704,-2.8047,-2.745,-2.7303,-2.8352,-2.832,-2.8411,-2.8938,-2.8988,-2.9264,-2.9842,-2.988,-2.9917,-2.9967,-2.9967,0.0,0.0,0.0,-3.0922,-3.1386,-3.0934,-3.0708,-3.0708,-3.0771,-3.0276,-2.9301,-2.981,-2.9472,-2.8457,-2.7613,-2.7035,-2.6711,-2.5939,-2.5319,-2.4894,-2.4969,-2.493,-2.4756,-2.447,-2.4414,-2.4414,-2.4414,0.0,0.0,-2.4414,-2.4414,-2.4414,-2.4414,-2.4453,-2.4492,-2.4492,-2.4521,-2.457,-2.457,-2.457,-2.457,-2.457,-2.4759,-2.5042,-2.5146,-2.5353,-2.5226,-2.4295,-2.4088,-2.3741,-2.2685,-2.2669,-2.2228,-2.0709,-2.2045,-2.2658,-2.1092,-2.1735,-2.2282,-2.2131,-2.1144,0.0,-2.0466,-1.9578,-1.8903,-1.857,-1.837,-1.8028,-1.7359,-1.7113,-1.6976,-1.6903,-1.6309,-1.5862,-1.5491,-1.5199,-1.4962,-1.4709,-1.3945,-1.3601,0.0,0.0,0.0,0.0,0.0,0.0,0.0,0.0,0.0,0.0,0.0,0.0,0.0,0.0,0.0,-2.6449,-2.7241,-2.8009,-2.8674,-2.8586,-2.8573,-2.8787,-2.8775,-2.9001,-2.9566,-2.9628,-2.9854,-3.0419,-3.0457,-3.0633,-3.106,-3.1085,-3.1135,-3.1235,-3.1248,-3.1286,-3.1386,-3.1286,-3.1248,-3.1248,-3.1687,0.0,-3.0457,-3.0273,-2.9613,-2.8624,-2.7675,-2.7029,-2.6557,-2.6377,-2.6006,-2.5458,-2.479,-2.4506,-2.446,-2.4414,-2.4414,-2.4414,-2.4414,-2.4414,-2.4414,-2.4414,-2.4414,-2.4414,-2.4414,-2.4668,0.0,-2.4941,-2.5205,-2.544,-2.544,-2.544,-2.544,-2.544,-2.4879,-2.4527,-2.5402,-2.4963,-2.4344,-2.4137,-2.4088,-2.3741,-2.2685,-2.2514,-2.2445,-2.2122,-2.1677,-2.1255,-2.092,-2.1081,-2.0885,-2.0027,-2.0471,-2.0782,-2.0782,-2.0629,-2.0335,-2.0032,-1.8927,-1.813,-1.7735,-1.7662,-1.7384,-1.691,-1.6778,-1.6558,-1.6228,-1.6126,-1.606,-1.6015,-1.4856,-1.432,0.0,0.0,0.0,0.0,0.0,0.0,0.0,0.0,0.0,0.0,0.0,-2.4883,-2.5217,0.0,-2.7369,-2.7657,-2.816,-2.8712,-2.9289,-2.9365,-2.9365,-2.9365,-2.9365,-2.9578,-3.0156,-3.0206,-3.0419,-3.0959,-3.0997,-3.1122,-3.1373,-3.1386,-3.1512,-3.1788,-3.18,-3.1938,-3.2227,-3.2227,-3.2227,-3.2227,-3.2516,-3.216,-3.1196,-3.1007,-3.0091,-2.8678,-2.807,-2.7326,-2.6496,-2.6217,-2.5927,-2.5645,-2.5206,-2.5031,-2.5031,-2.5031,-2.5031,-2.5031,-2.5031,-2.5031,-2.5031,-2.5031,-2.5031,-2.5031,-2.5031,-2.5225,-2.54,-2.54,-2.5566,-2.5693,-2.5693,-2.5693,-2.5693,-2.5693,-2.5274,-2.5069,-2.5586,-2.5274,-2.4913,-2.4913,-2.4913,-2.4707,-2.4205,-2.4106,-2.3759,-2.2634,-2.2484,-2.2291,-2.1785,-2.1684,-2.1489,-2.0987,-2.0885,-2.0885,-2.0885,-2.0439,-2.0189,-2.0377,-1.9222,-1.8401,-1.8072,-1.8057,-1.7904,-1.7589,-1.7421,-1.7179,-1.685,-1.6734,-1.6573,-1.6397,-1.5758,-1.5458,0.0,0.0,0.0,0.0,0.0,0.0,0.0,-2.3195,-2.3747,-2.4356,-2.5644,-2.6688,-2.6788,-2.7595,-2.8411,-2.8813,-2.8988,-2.9252,-2.9729,-2.988,-2.9955,-2.9955,-2.9955,-3.0168,-3.0708,-3.0771,-3.0984,-3.1512,-3.1549,-3.1599,-3.1712,-3.1712,-3.1926,-3.2365,-3.2378,-3.2604,-3.3111,-3.3124,-3.3124,-3.3124,-3.3124,-3.2667,-3.1901,-3.1492,-3.0441,-2.8888,-2.819,-2.7315,-2.64,-2.5878,-2.5693,-2.5693,-2.5693,-2.5693,-2.5693,-2.5693,-2.5693,-2.5693,-2.5693,-2.5693,-2.5693,-2.5693,-2.5693,-2.5693,-2.5693,-2.5693,-2.5693,-2.5693,-2.5693,-2.5693,-2.5693,-2.5693,-2.5693,-2.5693,-2.5693,-2.5693,-2.5693,-2.5693,-2.5693,-2.5693,-2.5693,-2.5693,-2.5693,-2.5693,-2.5128,-2.3402,-2.3692,-2.3791,-2.2935,-2.2643,-2.2484,-2.2484,-2.154,-2.0987,-2.1183,-2.0431,-2.0169,-2.0772,-1.9818,-1.8983,-1.8408,-1.8394,-1.8364,-1.8299,-1.8043,-1.7779,-1.7468,-1.726,-1.7049,-1.6785,-1.6785,-1.6653,-2.1317,-2.1656,-2.2284,-2.3364,-2.3627,-2.3791,0.0,-2.4946,-2.5485,-2.6097,-2.6751,-2.7379,-2.7833,-2.8423,-2.8813,-2.8888,-2.9365,-2.9716,-2.9779,-3.0218,-3.052,-3.052,-3.052,-3.0733,-3.1248,-3.1298,-3.1524,-3.2077,-3.2127,-3.234,-3.2898,-3.2893,-3.296,-3.298,-3.298,-3.3048,-3.3124,-3.3124,-3.3124,-3.3124,-3.3124,-3.3025,-3.2853,-3.1125,-3.0113,-2.9544,-2.7342,-2.6284,-2.61,-2.583,-2.5693,-2.5693,-2.5693,-2.5693,-2.5693,-2.5693,-2.5693,-2.5693,-2.5693,-2.5693,-2.5693,-2.5693,-2.5693,-2.5693,-2.5693,-2.5693,-2.5693,-2.5693,-2.5693,-2.5693,-2.5693,-2.5693,-2.5693,-2.5693,-2.5693,-2.5693,-2.5693,-2.5693,-2.5693,-2.5693,-2.5693,-2.5693,-2.5693,-2.5693,-2.5635,-2.5382,-2.4609,-2.4038,-2.3939,-2.3094,-2.2484,-2.2484,-2.154,-2.1285,-2.224,-2.2181,-2.2165,-2.2273,-2.1279,-2.0069,-1.8796,-1.8738,-1.8599,-1.8306,-1.8262,-1.8233,-1.8196,-1.816,-1.8123,-1.8086,-1.8086,-1.7465,-2.32,-2.3393,-2.3723,-2.4324,-2.4958,-2.5519,-2.5757,-2.644,-2.713,-2.7369,-2.7858,-2.831,-2.8499,-2.9051,-2.9428,-2.9428,-2.9641,-2.9905,-3.0231,-3.047,-3.0846,-3.1474,-3.1549,-3.1625,-3.1851,-3.1863,-3.2102,-3.2667,-3.2717,-3.2817,-3.3111,-3.3124,-3.3124,-3.3124,-3.3124,-3.3124,-3.3124,-3.3124,-3.3124,-3.3124,-3.3124,-3.3025,-3.2853,-3.2033,-3.0789,-2.9223,-2.7067,-2.6004,-2.5868,-2.5732,-2.5693,-2.5693,-2.5693,-2.5693,-2.5693,-2.5693,-2.5693,-2.5693,-2.5693,-2.5693,-2.5693,-2.5693,-2.5693,-2.5693,-2.5693,-2.5693,-2.5693,-2.5693,-2.5693,-2.5693,-2.5693,-2.5693,-2.5693,-2.5693,-2.5693,-2.5693,-2.5693,-2.5693,-2.5693,-2.5693,-2.5693,-2.5693,-2.5693,-2.5693,-2.5693,-2.5693,-2.5323,-2.502,-2.502,-2.4618,-2.4106,-2.3493,-2.2484,-2.2291,-2.3335,-2.2835,-2.2793,-2.3384,-2.1836,-2.0617,-2.0025,-1.9419,-1.9008,-1.8869,-1.8686,-1.8584,-1.8584,-1.8394,-1.8299,-1.8299,-1.8299,-1.8013,-2.5066,-2.5219,-2.5324,-2.5653,-2.6327,-2.6952,-2.6952,-2.7657,-2.8335,-2.8335,-2.8775,-2.9126,-2.9126,-2.9515,-2.9792,-2.9792,-2.9917,-3.0168,-3.0557,-3.0871,-3.1348,-3.2127,-3.2353,-3.2453,-3.2453,-3.2453,-3.2629,-3.3086,-3.3124,-3.3124,-3.3124,-3.3124,-3.3124,-3.3124,-3.3124,-3.3124,-3.3124,-3.3124,-3.3124,-3.3124,-3.3038,-3.2896,-3.268,-3.1977,-3.0564,-2.8495,-2.6744,-2.5868,-2.5693,-2.5693,-2.5693,-2.5693,-2.5693,-2.5693,-2.5693,-2.5693,-2.5693,-2.5693,-2.5693,-2.5693,-2.5693,-2.5693,-2.5693,-2.5693,-2.5693,-2.5693,-2.5693,-2.5693,-2.5693,-2.5693,-2.5693,-2.5693,-2.5693,-2.5693,-2.5693,-2.5693,-2.5693,-2.5693,-2.5693,-2.5693,-2.5693,-2.5693,-2.5693,-2.5693,-2.5693,-2.5693,-2.5693,-2.5693,-2.5693,-2.5693,-2.5274,-2.4196,-2.3384,-2.3235,-2.4038,-2.3393,-2.3285,-2.4038,-2.2634,-2.154,-2.0936,-2.013,-1.9576,-1.9331,-1.9045,-1.8921,-1.8921,-1.8686,-1.8569,-1.8569,-1.8569,-1.8569,-2.6613,-2.7076,-2.7331,-2.7871,-2.8034,-2.8059,-2.8059,-2.8499,-2.8863,-2.8863,-2.9365,-2.9767,-2.9767,-2.9779,-2.9792,-2.9792,-3.0244,-3.0595,-3.062,-3.1512,-3.2177,-3.2215,-3.2704,-3.3056,-3.3056,-3.3056,-3.3056,-3.3124,-3.3124,-3.3124,-3.3124,-3.3124,-3.3124,-3.3124,-3.3124,-3.3124,-3.3124,-3.3124,-3.3124,-3.3124,-3.2853,-3.2711,-3.2624,-3.0192,-2.8588,-2.7589,-2.6294,-2.5684,-2.5693,-2.5693,-2.5693,-2.5693,-2.5693,-2.5693,-2.5693,-2.5693,-2.5693,-2.5693,-2.5693,-2.5693,-2.5693,-2.5693,-2.5693,-2.5693,-2.5693,-2.5693,-2.5693,-2.5693,-2.5693,-2.5693,-2.5693,-2.5693,-2.5693,-2.5693,-2.5693,-2.5693,-2.5693,-2.5693,-2.5693,-2.5693,-2.5693,-2.5693,-2.5693,-2.5693,-2.5693,-2.5693,-2.5693,-2.5693,-2.5693,-2.5693,-2.5274,-2.4196,-2.4088,-2.4038,-2.4088,-2.4088,-2.4088,-2.4088,-2.4038,-2.3094,-2.0987,-2.0885,-2.038,-1.9324,-1.9264,-1.9257,-1.9257,-1.925,-1.925,-1.925,-1.925,-1.925,-2.7188,-2.7457,-2.7713,-2.8023,-2.8386,-2.8612,-2.8612,-2.9089,-2.9503,-2.9503,-2.9654,-2.9792,-2.9792,-2.9792,-2.9792,-2.9792,-3.0256,-3.0733,-3.1085,-3.175,-3.2353,-3.2742,-3.2998,-3.3124,-3.3124,-3.3124,-3.3124,-3.3124,-3.3124,-3.3124,-3.3124,-3.3124,-3.3124,-3.3124,-3.3124,-3.3124,-3.3124,-3.3124,-3.3124,-3.3124,-3.2692,-3.2431,-3.2201,-3.0531,-2.9246,-2.8272,-2.7152,-2.6332,-2.5693,-2.5693,-2.5693,-2.5693,-2.5693,-2.5693,-2.5693,-2.5693,-2.5693,-2.5693,-2.5693,-2.5693,-2.5693,-2.5693,-2.5693,-2.5693,-2.5693,-2.5693,-2.5693,-2.5693,-2.5693,-2.5693,-2.5693,-2.5693,-2.5693,-2.5693,-2.5693,-2.5693,-2.5693,-2.5693,-2.5693,-2.5693,-2.5693,-2.5693,-2.5693,-2.5693,-2.5693,-2.5693,-2.5693,-2.5693,-2.5693,-2.5693,-2.5586,-2.5226,-2.5177,-2.5177,-2.5177,-2.5177,-2.5177,-2.5177,-2.4501,-2.3791,-2.3035,-2.1633,-2.0731,-2.0388,-1.968,-1.9279,-1.9279,-1.9279,-1.9279,-1.9279,-1.9279,-1.9279,-2.8074,-2.835,-2.855,-2.8675,-2.8976,-2.9239,-2.9239,-2.9528,-2.9792,-2.9792,-2.9792,-2.9792,-2.9792,-2.9792,-2.9854,-3.0055,-3.0545,-3.1072,-3.1612,-3.2164,-3.2667,-3.3031,-3.3124,-3.3124,-3.3124,-3.3124,-3.3124,-3.3124,-3.3124,-3.3124,-3.3124,-3.3124,-3.3124,-3.3124,-3.3124,-3.3124,-3.3124,-3.3124,-3.3038,-3.2865,-3.2519,-3.2025,-3.1327,-3.017,-2.9143,-2.8121,-2.7105,-2.6284,-2.5693,-2.5693,-2.5693,-2.5693,-2.5693,-2.5693,-2.5693,-2.5693,-2.5693,-2.5693,-2.5693,-2.5693,-2.5693,-2.5693,-2.5693,-2.5693,-2.5693,-2.5693,-2.5693,-2.5693,-2.5693,-2.5693,-2.5693,-2.5693,-2.5693,-2.5693,-2.5693,-2.5693,-2.5693,-2.5693,-2.5693,-2.5693,-2.5693,-2.5693,-2.5693,-2.5693,-2.5693,-2.5693,-2.5693,-2.5693,-2.5693,-2.5693,-2.5693,-2.5693,-2.5693,-2.5693,-2.5693,-2.5693,-2.5693,-2.5693,-2.5069,-2.4501,-2.4137,-2.2785,-2.1684,-2.0936,-2.0233,-1.968,-1.9279,-1.9279,-1.9279,-1.9279,-1.9279,-1.9279,-2.9204,-2.9599,-2.9792,-2.9792,-2.9792,-2.9792,-2.9792,-2.9792,-2.9792,-2.9792,-2.9792,-2.9792,-2.9792,-2.9792,-2.9967,-3.0495,-3.1035,-3.1574,-3.2102,-3.2692,-3.3124,-3.3124,-3.3124,-3.3124,-3.3124,-3.3124,-3.3124,-3.3124,-3.3124,-3.3124,-3.3124,-3.3124,-3.3124,-3.3124,-3.3124,-3.3124,-3.3124,-3.3124,-3.2865,-3.24,-3.24,-3.1649,-3.026,-2.928,-2.8262,-2.7237,-2.6284,-2.5781,-2.5693,-2.5693,-2.5693,-2.5693,-2.5693,-2.5693,-2.5693,-2.5693,-2.5693,-2.5693,-2.5693,-2.5693,-2.5693,-2.5693,-2.5693,-2.5693,-2.5693,-2.5693,-2.5693,-2.5693,-2.5693,-2.5693,-2.5693,-2.5693,-2.5693,-2.5693,-2.5693,-2.5693,-2.5693,-2.5693,-2.5693,-2.5693,-2.5693,-2.5693,-2.5693,-2.5693,-2.5693,-2.5693,-2.5693,-2.5693,-2.5693,-2.5693,-2.5693,-2.5693,-2.5693,-2.5693,-2.5693,-2.5693,-2.5693,-2.5693,-2.5693,-2.5226,-2.4245,-2.4137,-2.3135,-2.1081,-2.0987,-2.0483,-1.948,-1.948,-1.9428,-1.9376,-1.9376,-1.9324,-2.9342,-2.9599,-2.9792,-2.9792,-2.9792,-2.9792,-2.9792,-2.9792,-2.9792,-2.9792,-2.9792,-2.9792,-2.9792,-2.9792,-2.9842,-2.998,-3.0783,-3.1436,-3.1574,-3.2453,-3.3124,-3.3124,-3.3124,-3.3124,-3.3124,-3.3124,-3.3124,-3.3124,-3.3124,-3.3124,-3.3124,-3.3124,-3.3124,-3.3124,-3.3124,-3.3124,-3.3124,-3.3124,-3.2865,-3.24,-3.24,-3.2025,-3.1294,-3.1048,-2.9977,-2.8308,-2.8028,-2.7067,-2.5693,-2.5693,-2.5693,-2.5693,-2.5693,-2.5693,-2.5693,-2.5693,-2.5693,-2.5693,-2.5693,-2.5693,-2.5693,-2.5693,-2.5693,-2.5693,-2.5693,-2.5693,-2.5693,-2.5693,-2.5693,-2.5693,-2.5693,-2.5693,-2.5693,-2.5693,-2.5693,-2.5693,-2.5693,-2.5693,-2.5693,-2.5693,-2.5693,-2.5693,-2.5693,-2.5693,-2.5693,-2.5693,-2.5693,-2.5693,-2.5693,-2.5693,-2.5693,-2.5693,-2.5693,-2.5693,-2.5693,-2.5693,-2.5693,-2.5693,-2.5693,-2.5586,-2.5323,-2.4501,-2.384,-2.3285,-2.2484,-2.1937,-2.1684,-2.1684,-2.1285,-2.0483,-2.0483,-2.0078,-2.956,-2.9702,-2.9792,-2.9792,-2.9792,-2.9792,-2.9792,-2.9792,-2.9753,-2.965,-2.9611,-2.9611,-2.9611,-2.9611,-2.9725,-3.0066,-3.0846,-3.1474,-3.1725,-3.2516,-3.3124,-3.3124,-3.3124,-3.3124,-3.3124,-3.3124,-3.3124,-3.3124,-3.3124,-3.3124,-3.3124,-3.3124,-3.3124,-3.3124,-3.3124,-3.3025,-3.2939,-3.2822,-3.2605,-3.2213,-3.2213,-3.1805,-3.1048,-3.1048,-3.017,-2.868,-2.8215,-2.7379,-2.637,-2.637,-2.637,-2.637,-2.637,-2.637,-2.6284,-2.5868,-2.5693,-2.5693,-2.5693,-2.5693,-2.5693,-2.5693,-2.5693,-2.5693,-2.5693,-2.5693,-2.5693,-2.5693,-2.5693,-2.5693,-2.5693,-2.5693,-2.5693,-2.5693,-2.5693,-2.5693,-2.5693,-2.5693,-2.5693,-2.5693,-2.5693,-2.5693,-2.5693,-2.5693,-2.5693,-2.5693,-2.5693,-2.5693,-2.5693,-2.5693,-2.5693,-2.5693,-2.5693,-2.5693,-2.5693,-2.5693,-2.5693,-2.5693,-2.5693,-2.5693,-2.5693,-2.5118,-2.4599,-2.4088,-2.3493,-2.2985,-2.2484,-2.2484,-2.2181,-2.1582,-2.1582,-2.1285,-2.974,-2.9792,-2.9792,-2.9792,-2.9792,-2.9792,-2.9753,-2.9753,-2.9663,-2.9431,-2.9341,-2.9341,-2.9341,-2.938,-2.9619,-3.034,-3.0894,-3.1474,-3.2026,-3.2604,-3.2993,-3.3111,-3.3124,-3.3124,-3.3124,-3.3124,-3.3124,-3.3124,-3.3124,-3.3124,-3.3124,-3.3124,-3.3068,-3.3038,-3.3038,-3.2896,-3.268,-3.2475,-3.2257,-3.1994,-3.1994,-3.1427,-3.0407,-3.0407,-2.9841,-2.8855,-2.784,-2.7426,-2.7369,-2.7284,-2.7284,-2.7379,-2.7237,-2.7189,-2.7105,-2.6121,-2.5771,-2.5781,-2.584,-2.5859,-2.584,-2.5723,-2.5732,-2.5771,-2.5771,-2.581,-2.5859,-2.5859,-2.5859,-2.5849,-2.5791,-2.5771,-2.5762,-2.5703,-2.5693,-2.5693,-2.5693,-2.5693,-2.5693,-2.5693,-2.5693,-2.5693,-2.5693,-2.5693,-2.5693,-2.5693,-2.5693,-2.5693,-2.5693,-2.5693,-2.5693,-2.5693,-2.5693,-2.5693,-2.5693,-2.5693,-2.5693,-2.5693,-2.5693,-2.5693,-2.5693,-2.5693,-2.5274,-2.4344,-2.4295,-2.385,-2.2944,-2.2944,-2.2844,-2.2685,-2.2685,-2.2634,-2.9792,-2.9792,-2.9792,-2.9792,-2.9792,-2.974,-2.9509,-2.947,-2.9392,-2.9209,-2.917,-2.917,-2.917,-2.9275,-2.9456,-2.9594,-3.0251,-3.0934,-3.1461,-3.2014,-3.2541,-3.3061,-3.3124,-3.3124,-3.3124,-3.3124,-3.3124,-3.3124,-3.3124,-3.3124,-3.3124,-3.3124,-3.2995,-3.2766,-3.2766,-3.268,-3.2431,-3.2431,-3.2257,-3.1994,-3.1994,-3.1805,-3.1427,-3.1427,-3.0869,-2.9886,-2.8866,-2.8437,-2.8402,-2.7558,-2.7699,-2.8355,-2.751,-2.7189,-2.7146,-2.6517,-2.6279,-2.6328,-2.667,-2.6797,-2.668,-2.5918,-2.5977,-2.6279,-2.6279,-2.6514,-2.6797,-2.6797,-2.6797,-2.6719,-2.6367,-2.6279,-2.6182,-2.5771,-2.5693,-2.5693,-2.5693,-2.5693,-2.5693,-2.5693,-2.5693,-2.5693,-2.5693,-2.5693,-2.5693,-2.5693,-2.5693,-2.5693,-2.5693,-2.5693,-2.5693,-2.5693,-2.5693,-2.5693,-2.5693,-2.5693,-2.5693,-2.5693,-2.5693,-2.5693,-2.5693,-2.5693,-2.5586,-2.543,-2.543,-2.5333,-2.5128,-2.5128,-2.4716,-2.384,-2.384,-2.3343,-2.9716,-2.9792,-2.9792,-2.9792,-2.9792,-2.974,-2.947,-2.9207,-2.8944,-2.8584,-2.8325,-2.813,-2.813,-2.8427,-2.8765,-2.9009,-2.9847,-3.0663,-3.1311,-3.1863,-3.2315,-3.2591,-3.2893,-3.2998,-3.2654,-3.2905,-3.3124,-3.3124,-3.3124,-3.3124,-3.3124,-3.2982,-3.2853,-3.2711,-3.2463,-3.2288,-3.2169,-3.2081,-3.1981,-3.1849,-3.1849,-3.1805,-3.1705,-3.1705,-3.1427,-3.0913,-2.9932,-2.9464,-2.9418,-2.8958,-2.9205,-2.9868,-2.9355,-2.899,-2.8603,-2.7838,-2.7192,-2.6839,-2.7572,-2.7844,-2.7874,-2.803,-2.7844,-2.7432,-2.686,-2.724,-2.7693,-2.7165,-2.7012,-2.6973,-2.6768,-2.6709,-2.666,-2.6455,-2.624,-2.6359,-2.7438,-2.6647,-2.5868,-2.637,-2.6052,-2.5693,-2.5693,-2.5693,-2.5693,-2.5693,-2.5693,-2.5693,-2.5693,-2.5693,-2.5693,-2.5693,-2.5693,-2.5693,-2.5693,-2.5693,-2.5693,-2.5693,-2.5693,-2.5693,-2.5693,-2.5693,-2.5693,-2.5693,-2.5693,-2.5693,-2.5693,-2.5693,-2.543,-2.4913,-2.4913,-2.4658,-2.9478,-2.9691,-2.9792,-2.9792,-2.9753,-2.9625,-2.9243,-2.8857,-2.8409,-2.7867,-2.7427,-2.7136,-2.7136,-2.761,-2.8116,-2.8484,-2.9417,-3.0393,-3.1217,-3.1721,-3.2077,-3.2202,-3.2717,-3.2855,-3.2277,-3.2742,-3.3124,-3.3124,-3.3138,-3.3213,-3.3213,-3.3053,-3.294,-3.2896,-3.2543,-3.2334,-3.2289,-3.2111,-3.2054,-3.2054,-3.2054,-3.2054,-3.2054,-3.2054,-3.2054,-3.201,-3.0971,-3.0686,-3.0834,-3.064,-3.094,-3.146,-3.1274,-3.088,-3.0339,-2.9416,-2.8571,-2.7945,-2.8925,-2.9258,-2.9408,-3.0302,-2.9891,-2.8961,-2.8087,-2.8491,-2.9067,-2.8228,-2.7984,-2.7953,-2.7863,-2.7843,-2.7813,-2.7723,-2.7442,-2.7645,-2.9169,-2.7913,-2.6731,-2.74,-2.6696,-2.6004,-2.6004,-2.583,-2.5693,-2.5693,-2.5693,-2.5693,-2.5693,-2.5693,-2.5693,-2.5693,-2.5693,-2.5693,-2.5693,-2.5693,-2.5693,-2.5693,-2.5693,-2.5693,-2.5693,-2.5693,-2.5693,-2.5693,-2.5693,-2.5693,-2.5693,-2.5693,-2.5693,-2.5693,-2.5693,-2.5693,-2.8963,-2.939,-2.9792,-2.9792,-2.9611,-2.9256,-2.8542,-2.8241,-2.7867,-2.7141,-2.6971,-2.6935,-2.6935,-2.7496,-2.8001,-2.8039,-2.8876,-2.9866,-3.0975,-3.1326,-3.165,-3.2152,0.0,-3.2855,-3.2277,-3.2742,-3.3124,-3.3124,-3.3314,-3.3456,-3.3456,-3.3716,-3.3759,-3.353,-3.3484,-3.3359,-3.3186,-3.314,-3.314,-3.314,-3.314,-3.314,-3.314,-3.314,-3.314,-3.3094,-3.2113,-3.216,-3.2942,-3.2019,-3.2242,-3.3014,-3.2089,-3.1674,-3.1575,-3.0921,-3.0628,-3.0604,-3.1139,-3.1342,-3.1342,-3.1444,-3.1149,-3.0678,-3.0578,-3.0893,-3.1291,-3.1189,-3.1189,-3.1091,-3.0647,-3.0528,-3.0431,-3.0106,-2.9976,-2.9872,-2.958,-2.9306,-2.9037,-2.8628,-2.7746,-2.7047,-2.7047,-2.6284,-2.5693,-2.5693,-2.5693,-2.5693,-2.5693,-2.5693,-2.5693,-2.5693,-2.5693,-2.5693,-2.5693,-2.5693,-2.5693,-2.5693,-2.5693,-2.5693,-2.5693,-2.5693,-2.5693,-2.5693,-2.5693,-2.5693,-2.5693,-2.5693,-2.5693,-2.5693,-2.5693,-2.5693,-2.8762,-2.9101,-2.9314,-2.9524,-2.9272,-2.882,-2.8254,-2.754,-2.6906,-2.6503,-2.6178,-2.5925,-2.5925,-2.6456,-2.6989,-2.7428,-2.8118,-2.9047,-3.0437,-3.0667,-3.0876,-3.1182,-3.2026,-3.234,-3.1763,-3.2541,-3.3176,-3.3314,-3.3802,-3.4053,-3.4053,-3.3876,-3.3722,-3.3584,-3.3504,-3.3377,-3.3284,-3.3284,-3.3284,-3.3284,-3.3284,-3.3284,-3.3284,-3.3284,-3.3284,-3.3284,-3.2899,-3.2946,-3.3284,-3.2852,-3.3125,-3.3694,-3.3292,-3.2943,-3.2627,-3.2377,-3.1895,-3.1414,-3.2269,-3.2538,-3.2689,-3.33,-3.3421,-3.3001,-3.1683,-3.1878,-3.2437,-3.1779,-3.1575,-3.1582,-3.1385,-3.1341,-3.1438,-3.1948,-3.1334,-3.0891,-3.1619,-3.0557,-2.9517,-2.9576,-2.8773,-2.7887,-2.7274,-2.6867,-2.6418,-2.5781,-2.5693,-2.5693,-2.5693,-2.5693,-2.5693,-2.5693,-2.5693,-2.5693,-2.5693,-2.5693,-2.5693,-2.5693,-2.5693,-2.5693,-2.5693,-2.5693,-2.5693,-2.5693,-2.5693,-2.5693,-2.5693,-2.5693,-2.5693,-2.5693,-2.5693,-2.5693,-2.8188,-2.8487,-2.87,-2.8885,-2.8623,-2.82,-2.7639,-2.6906,-2.6203,-2.5732,-2.5456,-2.5264,-2.5107,-2.5636,-2.631,-2.7014,-2.761,-2.8494,-2.9902,-3.0143,-3.0338,-3.0713,-3.1539,-3.1981,-3.1675,-3.2612,-3.3327,-3.3506,-3.4083,-3.4446,-3.4509,-3.4158,-3.3952,-3.3952,-3.3835,-3.3741,-3.3741,-3.3741,-3.3741,-3.3741,-3.3741,-3.3741,-3.3741,-3.3741,-3.3741,-3.3741,-3.3741,-3.3741,-3.3741,-3.3741,-3.3958,-3.4234,-3.4234,-3.4003,-3.3659,-3.3659,-3.3201,-3.265,-3.34,-3.3659,-3.3808,-3.4568,-3.4775,-3.4519,-3.3001,-3.3051,-3.3511,-3.2739,-3.2538,-3.2538,-3.2538,-3.2538,-3.275,-3.3511,-3.2826,-3.2328,-3.3327,-3.1984,-3.0646,-3.0834,-2.9943,-2.8912,-2.8215,-2.7605,-2.6962,-2.6235,-2.6139,-2.6052,-2.5732,-2.5965,-2.6004,-2.5732,-2.5693,-2.5693,-2.5693,-2.5693,-2.5693,-2.5693,-2.5693,-2.5693,-2.5693,-2.5693,-2.5693,-2.5693,-2.5693,-2.5693,-2.5693,-2.5693,-2.5693,-2.5693,-2.5693,-2.5693,-2.7032,-2.7538,-2.8073,-2.7889,-2.7668,-2.7311,-2.6578,-2.6251,-2.5793,-2.4747,-2.4939,-2.5155,-2.4626,-2.5384,-2.6286,-2.6813,-2.7509,-2.8378,-2.9448,-2.9833,-3.0285,-3.1021,-3.1555,-3.1975,-3.216,-3.3003,-3.353,-3.3582,-3.4117,-3.4509,-3.4787,-3.4763,-3.4763,-3.4763,-3.4763,-3.4763,-3.4763,-3.4763,-3.4763,-3.4763,-3.4763,-3.4763,-3.4763,-3.4763,-3.4763,-3.4763,-3.4763,-3.4763,-3.4763,-3.4763,-3.4763,-3.4775,-3.4775,-3.4775,-3.4775,-3.4775,-3.4787,-3.4775,-3.4775,-3.4775,-3.4775,-3.4775,-3.4775,-3.4775,-3.4775,-3.4775,-3.4775,-3.4775,-3.4775,-3.4775,-3.4775,-3.4775,-3.4775,-3.4775,-3.4775,-3.4619,-3.4102,-3.3586,-3.3116,-3.2599,-3.1244,-3.017,-3.017,-2.8541,-2.7189,-2.7189,-2.7189,-2.6829,-2.583,-2.6552,-2.6781,-2.583,-2.5693,-2.5693,-2.5693,-2.5693,-2.5693,-2.5693,-2.5693,-2.5693,-2.5693,-2.5693,-2.5693,-2.5693,-2.5693,-2.5693,-2.5693,-2.5693,-2.5693,-2.5693,-2.5693,-2.5693,-2.6781,-2.6976,-2.7199,-2.7336,-2.7078,-2.6554,-2.5828,-2.5323,-2.4831,-2.4145,-2.441,-2.4723,-2.452,-2.5384,-2.6286,-2.6801,-2.7406,-2.8234,-2.9448,-2.9502,-2.9677,-3.0397,-3.1119,-3.1826,-3.2461,-3.3323,-3.3768,-3.3618,-3.4268,-3.4703,-3.4823,-3.4775,-3.4775,-3.4775,-3.4775,-3.4775,-3.4775,-3.4775,-3.4775,-3.4775,-3.4775,-3.4775,-3.4775,-3.4775,-3.4775,-3.4775,-3.4775,-3.4775,-3.4775,-3.4775,-3.4775,-3.4775,-3.4775,-3.4775,-3.4775,-3.4775,-3.4775,-3.4775,-3.4775,-3.4775,-3.4775,-3.4775,-3.4775,-3.4775,-3.4775,-3.4775,-3.4775,-3.4775,-3.4775,-3.4775,-3.4775,-3.4775,-3.4775,-3.4775,-3.4775,-3.4631,-3.4102,-3.3645,-3.3128,-3.2599,-3.1809,-3.1003,-3.0306,-2.9658,-2.9004,-2.8355,-2.8215,-2.8121,-2.7804,-2.7426,-2.7094,-2.6781,-2.61,-2.5693,-2.5693,-2.5693,-2.5693,-2.5693,-2.5693,-2.5693,-2.5693,-2.5693,-2.5693,-2.5693,-2.5693,-2.5693,-2.5693,-2.5693,-2.5693,-2.5693,-2.5693,-2.5693,-2.6053,-2.6331,-2.6417,-2.6554,-2.6347,-2.5948,-2.5419,-2.5059,-2.4675,-2.4157,-2.4458,-2.4759,-2.452,-2.5384,-2.6286,-2.6801,-2.7342,-2.8117,-2.9407,-2.9264,-2.9361,-3.0422,-3.1169,-3.1855,-3.2506,-3.3359,-3.3735,-3.3504,-3.4282,-3.4775,-3.4775,-3.4775,-3.4775,-3.4775,-3.4775,-3.4775,-3.4775,-3.4775,-3.4775,-3.4775,-3.4775,-3.4775,-3.4775,-3.4775,-3.4775,-3.4775,-3.4775,-3.4775,0.0,-3.4775,-3.4775,-3.4775,-3.4775,-3.4775,-3.4775,-3.4775,-3.4775,-3.4775,-3.4775,-3.4775,-3.4775,-3.4775,-3.4775,-3.4775,-3.4775,-3.4775,-3.4775,-3.4775,-3.4775,-3.4775,-3.4775,-3.4775,-3.4775,-3.4775,-3.4775,-3.4691,-3.4354,-3.3777,-3.3188,-3.2863,-3.2235,-3.1516,-3.0869,-3.0441,-2.9977,-2.9372,-2.928,-2.9143,-2.8773,-2.8484,-2.8028,-2.7284,-2.6648,-2.61,-2.5732,-2.5693,-2.5693,-2.5693,-2.5693,-2.5693,-2.5693,-2.5693,-2.5693,-2.5693,-2.5693,-2.5693,-2.5693,-2.5693,-2.5693,-2.5693,-2.5693,-2.5693,0.0,-2.5601,-2.5744,-2.5557,-2.5546,-2.5523,-2.5299,-2.5252,0.0,-2.4578,-2.4879,-2.5107,-2.4628,-2.5444,-2.6334,-2.6861,-2.739,-2.8216,-2.9468,-2.9306,-2.9539,-3.0918,-3.1568,-3.2054,-3.2388,-3.3158,-3.3516,-3.3379,-3.427,-3.4775,-3.4775,-3.4775,-3.4775,-3.4775,-3.4775,-3.4775,-3.4775,-3.4775,-3.4775,-3.4775,-3.4775,-3.4775,-3.4775,-3.4775,-3.4775,-3.4775,-3.4775,-3.4775,-3.4775,-3.4775,-3.4775,-3.4775,-3.4775,-3.4775,-3.4775,-3.4775,-3.4775,-3.4775,-3.4775,-3.4775,-3.4775,-3.4775,-3.4775,-3.4775,-3.4775,-3.4775,-3.4775,-3.4775,-3.4775,-3.4775,-3.4775,-3.4775,-3.4775,-3.4775,-3.4775,-3.4775,-3.4775,-3.4042,-3.3332,-3.3296,-3.2442,-3.1753,-3.1717,-3.0913,-3.0306,-3.0306,-3.0306,-2.9977,-2.905,-2.9658,-2.9464,-2.7605,-2.7284,-2.6829,-2.5868,-2.5732,-2.5693,-2.5693,-2.5693,-2.5693,-2.5693,-2.5693,-2.5693,-2.5693,-2.5693,-2.5693,-2.5693,-2.5693,-2.5693,-2.5693,-2.5693,-2.5693,-2.3393,0.0,-2.4814,-2.478,-2.5081,-2.5239,0.0,-2.4676,-2.4554,-2.4049,-2.435,-2.4748,-2.5071,-2.6009,-2.6873,-2.7402,-2.7942,-2.8771,-3.0014,-3.0748,-3.1133,-3.1108,-3.1568,-3.2105,-3.2637,-3.3241,-3.3661,-3.3825,-3.4414,-3.4775,-3.4775,-3.4775,-3.4775,-3.4775,-3.4775,-3.4775,-3.4775,-3.4775,-3.4775,-3.4775,-3.4775,-3.4775,-3.4775,-3.4775,-3.4775,-3.4775,-3.4775,-3.4775,-3.4775,-3.4775,-3.4775,-3.4775,-3.4775,-3.4775,-3.4775,-3.4775,-3.4775,-3.4775,-3.4775,-3.4775,-3.4775,-3.4775,-3.4775,-3.4775,-3.4775,-3.4775,-3.4775,-3.4775,-3.4775,-3.4775,-3.4775,-3.4775,-3.4775,-3.4775,-3.4775,-3.4775,-3.4775,-3.427,-3.3753,-3.3368,-3.2755,-3.2166,-3.1789,-3.1516,-3.1339,-3.1339,-3.1339,-3.1238,-3.1015,-3.0543,-3.0022,-2.9567,-2.8121,-2.7094,-2.6867,-2.6149,-2.5693,-2.5693,-2.5693,-2.5693,-2.5693,-2.5693,-2.5693,-2.5693,-2.5693,-2.5693,-2.5693,-2.5693,-2.5693,-2.5693,-2.5693,-2.5693,-2.2041,-2.3015,-2.3929,-2.4364,-2.4735,-2.4939,-2.4891,-2.4879,-2.4807,-2.453,-2.4891,-2.5336,-2.5612,-2.6525,-2.7354,-2.763,-2.8433,-2.9306,-3.0094,-3.0893,-3.1306,-3.1009,-3.1329,-3.1908,-3.2731,-3.3189,-3.3629,-3.3946,-3.4486,-3.4775,-3.4775,-3.4775,-3.4775,-3.4775,-3.4775,-3.4775,-3.4775,-3.4775,-3.4775,-3.4775,-3.4775,-3.4775,-3.4775,-3.4775,-3.4775,-3.4775,-3.4775,-3.4775,-3.4775,-3.4775,-3.4775,-3.4775,-3.4775,-3.4775,-3.4775,-3.4775,-3.4775,-3.4775,-3.4775,-3.4775,-3.4775,-3.4775,-3.4775,-3.4775,-3.4775,-3.4775,-3.4775,-3.4775,-3.4775,-3.4775,-3.4775,-3.4775,-3.4775,-3.4775,-3.4775,-3.4775,-3.4775,-3.4366,-3.3838,-3.3392,-3.2863,-3.2322,-3.1801,-3.1705,-3.1705,-3.1705,-3.1705,-3.1705,-3.1705,-3.1238,-3.0722,-3.026,-2.8808,-2.7699,-2.7237,-2.6284,-2.5693,-2.5693,-2.5693,-2.5693,-2.5693,-2.5693,-2.5693,-2.5693,-2.5693,-2.5693,-2.5693,-2.5693,-2.5693,-2.5693,-2.5693,-2.5693,-2.1031,-2.2053,-2.3111,-2.4145,-2.4458,-2.4628,-2.5192,-2.5372,-2.5432,-2.5432,-2.5853,-2.625,-2.6334,-2.7103,-2.7738,-2.7933,-2.8923,-2.9809,-3.0008,-3.0569,-3.0901,-3.0859,-3.1199,-3.1824,-3.2774,-3.3184,-3.3621,-3.4078,-3.4522,-3.4775,-3.4775,-3.4775,-3.4775,-3.4775,-3.4775,-3.4775,-3.4775,-3.4775,-3.4775,-3.4775,-3.4775,-3.4775,-3.4775,-3.4775,-3.4775,-3.4775,-3.4775,-3.4775,-3.4775,-3.4775,-3.4775,-3.4775,-3.4775,-3.4775,-3.4775,-3.4775,-3.4775,-3.4775,-3.4775,-3.4775,-3.4775,-3.4775,-3.4775,-3.4775,-3.4775,-3.4775,-3.4775,-3.4775,-3.4775,-3.4775,-3.4775,-3.4775,-3.4775,-3.4775,-3.4775,-3.4775,-3.4775,-3.4426,-3.3958,-3.3501,-3.2984,-3.2442,-3.1934,-3.1765,-3.1705,-3.1705,-3.1705,-3.1705,-3.1705,-3.1705,-3.1383,-3.0543,-2.9521,-2.8541,-2.751,-2.6514,-2.5868,-2.5684,-2.5693,-2.5693,-2.5693,-2.5693,-2.5693,-2.5693,-2.5693,-2.5693,-2.5693,-2.5693,-2.5693,-2.5693,-2.5693,-2.5693,-2.0694,-2.1512,-2.257,-2.3649,-2.4206,-2.4628,-2.5192,-2.5661,-2.5973,-2.5973,-2.6418,-2.691,-2.7392,-2.7609,-2.8017,-2.8919,-2.975,-3.0275,-3.0311,-3.0996,-3.1381,-3.1156,-3.1989,-3.2738,-3.3196,-3.3621,-3.409,-3.4619,-3.4727,-3.4775,-3.4775,-3.4775,-3.4775,-3.4775,-3.4775,-3.4775,-3.4775,-3.4775,-3.4775,-3.4775,-3.4775,-3.4775,-3.4775,-3.4775,-3.4775,-3.4775,-3.4775,-3.4775,-3.4775,-3.4775,-3.4775,-3.4775,-3.4775,-3.4775,-3.4775,-3.4775,-3.4775,-3.4775,-3.4775,-3.4775,-3.4775,-3.4775,-3.4775,-3.4775,-3.4775,-3.4775,-3.4775,-3.4775,-3.4775,-3.4775,-3.4775,-3.4775,-3.4775,-3.4775,-3.4775,-3.4775,-3.4775,-3.4715,-3.4498,-3.3982,-3.3525,-3.2996,-3.2466,-3.2018,-3.1705,-3.1705,-3.1705,-3.1705,-3.1705,-3.1705,-3.1661,-3.1472,-3.0588,-2.9555,-2.8541,-2.7568,-2.66,-2.5732,-2.5693,-2.5693,-2.5693,-2.5693,-2.5693,-2.5693,-2.5693,-2.5693,-2.5693,-2.5693,-2.5693,-2.5693,-2.5693,-2.5693,-2.0875,-2.1596,-2.2582,-2.4194,-2.4771,-2.5083,-2.5612,-2.6154,-2.655,-2.655,-2.6946,-2.739,-2.763,-2.8186,-2.8863,-2.9745,-2.9842,-2.9956,-3.033,-3.0639,-3.0864,-3.1015,-3.1962,-3.2786,-3.3236,-3.3694,-3.421,-3.4739,-3.4775,-3.4775,-3.4775,-3.4775,-3.4775,-3.4775,-3.4775,-3.4775,-3.4775,-3.4775,-3.4775,-3.4775,-3.4775,-3.4775,-3.4775,-3.4775,-3.4775,-3.4775,-3.4775,-3.4775,-3.4775,-3.4775,-3.4775,-3.4775,-3.4775,-3.4775,-3.4775,-3.4775,-3.4775,-3.4775,-3.4775,-3.4775,-3.4775,-3.4775,-3.4775,-3.4775,-3.4775,-3.4775,-3.4775,-3.4775,-3.4775,-3.4775,-3.4775,-3.4775,-3.4775,-3.4775,-3.4775,-3.4775,-3.4775,-3.4775,-3.4619,-3.409,-3.3802,-3.344,-3.2647,-3.2286,-3.201,-3.1753,-3.1705,-3.1705,-3.1705,-3.1705,-3.1705,-3.1705,-3.0824,-2.9795,-2.8773,-2.7793,-2.6781,-2.5781,-2.5693,-2.5693,-2.5693,-2.5693,-2.5693,-2.5693,-2.5693,-2.5693,-2.5693,-2.5693,-2.5693,-2.5693,-2.5693,-2.5693,-2.1296,-2.2149,-2.3147,-2.4879,-2.5312,-2.548,-2.6142,-2.6681,-2.7078,-2.7078,-2.7498,-2.7945,-2.8065,-2.8859,-2.961,-3.0082,-2.9777,-2.9747,-3.0422,-3.0393,-3.0518,-3.118,-3.2106,-3.2887,-3.3416,-3.3874,-3.4342,-3.4751,-3.4775,-3.4775,-3.4775,-3.4775,-3.4775,-3.4775,-3.4775,-3.4775,-3.4775,-3.4775,-3.4775,-3.4775,-3.4775,-3.4775,-3.4775,-3.4775,-3.4775,-3.4775,-3.4775,-3.4775,-3.4775,-3.4775,-3.4775,-3.4775,-3.4775,-3.4775,-3.4775,-3.4775,-3.4775,-3.4775,-3.4775,-3.4775,-3.4775,-3.4775,-3.4775,-3.4775,-3.4775,-3.4775,-3.4775,-3.4775,-3.4775,-3.4775,-3.4775,-3.4775,-3.4775,-3.4775,-3.4775,-3.4775,-3.4775,-3.4775,-3.4667,-3.4258,-3.4078,-3.3706,-3.2839,-3.2575,-3.231,-3.1789,-3.1705,-3.1705,-3.1705,-3.1705,-3.1705,-3.1705,-3.1003,-3.0022,-2.8819,-2.7568,-2.6504,-2.5732,-2.5693,-2.5693,-2.5693,-2.5693,-2.5693,-2.5693,-2.5693,-2.5693,-2.5693,-2.5693,-2.5693,-2.5693,-2.5693,-2.5693,-2.1837,-2.322,-2.4506,-2.5155,-2.5312,-2.5576,-2.6597,-2.7246,-2.763,-2.763,-2.8089,-2.8607,-2.9088,-2.9641,-2.9881,-2.9465,-2.9737,-3.0218,-3.079,-3.0862,-3.1204,-3.2262,-3.2887,-3.3428,-3.3886,-3.4414,-3.4739,-3.4775,-3.4775,-3.4775,-3.4775,-3.4775,-3.4775,-3.4775,-3.4775,-3.4775,-3.4775,-3.4775,-3.4775,-3.4775,-3.4775,-3.4775,-3.4775,-3.4775,-3.4775,-3.4775,-3.4775,-3.4775,-3.4775,-3.4775,-3.4775,-3.4775,-3.4775,-3.4775,-3.4775,-3.4775,-3.4775,-3.4775,-3.4775,-3.4775,-3.4775,-3.4775,-3.4775,-3.4775,-3.4775,-3.4775,-3.4775,-3.4775,-3.4775,-3.4775,-3.4775,-3.4775,-3.4775,-3.4775,-3.4775,-3.4775,-3.4775,-3.4775,-3.4775,-3.4727,-3.433,-3.3826,-3.332,-3.2827,-3.231,-3.1789,-3.1705,-3.1705,-3.1705,-3.1705,-3.1705,-3.1705,-3.1661,-3.0824,-2.8866,-2.6935,-2.5781,-2.5693,-2.5693,-2.5693,-2.5693,-2.5693,-2.5693,-2.5693,-2.5693,-2.5693,-2.5693,-2.5693,-2.5693,-2.5693,-2.5693,-2.5693,-2.2296,-2.3821,-2.5216,-2.6057,-2.6562,-2.6885,-2.7294,-2.7798,-2.8306,-2.8643,-2.8871,-2.916,-2.9689,-2.9953,-3.0025,-2.9821,-2.9953,-3.0266,-3.0807,-3.1199,-3.1693,-3.2406,-3.3248,-3.3837,-3.397,-3.4474,-3.4775,-3.4775,-3.4775,-3.4775,-3.4775,-3.4775,-3.4775,-3.4775,-3.4775,-3.4775,-3.4775,-3.4775,-3.4775,-3.4775,-3.4775,-3.4775,-3.4775,-3.4775,-3.4775,-3.4775,-3.4775,-3.4775,-3.4775,-3.4775,-3.4775,-3.4775,-3.4775,-3.4775,-3.4775,-3.4775,-3.4775,-3.4775,-3.4775,-3.4775,-3.4775,-3.4775,-3.4775,-3.4775,-3.4775,-3.4775,-3.4775,-3.4775,-3.4775,-3.4775,-3.4775,-3.4775,-3.4775,-3.4775,-3.4775,-3.4775,-3.4775,-3.4775,-3.4775,-3.4775,-3.4619,-3.4318,-3.3802,-3.3585,-3.3164,-3.231,-3.2178,-3.2058,-3.1753,-3.1705,-3.1705,-3.1705,-3.1149,-3.0215,-2.8819,-2.7426,-2.637,-2.5732,-2.5693,-2.5693,-2.5693,-2.5693,-2.5693,-2.5693,-2.5693,-2.5693,-2.5693,-2.5693,-2.5693,-2.5693,-2.5693,-2.5693,-2.2755,-2.4362,-2.5781,-2.6669,-2.7414,-2.793,-2.793,-2.8246,-2.8655,-2.9184,-2.9569,-2.9749,-2.9617,-3.0001,-3.023,-2.9893,-3.0122,-3.0518,-3.1091,-3.1633,-3.219,-3.2899,-3.3562,-3.4054,-3.4234,-3.457,-3.4775,-3.4775,-3.4775,-3.4775,-3.4775,-3.4775,-3.4775,-3.4775,-3.4775,-3.4775,-3.4775,-3.4775,-3.4775,-3.4775,-3.4775,-3.4775,-3.4775,-3.4775,-3.4775,-3.4775,-3.4775,-3.4775,-3.4775,-3.4775,-3.4775,-3.4775,-3.4775,-3.4775,-3.4775,-3.4775,-3.4775,-3.4775,-3.4775,-3.4775,-3.4775,-3.4775,-3.4775,-3.4775,-3.4775,-3.4775,-3.4775,-3.4775,-3.4775,-3.4775,-3.4775,-3.4775,-3.4775,-3.4775,-3.4775,-3.4775,-3.4775,-3.4775,-3.4775,-3.4775,-3.4775,-3.4619,-3.409,-3.3994,-3.3706,-3.2887,-3.2611,-3.237,-3.2018,-3.1813,-3.1705,-3.1705,-3.0824,-2.9795,-2.8773,-2.7793,-2.6781,-2.5781,-2.5693,-2.5693,-2.5693,-2.5693,-2.5693,-2.5693,-2.5693,-2.5693,-2.5693,-2.5693,-2.5693,-2.5693,-2.5693,-2.5693,-2.3209,-2.4915,-2.6238,-2.6765,-2.769,-2.851,-2.851,-2.851,-2.8655,-2.9184,-3.0146,-3.0398,-2.8823,-2.9809,-3.053,-2.9484,-3.0194,-3.1103,-3.1645,-3.2154,-3.2887,-3.3874,-3.3994,-3.421,-3.4727,-3.4775,-3.4775,-3.4775,-3.4775,-3.4775,-3.4775,-3.4775,-3.4775,-3.4775,-3.4775,-3.4775,-3.4775,-3.4775,-3.4775,-3.4775,-3.4775,-3.4775,-3.4775,-3.4775,-3.4775,-3.4775,-3.4775,-3.4775,-3.4775,-3.4775,-3.4775,-3.4775,-3.4775,-3.4775,-3.4775,-3.4775,-3.4775,-3.4775,-3.4775,-3.4775,-3.4775,-3.4775,-3.4775,-3.4775,-3.4775,-3.4775,-3.4775,-3.4775,-3.4775,-3.4775,-3.4775,-3.4775,-3.4775,-3.4775,-3.4775,-3.4775,-3.4775,-3.4775,-3.4775,-3.4775,-3.4775,-3.4619,-3.409,-3.4006,-3.3826,-3.3368,-3.2851,-3.2515,-3.2503,-3.201,-3.1705,-3.1705,-3.0824,-2.9795,-2.8819,-2.7793,-2.6781,-2.5781,-2.5693,-2.5693,-2.5693,-2.5693,-2.5693,-2.5693,-2.5693,-2.5693,-2.5693,-2.5693,-2.5693,-2.5693,-2.5693,-2.5693,-2.3702,-2.5468,-2.6777,-2.7318,-2.8005,-2.851,-2.851,-2.851,-2.8655,-2.9184,-3.0146,-3.0657,-2.9773,-3.0302,-3.0814,-3.0458,-3.1031,-3.1669,-3.2178,-3.302,-3.3646,-3.3958,-3.4318,-3.4607,-3.4763,-3.4775,-3.4775,-3.4775,-3.4775,-3.4775,-3.4775,-3.4775,-3.4775,-3.4775,-3.4775,-3.4775,-3.4775,-3.4775,-3.4775,-3.4775,-3.4775,-3.4775,-3.4775,-3.4775,-3.4775,-3.4775,-3.4775,-3.4775,-3.4775,-3.4775,-3.4775,-3.4775,-3.4775,-3.4775,-3.4775,-3.4775,-3.4775,-3.4775,-3.4775,-3.4775,-3.4775,-3.4775,-3.4775,-3.4775,-3.4775,-3.4775,-3.4775,-3.4775,-3.4775,-3.4775,-3.4775,-3.4775,-3.4775,-3.4775,-3.4775,-3.4775,-3.4775,-3.4775,-3.4775,-3.4775,-3.4775,-3.4727,-3.457,-3.4546,-3.4366,-3.3897,-3.3681,-3.332,-3.2599,-3.201,-3.1705,-3.1705,-3.1427,-3.0869,-2.9841,-2.8819,-2.784,-2.6829,-2.61,-2.5693,-2.5693,-2.5693,-2.5693,-2.5693,-2.5693,-2.5693,-2.5693,-2.5693,-2.5693,-2.5693,-2.5693,-2.5693,-2.3678,-2.554,-2.697,-2.7294,-2.7969,-2.851,-2.851,-2.8679,-2.8979,-2.9508,-3.029,-3.0766,-3.0182,-3.0687,-3.1235,-3.1235,-3.1693,-3.2262,-3.3008,-3.3598,-3.4066,-3.4282,-3.4583,-3.4775,-3.4775,-3.4775,-3.4775,-3.4775,-3.4775,-3.4775,-3.4775,-3.4775,-3.4775,-3.4775,-3.4775,-3.4775,-3.4775,-3.4775,-3.4775,-3.4775,-3.4775,-3.4775,-3.4775,-3.4775,-3.4775,-3.4775,-3.4775,-3.4775,-3.4775,-3.4775,-3.4775,-3.4775,-3.4775,-3.4775,-3.4775,-3.4775,-3.4775,-3.4775,-3.4775,-3.4775,-3.4775,-3.4775,-3.4775,-3.4775,-3.4775,-3.4775,-3.4775,-3.4775,-3.4775,-3.4775,-3.4775,-3.4775,-3.4775,-3.4775,-3.4775,-3.4775,-3.4775,-3.4775,-3.4775,-3.4775,-3.4775,-3.4775,-3.4775,-3.4775,-3.4667,-3.4354,-3.4126,-3.3694,-3.2923,-3.2334,-3.1851,-3.148,-3.1603,-3.1149,-2.9704,-2.905,-2.8262,-2.7284,-2.6284,-2.5693,-2.5693,-2.5693,-2.5693,-2.5693,-2.5693,-2.5693,-2.5693,-2.5693,-2.5693,-2.5693,-2.5693,-2.5693,-2.3341,-2.5324,-2.691,-2.6958,-2.7762,-2.8582,-2.8582,-2.8955,-2.9436,-2.9917,-3.0434,-3.0675,-3.0242,-3.1067,-3.1789,-3.1789,-3.225,-3.2971,-3.3862,-3.403,-3.4246,-3.4727,-3.4775,-3.4775,-3.4775,-3.4775,-3.4775,-3.4775,-3.4775,-3.4775,-3.4775,-3.4775,-3.4775,-3.4775,-3.4775,-3.4775,-3.4775,-3.4775,-3.4775,-3.4775,-3.4775,-3.4775,-3.4775,-3.4775,-3.4775,-3.4775,-3.4775,-3.4775,-3.4775,-3.4775,-3.4775,-3.4775,-3.4775,-3.4775,-3.4775,-3.4775,-3.4775,-3.4775,-3.4775,-3.4775,-3.4775,-3.4775,-3.4775,-3.4775,-3.4775,-3.4775,-3.4775,-3.4775,-3.4775,-3.4775,-3.4775,-3.4835,-3.4823,-3.4823,-3.4835,-3.4823,-3.4835,-3.4835,-3.4775,-3.4775,-3.4775,-3.4775,-3.4775,-3.4775,-3.4775,-3.4775,-3.433,-3.3826,-3.3416,-3.2899,-3.2162,-3.1113,-3.138,-3.0826,-2.8866,-2.8634,-2.8168,-2.7284,-2.6284,-2.5693,-2.5693,-2.5693,-2.5693,-2.5693,-2.5693,-2.5693,-2.5693,-2.5693,-2.5693,-2.5693,-2.5693,-2.5693,-2.3341,-2.5324,-2.6994,-2.7402,-2.8342,-2.9124,-2.9124,-2.922,-2.9328,-2.9448,-2.9893,-3.035,-3.0694,-3.1589,-3.2322,-3.2322,-3.3104,-3.3742,-3.3958,-3.4342,-3.4655,-3.4763,-3.4775,-3.4775,-3.4775,-3.4775,-3.4775,-3.4775,-3.4775,-3.4775,-3.4775,-3.4775,-3.4775,-3.4775,-3.4775,-3.4775,-3.4775,-3.4775,-3.4775,-3.4775,-3.4775,-3.4775,-3.4775,-3.4775,-3.4775,-3.4775,-3.4775,-3.4775,-3.4775,-3.4775,-3.4775,-3.4775,-3.4775,-3.4775,-3.4775,-3.4775,-3.4775,-3.4775,-3.4775,-3.4775,-3.4775,-3.4775,-3.4775,-3.4775,-3.4775,-3.4775,-3.4775,-3.4775,-3.4775,-3.4775,-3.4775,-3.4981,-3.5126,-3.5126,-3.4932,-3.4884,-3.5078,-3.4932,-3.4775,-3.4775,-3.4775,-3.4775,-3.4775,-3.4775,-3.4775,-3.4775,-3.433,-3.3958,-3.3838,-3.344,-3.2566,-3.1147,-3.1101,-3.0479,-2.8852,-2.7981,-2.7426,-2.7237,-2.6284,-2.5693,-2.5693,-2.5693,-2.5693,-2.5693,-2.5693,-2.5693,-2.5693,-2.5693,-2.5693,-2.5693,-2.5693,-2.5693,-2.2622,-2.4908,-2.709,-2.7858,-2.8703,-2.9304,-2.9304,-2.9304,-2.9448,-2.9953,-3.0074,-3.041,-3.1456,-3.2118,-3.2659,-3.3152,-3.3646,-3.4078,-3.433,-3.4607,-3.4775,-3.4775,-3.4775,-3.4775,-3.4775,-3.4775,-3.4775,-3.4775,-3.4775,-3.4775,-3.4775,-3.4775,-3.4775,-3.4775,-3.4775,-3.4775,-3.4775,-3.4775,-3.4775,-3.4775,-3.4775,-3.4775,-3.4775,-3.4775,-3.4775,-3.4775,-3.4775,-3.4775,-3.4775,-3.4775,-3.4775,-3.4775,-3.4775,-3.4775,-3.4775,-3.4775,-3.4775,-3.4775,-3.4775,-3.4775,-3.4775,-3.4775,-3.4775,-3.4775,-3.4775,-3.4775,-3.4775,-3.4775,-3.4775,-3.4775,-3.4775,-3.4981,-3.5223,-3.5368,-3.5271,-3.5223,-3.5368,-3.5175,-3.4981,-3.4981,-3.4872,-3.4775,-3.4775,-3.4775,-3.4775,-3.4775,-3.4546,-3.4366,-3.4366,-3.397,-3.2948,-3.116,-3.1172,-3.049,-2.8481,-2.7819,-2.7438,-2.72,-2.6284,-2.5693,-2.5693,-2.5693,-2.5693,-2.5693,-2.5693,-2.5693,-2.5693,-2.5693,-2.5693,-2.5693,-2.5693,-2.5693,-2.1701,-2.4437,-2.7126,-2.8138,-2.8835,-2.9304,-2.9304,-2.9304,-2.9593,-3.0694,-3.0458,-3.0555,-3.207,-3.2515,-3.2923,-3.373,-3.4006,-3.4282,-3.4715,-3.4775,-3.4775,-3.4775,-3.4775,-3.4775,-3.4775,-3.4775,-3.4775,-3.4775,-3.4775,-3.4775,-3.4775,-3.4775,-3.4775,-3.4775,-3.4775,-3.4775,-3.4775,-3.4775,-3.4775,-3.4775,-3.4775,-3.4775,-3.4775,-3.4775,-3.4775,-3.4775,-3.4775,-3.4775,-3.4775,-3.4775,-3.4775,-3.4775,-3.4775,-3.4775,-3.4775,-3.4775,-3.4775,-3.4775,-3.4775,-3.4775,-3.4775,-3.4775,-3.4775,-3.4775,-3.4775,-3.4775,-3.4775,-3.4775,-3.4775,-3.4823,-3.4884,-3.5078,-3.532,-3.562,-3.5704,-3.5716,-3.5668,-3.5416,-3.5223,-3.5223,-3.4969,-3.4775,-3.4775,-3.4775,-3.4775,-3.4775,-3.4775,-3.4775,-3.4775,-3.4402,-3.3298,-3.1153,-3.124,-3.0466,-2.7981,-2.7682,-2.7467,-2.7106,-2.6189,-2.5693,-2.5693,-2.5693,-2.5693,-2.5693,-2.5693,-2.5693,-2.5693,-2.5693,-2.5693,-2.5693,-2.5693,-2.5693,-2.1172,-2.4355,-2.7042,-2.763,-2.857,-2.9304,-2.9304,-2.9304,-2.9593,-3.0694,-3.0458,-3.0434,-3.1609,-3.2596,-3.3236,-3.3368,-3.4138,-3.4703,-3.4775,-3.4775,-3.4775,-3.4775,-3.4775,-3.4775,-3.4775,-3.4775,-3.4775,-3.4775,-3.4775,-3.4775,-3.4775,-3.4775,-3.4775,-3.4775,-3.4775,-3.4775,-3.4775,-3.4775,-3.4775,-3.4775,-3.4775,-3.4775,-3.4775,-3.4775,-3.4775,-3.4775,-3.4775,-3.4775,-3.4775,-3.4775,-3.4775,-3.4775,-3.4775,-3.4775,-3.4775,-3.4775,-3.4775,-3.4775,-3.4775,-3.4775,-3.4775,-3.4775,-3.4775,-3.4775,-3.4775,-3.4775,-3.4775,-3.4775,-3.4775,-3.4823,-3.5078,-3.5368,-3.562,-3.5872,-3.6133,-3.6228,-3.6003,-3.5572,-3.5223,-3.5223,-3.4969,-3.4775,-3.4775,-3.4775,-3.4775,-3.4775,-3.4775,-3.4775,-3.4775,-3.4715,-3.3734,-3.1186,-3.0938,-2.9924,-2.7359,-2.6792,-2.6556,-2.6487,-2.5986,-2.5693,-2.5693,-2.5693,-2.5693,-2.5693,-2.5693,-2.5693,-2.5693,-2.5693,-2.5693,-2.5693,-2.5693,-2.5693,-2.2731,-2.4873,-2.6298,-2.7402,-2.8294,-2.8931,-2.9232,-2.9304,-2.9508,-3.0278,-3.0482,-3.0898,-3.1937,-3.2527,-3.3044,-3.3621,-3.4042,-3.4438,-3.4739,-3.4775,-3.4775,-3.4775,-3.4775,-3.4775,-3.4775,-3.4775,-3.4775,-3.4775,-3.4775,-3.4775,-3.4775,-3.4775,-3.4775,-3.4775,-3.4775,-3.4775,-3.4775,-3.4775,-3.4775,-3.4775,-3.4775,-3.4775,-3.4775,-3.4775,-3.4775,-3.4775,-3.4775,-3.4775,-3.4775,-3.4775,-3.4775,-3.4775,-3.4775,-3.4775,-3.4775,-3.4775,-3.4775,-3.4775,-3.4775,-3.4775,-3.4823,-3.4981,-3.503,-3.503,-3.503,-3.503,-3.4981,-3.4823,-3.4932,-3.5078,-3.5175,-3.5524,-3.586,-3.5968,-3.6193,-3.6358,-3.6228,-3.5895,-3.5572,-3.5271,-3.4969,-3.4775,-3.4775,-3.4775,-3.4775,-3.4775,-3.4775,-3.4775,-3.4775,-3.4775,-3.413,-3.2384,-3.1661,-3.0467,-2.8452,-2.7607,-2.6904,-2.6416,-2.6211,-2.5986,-2.5703,-2.5693,-2.5693,-2.5693,-2.5693,-2.5693,-2.5693,-2.5693,-2.5693,-2.5693,-2.5693,-2.5693,-2.2949,-2.4548,-2.5624,-2.6971,-2.7813,-2.8486,-2.9148,-2.9304,-2.9484,-3.0146,-3.0603,-3.112,-3.1937,-3.2322,-3.2755,-3.3478,-3.3826,-3.4126,-3.4522,-3.4691,-3.4775,-3.4775,-3.4775,-3.4775,-3.4775,-3.4775,-3.4775,-3.4775,-3.4775,-3.4775,-3.4775,-3.4775,-3.4775,-3.4775,-3.4775,-3.4775,-3.4775,-3.4775,-3.4775,-3.4775,-3.4775,-3.4775,-3.4775,-3.4775,-3.4775,-3.4775,-3.4775,-3.4775,-3.4775,-3.4775,-3.4775,-3.4775,-3.4775,-3.4775,-3.4775,-3.4775,-3.4775,-3.4823,-3.4884,-3.4872,-3.4932,-3.5223,-3.532,-3.532,-3.532,-3.532,-3.5271,-3.5078,-3.5126,-3.532,-3.5368,-3.5716,-3.6015,-3.6098,-3.6228,-3.6358,-3.6323,-3.6146,-3.586,-3.5368,-3.5078,-3.4872,-3.4872,-3.4835,-3.4775,-3.4775,-3.4775,-3.4775,-3.4775,-3.4775,-3.4311,-3.3051,-3.2134,-3.0922,-2.9271,-2.8279,-2.7444,-2.6758,-2.6514,-2.624,-2.5869,-2.5742,-2.5693,-2.5693,-2.5693,-2.5693,-2.5693,-2.5693,-2.5693,-2.5693,-2.5693,-2.5693,-2.0042,-2.2595,-2.5444,-2.6033,-2.6983,-2.8029,-2.9063,-2.9304,-2.9593,-3.0627,-3.0898,-3.0934,-3.0951,-3.1805,-3.2515,-3.2575,-3.3404,-3.4006,-3.403,-3.4462,-3.4775,-3.4775,-3.4775,-3.4775,-3.4775,-3.4775,-3.4775,-3.4775,-3.4775,-3.4775,-3.4775,-3.4775,-3.4775,-3.4775,-3.4775,-3.4775,-3.4775,-3.4775,-3.4775,-3.4775,-3.4775,-3.4775,-3.4775,-3.4775,-3.4775,-3.4775,-3.4775,-3.4775,-3.4775,-3.4775,-3.4775,-3.4775,-3.4775,-3.4775,-3.4775,-3.4775,-3.4775,-3.4823,-3.5078,-3.5175,-3.5223,-3.5464,-3.5572,-3.5572,-3.5572,-3.5572,-3.5572,-3.5572,-3.5572,-3.562,-3.5908,-3.5968,-3.6051,-3.6323,-3.6405,-3.6323,-3.6098,-3.6015,-3.592,-3.562,-3.5368,-3.5175,-3.5175,-3.4981,-3.4775,-3.4775,-3.4775,-3.4775,-3.4775,-3.4775,-3.4115,-3.2286,-3.1779,-3.0805,-2.89,-2.8111,-2.7699,-2.766,-2.6836,-2.6377,-2.6357,-2.5957,-2.5693,-2.5693,-2.5693,-2.5693,-2.5693,-2.5693,-2.5693,-2.5693,-2.5693,-2.5693,-2.0023,-2.2257,-2.4446,-2.4963,-2.6418,-2.7786,-2.821,-2.8811,-2.9304,-2.9352,-3.017,-3.0771,-3.0434,-3.124,-3.2006,-3.2006,-3.2575,-3.3176,-3.3513,-3.4006,-3.4282,-3.4282,-3.457,-3.4775,-3.4775,-3.4775,-3.4775,-3.4775,-3.4775,-3.4775,-3.4775,-3.4775,-3.4775,-3.4775,-3.4775,-3.4775,-3.4775,-3.4775,-3.4775,-3.4787,-3.5172,-3.5328,-3.5352,-3.5689,-3.5845,-3.5845,-3.5845,-3.5752,-3.5562,-3.5751,-3.574,-3.5537,-3.5378,-3.5075,-3.4823,-3.4981,-3.5078,-3.5078,-3.5368,-3.5476,-3.5512,-3.5764,-3.5872,-3.5872,-3.5872,-3.5872,-3.5812,-3.5668,-3.5716,-3.5872,-3.5968,-3.6146,-3.6275,-3.6358,-3.6405,-3.6358,-3.6275,-3.6098,-3.5968,-3.5872,-3.5512,-3.5223,-3.5223,-3.4981,-3.4775,-3.4775,-3.4775,-3.4775,-3.4775,-3.4775,-3.4519,-3.3857,-3.2488,-3.1319,-3.0619,-2.9033,-2.7949,-2.7738,-2.7119,-2.667,-2.6396,-2.5967,-2.5693,-2.5693,-2.5693,-2.5693,-2.5693,-2.5693,-2.5693,-2.5693,-2.5693,-2.5693,-2.0017,-2.1753,-2.3448,-2.4302,-2.5721,-2.7055,-2.7596,-2.8402,-2.8979,-2.8811,-2.9749,-3.0506,-3.0158,-3.085,-3.144,-3.144,-3.2022,-3.2563,-3.2719,-3.3344,-3.3789,-3.3789,-3.4102,-3.4378,-3.4498,-3.451,-3.4595,-3.4763,-3.4775,-3.4775,-3.4775,-3.4775,-3.4775,-3.4775,-3.4775,-3.4775,-3.4775,-3.4775,-3.4871,-3.5051,-3.5449,-3.5713,-3.5893,-3.6343,-3.6512,-3.6575,-3.6858,-3.6691,-3.6267,-3.6468,-3.6408,-3.6243,-3.6081,-3.5764,-3.5488,-3.5454,-3.5539,-3.5612,-3.5682,-3.5716,-3.5764,-3.6051,-3.6146,-3.6146,-3.6146,-3.6146,-3.6098,-3.5895,-3.6003,-3.6146,-3.6146,-3.6275,-3.6405,-3.6405,-3.6405,-3.6405,-3.6405,-3.6275,-3.6146,-3.6146,-3.5752,-3.5476,-3.5476,-3.5175,-3.492,-3.492,-3.4884,-3.4677,-3.4323,-3.4274,-3.4017,-3.34,-3.1971,-3.0908,-3.066,-2.9227,-2.8174,-2.7891,-2.7471,-2.7041,-2.6621,-2.6182,-2.584,-2.5693,-2.5693,-2.5693,-2.5693,-2.5693,-2.5693,-2.5693,-2.5693,-2.5693,0.0,0.0,0.0,-2.4073,-2.4879,-2.5697,-2.7284,-2.8089,-2.8631,-2.9148,-2.9689,-3.0062,-3.0062,-3.0494,-3.0886,-3.0874,-3.1757,-3.2286,-3.1789,-3.2587,-3.3272,-3.3272,-3.3284,-3.3489,-3.3922,-3.3982,-3.421,-3.4715,-3.4775,-3.4775,-3.4775,-3.4775,-3.4775,-3.4775,-3.4775,-3.4775,-3.4775,-3.4799,-3.5063,-3.5617,-3.5641,-3.593,-3.6435,-3.6751,-3.6864,-3.6901,-3.7755,-3.7631,-3.6864,-3.6864,-3.6852,-3.684,-3.684,-3.6828,-3.6755,-3.6232,-3.6198,-3.6419,-3.6131,-3.604,-3.6075,-3.6323,-3.6405,-3.6405,-3.6405,-3.6405,-3.6405,-3.6405,-3.6405,-3.6405,-3.6405,-3.6405,-3.6405,-3.6405,-3.6405,-3.6405,-3.6405,-3.6405,-3.6405,-3.6405,-3.6193,-3.6015,-3.6015,-3.5572,-3.5223,-3.5223,-3.4981,-3.4421,-3.335,-3.3201,-3.2488,-3.065,-3.013,-2.9576,-2.8781,-2.8461,-2.8291,-2.8291,-2.79,-2.7471,-2.7031,-2.6611,-2.6182,-2.5693,-2.5693,-2.5693,-2.5693,-2.5693,-2.5693,-2.5693,-2.5693,-2.5693,-1.9808,0.0,0.0,0.0,0.0,0.0,-2.5793,-2.6995,-2.7942,-2.8086,-2.8883,-2.952,-2.952,-2.9941,-3.0182,-2.9797,-3.0951,-3.1886,-3.1729,-3.2274,-3.2719,-3.2719,-3.3056,-3.3344,-3.3489,-3.3778,-3.4054,-3.4198,-3.457,-3.4775,-3.4775,-3.4775,-3.4775,-3.4775,-3.4775,-3.4775,-3.4775,-3.5159,-3.5473,-3.5629,-3.6601,-3.71,-3.7309,-3.7956,-3.8243,-3.8243,-3.8506,-3.8598,-3.8605,-3.8347,-3.8165,-3.8024,-3.7833,-3.7486,-3.7144,-3.7134,-3.7171,-3.7258,-3.6955,-3.6864,-3.6801,-3.6496,-3.6405,-3.6405,-3.6405,-3.6405,-3.6405,-3.6405,-3.6405,-3.6405,-3.6405,-3.6405,-3.6405,-3.6405,-3.6405,-3.6405,-3.6405,-3.6405,-3.6405,-3.6405,-3.6193,-3.6015,-3.6015,-3.5716,-3.5416,-3.5223,-3.5126,-3.4617,-3.335,-3.3201,-3.2689,-3.1421,-3.0442,-2.9828,-2.9576,-2.8804,-2.8291,-2.8291,-2.79,-2.7471,-2.7031,-2.6611,-2.6182,-2.5693,-2.5693,-2.5693,-2.5693,-2.5693,-2.5693,-2.5693,-2.5693,-2.5693,-2.0133,-2.0803,-2.1644,-2.2089,0.0,0.0,-2.4759,-2.5841,-2.6911,-2.7546,-2.821,-2.8775,-2.922,-2.9556,-2.9737,-2.9641,-3.0398,-3.1055,-3.1055,-3.1673,-3.2154,-3.2154,-3.243,-3.2695,-3.2935,-3.3224,-3.3489,-3.3705,-3.4162,-3.4546,-3.4775,-3.4775,-3.4775,-3.4775,-3.4775,-3.498,-3.5319,-3.5621,-3.6045,-3.6656,-3.7441,-3.7895,-3.8115,-3.8745,-3.8998,-3.8998,-3.9102,-3.927,-3.9426,-3.927,-3.9032,-3.8837,-3.8644,-3.8395,-3.8124,-3.7978,-3.8041,-3.8079,-3.7677,-3.7374,-3.7136,-3.6857,-3.6593,-3.6405,-3.6405,-3.6405,-3.6405,-3.6405,-3.6405,-3.6405,-3.6405,-3.6405,-3.6405,-3.6405,-3.6405,-3.6405,-3.6405,-3.6405,-3.6405,-3.6405,-3.6275,-3.6193,-3.6193,-3.5955,-3.5668,-3.5416,-3.5271,-3.4714,-3.335,-3.2801,-3.2134,-3.1011,-2.988,-2.9207,-2.9207,-2.8644,-2.8291,-2.8291,-2.8066,-2.7734,-2.7305,-2.6875,-2.6445,-2.6016,-2.5781,-2.5693,-2.5693,-2.5693,-2.5693,-2.5693,-2.5693,-2.5635,-2.0711,-2.0586,-2.0754,-2.1765,-2.2017,0.0,-2.3884,-2.4759,-2.5636,-2.7152,-2.751,-2.7921,-2.8871,-2.9088,-2.928,-2.9749,-2.9917,-3.0013,-3.0074,-3.0995,-3.1621,-3.1621,-3.1669,-3.191,-3.2358,-3.2466,-3.2695,-3.3164,-3.3717,-3.4198,-3.4667,-3.4751,-3.4775,-3.4775,-3.4835,-3.5247,-3.6099,-3.6136,-3.6784,-3.8079,-3.8192,-3.845,-3.8841,-3.9206,-3.9322,-3.9374,-3.9594,-3.9697,-3.9697,-3.9697,-3.953,-3.9322,-3.9322,-3.9322,-3.9299,-3.875,-3.8728,-3.8881,-3.8304,-3.7776,-3.7362,-3.7299,-3.6958,-3.6505,-3.6505,-3.6455,-3.6405,-3.6405,-3.6405,-3.6405,-3.6405,-3.6405,-3.6405,-3.6405,-3.6405,-3.6405,-3.6405,-3.6405,-3.6405,-3.6405,-3.6405,-3.6405,-3.6405,-3.6193,-3.5955,-3.562,-3.5416,-3.4763,-3.3362,-3.2286,-3.1165,-3.0026,-2.8953,-2.8291,-2.8291,-2.8291,-2.8291,-2.8291,-2.8291,-2.8105,-2.7738,-2.7246,-2.6816,-2.6396,-2.5967,-2.5693,-2.5693,-2.5693,-2.5693,-2.5693,-2.5693,-2.5538,-2.1356,-2.061,-2.0105,-2.0754,-2.0923,0.0,-2.2378,-2.3701,-2.4879,-2.5624,-2.6441,-2.7114,-2.7318,-2.7702,-2.8065,-2.8162,-2.8895,-2.9605,-3.0025,-3.0627,-3.1079,-3.1079,-3.1452,-3.1753,-3.1862,-3.2238,-3.2539,-3.2647,-3.3466,-3.4042,-3.4138,-3.4546,-3.4775,-3.4775,-3.503,-3.543,-3.6013,-3.6651,-3.7365,-3.813,-3.8755,-3.9107,-3.9206,-3.9478,-3.9633,-3.9633,-3.9697,-3.9697,-3.9697,-3.9697,-3.9697,-3.9633,-3.9633,-3.9633,-3.962,-3.9508,-3.9482,-3.9459,-3.8894,-3.868,-3.8467,-3.8002,-3.7475,-3.7023,-3.7023,-3.6757,-3.6405,-3.6405,-3.6405,-3.6405,-3.6405,-3.6405,-3.6405,-3.6405,-3.6405,-3.6405,-3.6405,-3.6405,-3.6405,-3.6405,-3.6405,-3.6405,-3.6405,-3.6358,-3.6181,-3.5668,-3.5572,-3.4969,-3.34,-3.2286,-3.1165,-3.0026,-2.8953,-2.8291,-2.8291,-2.8291,-2.8291,-2.8291,-2.8291,-2.8105,-2.7738,-2.7246,-2.6816,-2.6396,-2.5967,-2.5693,-2.5693,-2.5693,-2.5693,-2.5693,-2.5693,-2.5538,0.0,0.0,0.0,-2.061,0.0,0.0,0.0,-2.2221,-2.3195,-2.3989,-2.4795,-2.5516,-2.5997,-2.6204,-2.6517,-2.7196,-2.7628,-2.8047,-2.8431,-2.9653,-3.0482,-3.0482,-3.0766,-3.1019,-3.1296,-3.1529,-3.1913,-3.2466,-3.3224,-3.373,-3.3982,-3.4498,-3.4872,-3.4981,-3.5126,-3.5698,-3.6788,-3.722,-3.7889,-3.8885,-3.9301,-3.9478,-3.9478,-3.9645,-3.9697,-3.9697,-3.9697,-3.9697,-3.9697,-3.9697,-3.9697,-3.9697,-3.9697,-3.9697,-3.9697,-3.9697,-3.9697,-3.9647,-3.9383,-3.9094,-3.8869,-3.853,-3.8052,-3.755,-3.7262,-3.6845,-3.6405,-3.6405,-3.6405,-3.6405,-3.6405,-3.6405,-3.6405,-3.6405,-3.6405,-3.6405,-3.6405,-3.6405,-3.6405,-3.6405,-3.6405,-3.6405,-3.6405,-3.6405,-3.6275,-3.586,-3.5668,-3.5271,-3.4311,-3.2689,-3.137,-3.0805,-2.927,-2.8291,-2.8291,-2.8291,-2.8291,-2.8291,-2.8291,-2.8193,-2.7988,-2.7363,-2.6719,-2.6074,-2.5801,-2.5693,-2.5693,-2.5693,-2.5693,-2.5693,-2.5693,-2.5489,0.0,0.0,0.0,0.0,0.0,-2.0237,0.0,0.0,0.0,-2.2794,-2.3167,-2.3604,-2.4502,-2.4469,-2.4584,-2.5524,-2.5849,-2.6027,-2.6054,-2.7751,0.0,-2.9719,-2.9965,-3.0254,-3.0718,-3.0862,-3.1276,-3.2262,-3.2839,-3.3356,-3.3826,-3.4342,-3.4824,-3.5175,-3.5271,-3.6015,-3.7581,-3.7643,-3.8366,-3.9697,-3.9697,-3.9697,-3.9697,-3.9697,-3.9697,-3.9697,-3.9697,-3.9697,-3.9697,-3.9697,-3.9697,-3.9697,-3.9697,-3.9697,-3.9697,-3.9697,-3.9697,-3.9697,-3.9697,-3.9408,-3.9032,-3.9032,-3.8642,-3.8052,-3.7387,-3.692,-3.6543,-3.6443,-3.6405,-3.6405,-3.6405,-3.6405,-3.6405,-3.6405,-3.6405,-3.6405,-3.6405,-3.6405,-3.6405,-3.6405,-3.6405,-3.6405,-3.6405,-3.6405,-3.6275,-3.5955,-3.5716,-3.5476,-3.5175,-3.325,-3.183,-3.1626,-2.9838,-2.8495,-2.8291,-2.8291,-2.8291,-2.8291,-2.8291,-2.8291,-2.8291,-2.7471,-2.665,-2.583,-2.5732,-2.5693,-2.5693,-2.5693,-2.5693,-2.5693,-2.5645,-2.5333,0.0,0.0,0.0,0.0,-2.1608,0.0,0.0,0.0,-2.1704,-2.2794,0.0,-2.1748,0.0,0.0,0.0,-2.1339,-2.2916,-2.392,-2.3189,-2.4274,-2.6007,-2.8411,-2.952,-3.011,-3.017,-3.0603,-3.1163,-3.1765,-3.2274,-3.2815,-3.3344,-3.3802,-3.4438,-3.5163,-3.5428,-3.6222,-3.7581,-3.7854,-3.853,-3.9697,-3.9697,-3.9697,-3.9697,-3.9697,-3.9697,-3.9697,-3.9697,-3.9697,-3.9697,-3.9697,-3.9697,-3.9697,-3.9697,-3.9697,-3.9697,-3.9697,-3.9697,-3.9697,-3.9697,-3.9647,-3.9597,-3.9597,-3.922,-3.863,-3.75,-3.7149,-3.6985,-3.6543,-3.6405,-3.6405,-3.6405,-3.6405,-3.6405,-3.6405,-3.6405,-3.6405,-3.6405,-3.6405,-3.6405,-3.6405,-3.6405,-3.6405,-3.6405,-3.6405,-3.6228,-3.5716,-3.562,-3.5428,-3.4932,-3.3758,-3.265,-3.1677,-3.0494,-2.9313,-2.8398,-2.8291,-2.8291,-2.8291,-2.8291,-2.8291,-2.8291,-2.7471,-2.6797,-2.6328,-2.5937,-2.5693,-2.5693,-2.5693,-2.5693,-2.5684,-2.544,-2.5186,0.0,0.0,0.0,0.0,0.0,0.0,-2.2209,0.0,-2.0934,0.0,0.0,0.0,0.0,0.0,0.0,0.0,-2.1854,0.0,0.0,0.0,-2.4381,0.0,0.0,0.0,-2.8796,-3.0119,-3.1007,-3.1235,-3.201,-3.2599,-3.2815,-3.3597,-3.4293,-3.4951,-3.5353,-3.6319,-3.7841,-3.7953,-3.8567,-3.9697,-3.9697,-3.9697,-3.9697,-3.9697,-3.9697,-3.9697,-3.9697,-3.9697,-3.9697,-3.9697,-3.9697,-3.9697,-3.9697,-3.9697,-3.9697,-3.9697,-3.9697,-3.9697,-3.9697,-3.9697,-3.9697,-3.9697,-3.932,-3.8831,-3.8304,-3.7927,-3.755,-3.6998,-3.6835,-3.6807,-3.6493,-3.6405,-3.6405,-3.6405,-3.6405,-3.6405,-3.6405,-3.6405,-3.6405,-3.6405,-3.6405,-3.6405,-3.6405,-3.6405,-3.631,-3.6086,-3.5812,-3.5524,-3.5271,-3.3499,-3.2083,-3.1626,-3.0037,-2.8804,-2.8344,-2.8291,-2.8291,-2.8291,-2.8291,-2.8184,-2.7939,-2.7344,-2.6816,-2.6396,-2.5967,-2.5693,-2.5693,-2.5693,-2.5693,-2.5684,-2.544,-2.5137,-2.6971,-2.6093,-2.5276,-2.4759,-2.4242,-2.3701,-2.3171,-2.2131,0.0,0.0,0.0,0.0,0.0,0.0,0.0,0.0,0.0,-2.017,0.0,0.0,0.0,0.0,0.0,0.0,0.0,-2.907,-3.02,-3.0486,-3.1468,-3.219,-3.2478,-3.3391,-3.4181,-3.4762,-3.5385,-3.6402,-3.7776,-3.7939,-3.8504,-3.9471,-3.9622,-3.9697,-3.9697,-3.9697,-3.9697,-3.9697,-3.9697,-3.9697,-3.9697,-3.9697,-3.9697,-3.9697,-3.9697,-3.9697,-3.9697,-3.9697,-3.9697,-3.9697,-3.9697,-3.9697,-3.9697,-3.9697,-3.9421,-3.9069,-3.8919,-3.858,-3.8128,-3.7563,-3.7412,-3.7287,-3.6782,-3.6631,-3.6593,-3.6443,-3.6405,-3.6405,-3.6405,-3.6405,-3.6405,-3.6405,-3.6405,-3.6405,-3.6405,-3.6405,-3.6358,-3.6323,-3.5908,-3.5572,-3.5524,-3.3449,-3.1931,-3.1626,-2.988,-2.8601,-2.8344,-2.8291,-2.8291,-2.8291,-2.8291,-2.8154,-2.7904,-2.7305,-2.6875,-2.6562,-2.6016,-2.5693,-2.5693,-2.5693,-2.5635,-2.5586,-2.5333,-2.5088,-2.8438,-2.8041,-2.745,-2.6922,-2.6418,-2.5865,-2.5324,-2.4422,-2.3224,0.0,0.0,0.0,0.0,0.0,0.0,0.0,0.0,0.0,0.0,0.0,0.0,0.0,0.0,0.0,0.0,-2.7292,-2.8507,0.0,-3.0403,-3.1384,-3.2442,-3.3225,-3.3991,-3.475,-3.5575,-3.6372,-3.7211,-3.7739,-3.8304,-3.8957,-3.9433,-3.9697,-3.9697,-3.9697,-3.9697,-3.9697,-3.9697,-3.9697,-3.9697,-3.9697,-3.9697,-3.9697,-3.9697,-3.9697,-3.9697,-3.9697,-3.9697,-3.9697,-3.9697,-3.9697,-3.9697,-3.9697,-3.9685,-3.9572,-3.9032,-3.8906,-3.873,-3.814,-3.7977,-3.7852,-3.7299,-3.7161,-3.7023,-3.6531,-3.6405,-3.6405,-3.6405,-3.6405,-3.6405,-3.6405,-3.6405,-3.6405,-3.6405,-3.6405,-3.6323,-3.6063,-3.5764,-3.5524,-3.5223,-3.4005,-3.275,-3.1728,-3.0546,-2.9408,-2.8398,-2.8291,-2.8291,-2.8291,-2.8291,-2.8281,-2.8271,-2.7461,-2.7012,-2.6992,-2.6122,-2.5693,-2.5693,-2.5693,-2.5586,-2.5294,-2.5039,-2.4883,-2.946,-2.8919,-2.821,-2.7978,-2.7837,-2.7464,-2.6549,-2.5182,-2.4014,0.0,0.0,0.0,0.0,0.0,0.0,0.0,0.0,0.0,0.0,0.0,0.0,0.0,0.0,0.0,0.0,0.0,0.0,0.0,-2.983,0.0,-3.1408,-3.2364,-3.3305,-3.4232,-3.4891,-3.5844,-3.7174,-3.7726,-3.8304,-3.8932,-3.9433,-3.9697,-3.9697,-3.9697,-3.9697,-3.9697,-3.9697,-3.9697,-3.9697,-3.9697,-3.9697,-3.9697,-3.9697,-3.9697,-3.9697,-3.9697,-3.9697,-3.9697,-3.9697,-3.9697,-3.9697,-3.9697,-3.9697,-3.9659,-3.9471,-3.9421,-3.9295,-3.873,-3.858,-3.8442,-3.7877,-3.7726,-3.7588,-3.7036,-3.6958,-3.6857,-3.6493,-3.6405,-3.6405,-3.6405,-3.6405,-3.6405,-3.6405,-3.6405,-3.6358,-3.6275,-3.5908,-3.532,-3.4507,-3.3089,-3.1728,-3.0598,-2.9471,-2.8698,-2.8344,-2.8291,-2.8291,-2.8291,-2.8291,-2.8291,-2.8291,-2.7471,-2.691,-2.6746,-2.5865,-2.5342,-2.5186,-2.5186,-2.5137,-2.5039,-2.4784,-2.4637,-3.0597,-3.0013,-2.9304,-2.9124,-2.8931,-2.8558,-2.7654,-2.6453,-2.5307,-2.4625,0.0,0.0,0.0,0.0,0.0,0.0,0.0,0.0,0.0,0.0,0.0,0.0,0.0,0.0,0.0,0.0,0.0,0.0,0.0,0.0,0.0,-3.1978,-3.3013,-3.3982,-3.4595,-3.5605,-3.6885,-3.7638,-3.8203,-3.858,-3.9333,-3.9697,-3.9697,-3.9697,-3.9697,-3.9697,-3.9697,-3.9697,-3.9697,-3.9697,-3.9697,-3.9697,-3.9697,-3.9697,-3.9697,-3.9697,-3.9697,-3.9697,-3.9697,-3.9697,-3.9697,-3.9697,-3.9697,-3.9697,-3.9697,-3.9697,-3.9584,-3.9032,-3.9057,-3.8981,-3.8216,-3.8165,-3.8178,-3.7613,-3.7475,-3.7324,-3.682,-3.6707,-3.6644,-3.6455,-3.6405,-3.6405,-3.6405,-3.6405,-3.6405,-3.6405,-3.5943,-3.5368,-3.4653,-3.2839,-3.1319,-3.0598,-2.9164,-2.8291,-2.8291,-2.8291,-2.8291,-2.8291,-2.8291,-2.8291,-2.8291,-2.7617,-2.7133,-2.6814,-2.5987,-2.5416,-2.51,-2.4958,-2.4833,-2.4735,-2.4578,-2.444]},{"header":{"parameterUnit":"m.s-1","parameterCategory":1,"la1":30.6,"la2":29.2853,"lo1":-89.7004,"lo2":-87.6739,"dx":0.0162,"dy":0.0183,"nx":112,"ny":82,"refTime":"2022-12-07T18:00:00:Z","depth":0,"parameterNumber":3,"parameterNumberName":"V-component_of_WINDS"},"data":[0.0,0.0,0.0,0.0,0.0,0.0,0.0,0.0,0.0,0.0,0.0,0.0,0.0,0.0,0.0,0.0,0.0,0.0,0.0,0.0,0.0,0.0,0.0,0.0,0.0,0.0,0.0,0.0,0.0,0.0,0.0,0.0,0.0,0.0,0.0,0.0,0.0,0.0,0.0,0.0,0.0,0.0,0.0,0.0,0.0,0.0,0.0,0.0,0.0,0.0,0.0,0.0,0.0,0.0,0.0,0.0,0.0,0.0,0.0,0.0,0.0,0.0,0.0,0.0,0.0,0.0,0.0,0.0,0.0,0.0,0.0,0.0,0.0,0.0,0.0,0.0,0.0,0.0,0.0,0.0,0.0,0.0,0.0,0.0,0.0,0.0,0.0,0.0,0.0,0.0,2.1832,2.1963,2.1963,2.2222,2.2857,2.2327,2.1973,2.1957,0.0,0.0,0.0,0.0,0.0,0.0,0.0,0.0,0.0,0.0,0.0,0.0,0.0,0.0,0.0,0.0,0.0,0.0,0.0,0.0,0.0,0.0,0.0,0.0,0.0,0.0,0.0,0.0,0.0,0.0,0.0,0.0,0.0,0.0,0.0,0.0,0.0,0.0,0.0,0.0,0.0,0.0,0.0,0.0,0.0,0.0,0.0,0.0,0.0,0.0,0.0,0.0,0.0,0.0,0.0,0.0,0.0,0.0,0.0,0.0,0.0,0.0,0.0,0.0,0.0,0.0,0.0,0.0,0.0,0.0,0.0,0.0,0.0,0.0,0.0,0.0,0.0,0.0,0.0,0.0,0.0,0.0,0.0,0.0,0.0,0.0,0.0,0.0,0.0,0.0,0.0,0.0,0.0,0.0,0.0,0.0,0.0,0.0,0.0,0.0,0.0,0.0,0.0,0.0,2.2942,2.3571,2.3637,2.3454,2.294,2.2791,2.2597,2.2268,0.0,0.0,0.0,0.0,0.0,0.0,0.0,0.0,0.0,0.0,0.0,0.0,0.0,0.0,0.0,0.0,0.0,0.0,0.0,0.0,0.0,0.0,0.0,0.0,0.0,0.0,0.0,0.0,0.0,0.0,0.0,0.0,0.0,0.0,0.0,0.0,0.0,0.0,0.0,0.0,0.0,0.0,0.0,0.0,0.0,0.0,0.0,0.0,0.0,0.0,0.0,0.0,0.0,0.0,0.0,0.0,0.0,0.0,0.0,0.0,0.0,0.0,0.0,0.0,0.0,0.0,0.0,0.0,0.0,0.0,0.0,0.0,0.0,0.0,0.0,0.0,0.0,0.0,0.0,0.0,0.0,0.0,0.0,0.0,0.0,0.0,0.0,0.0,0.0,0.0,0.0,0.0,0.0,0.0,0.0,0.0,0.0,0.0,0.0,0.0,0.0,0.0,0.0,2.304,2.3785,2.453,2.4249,2.4033,2.41,2.3354,2.291,2.2952,2.2417,0.0,0.0,0.0,0.0,0.0,0.0,0.0,0.0,0.0,0.0,0.0,0.0,0.0,0.0,0.0,0.0,0.0,0.0,0.0,0.0,0.0,0.0,0.0,0.0,0.0,0.0,0.0,0.0,0.0,0.0,0.0,0.0,0.0,0.0,0.0,0.0,0.0,0.0,0.0,0.0,0.0,0.0,0.0,0.0,0.0,0.0,0.0,0.0,0.0,0.0,0.0,0.0,0.0,0.0,0.0,0.0,0.0,0.0,0.0,0.0,0.0,0.0,0.0,0.0,0.0,0.0,0.0,0.0,0.0,0.0,0.0,0.0,0.0,0.0,0.0,0.0,0.0,0.0,0.0,0.0,0.0,0.0,0.0,0.0,0.0,0.0,0.0,0.0,0.0,0.0,0.0,0.0,0.0,0.0,0.0,0.0,0.0,0.0,0.0,0.0,0.0,0.0,2.3802,2.4547,2.5292,2.4862,2.4679,2.5077,2.4067,2.3427,2.3442,2.3208,0.0,0.0,0.0,0.0,0.0,0.0,0.0,0.0,0.0,0.0,0.0,0.0,0.0,0.0,0.0,0.0,0.0,0.0,0.0,0.0,0.0,0.0,0.0,0.0,0.0,0.0,0.0,0.0,0.0,0.0,0.0,0.0,0.0,0.0,0.0,0.0,0.0,0.0,0.0,0.0,0.0,0.0,0.0,0.0,0.0,0.0,0.0,0.0,0.0,0.0,0.0,0.0,0.0,0.0,0.0,0.0,0.0,0.0,0.0,0.0,0.0,0.0,0.0,0.0,0.0,0.0,0.0,0.0,0.0,0.0,0.0,0.0,0.0,0.0,0.0,0.0,0.0,0.0,0.0,0.0,0.0,0.0,0.0,0.0,0.0,0.0,0.0,0.0,0.0,0.0,0.0,0.0,0.0,0.0,0.0,0.0,0.0,0.0,0.0,0.0,0.0,0.0,2.458,2.5309,2.6036,2.607,2.5788,2.516,2.5011,2.448,2.338,2.3639,0.0,0.0,0.0,0.0,0.0,0.0,0.0,0.0,0.0,0.0,0.0,0.0,0.0,0.0,0.0,0.0,0.0,0.0,0.0,0.0,0.0,0.0,0.0,0.0,0.0,0.0,0.0,0.0,0.0,0.0,0.0,0.0,0.0,0.0,0.0,0.0,0.0,0.0,0.0,0.0,0.0,0.0,0.0,0.0,0.0,0.0,0.0,0.0,0.0,0.0,0.0,0.0,0.0,0.0,0.0,0.0,0.0,0.0,0.0,0.0,0.0,0.0,0.0,0.0,0.0,0.0,0.0,0.0,0.0,0.0,0.0,0.0,0.0,0.0,0.0,0.0,0.0,0.0,0.0,0.0,0.0,0.0,0.0,0.0,0.0,0.0,0.0,0.0,0.0,0.0,0.0,0.0,0.0,0.0,0.0,0.0,0.0,0.0,0.0,0.0,0.0,0.0,2.5459,2.6586,2.6868,2.7296,2.7263,2.6536,2.6054,2.538,2.4428,0.0,0.0,0.0,0.0,0.0,0.0,0.0,0.0,0.0,0.0,0.0,0.0,0.0,0.0,0.0,0.0,0.0,0.0,0.0,0.0,0.0,0.0,0.0,0.0,0.0,0.0,0.0,0.0,0.0,0.0,0.0,0.0,0.0,0.0,0.0,0.0,0.0,0.0,0.0,0.0,0.0,0.0,0.0,0.0,0.0,0.0,0.0,0.0,0.0,0.0,0.0,0.0,0.0,0.0,0.0,0.0,0.0,0.0,0.0,0.0,0.0,0.0,0.0,0.0,0.0,0.0,0.0,0.0,0.0,0.0,0.0,0.0,0.0,0.0,0.0,0.0,0.0,0.0,0.0,0.0,0.0,0.0,0.0,0.0,0.0,0.0,0.0,0.0,0.0,0.0,0.0,0.0,0.0,0.0,0.0,0.0,0.0,0.0,0.0,0.0,0.0,0.0,2.4575,2.6161,2.7381,2.7613,2.8094,2.8194,2.768,2.6984,2.6184,2.535,0.0,0.0,0.0,0.0,0.0,0.0,0.0,0.0,0.0,0.0,0.0,0.0,0.0,0.0,0.0,0.0,0.0,0.0,0.0,0.0,0.0,0.0,0.0,0.0,0.0,0.0,0.0,0.0,0.0,0.0,0.0,0.0,0.0,0.0,0.0,0.0,0.0,0.0,0.0,0.0,0.0,0.0,0.0,0.0,0.0,0.0,0.0,0.0,0.0,0.0,0.0,0.0,0.0,0.0,0.0,0.0,0.0,0.0,0.0,0.0,0.0,0.0,0.0,0.0,0.0,0.0,0.0,0.0,0.0,0.0,0.0,0.0,0.0,0.0,0.0,0.0,0.0,0.0,0.0,0.0,0.0,0.0,0.0,0.0,0.0,0.0,0.0,0.0,0.0,0.0,0.0,0.0,0.0,0.0,0.0,0.0,0.0,0.0,0.0,0.0,0.0,0.0,2.5537,2.6601,2.7597,2.8326,2.8426,2.8426,2.8409,2.7729,2.692,0.0,0.0,0.0,0.0,0.0,0.0,0.0,0.0,0.0,0.0,0.0,0.0,0.0,0.0,0.0,0.0,0.0,0.0,0.0,0.0,0.0,0.0,0.0,0.0,0.0,0.0,0.0,0.0,0.0,0.0,0.0,0.0,0.0,0.0,0.0,0.0,0.0,0.0,0.0,0.0,0.0,0.0,0.0,0.0,0.0,0.0,0.0,0.0,0.0,0.0,0.0,0.0,0.0,0.0,0.0,0.0,0.0,0.0,0.0,0.0,0.0,0.0,0.0,0.0,0.0,0.0,0.0,0.0,0.0,0.0,0.0,0.0,0.0,0.0,0.0,0.0,0.0,0.0,0.0,0.0,0.0,0.0,0.0,0.0,0.0,0.0,0.0,0.0,0.0,0.0,0.0,0.0,0.0,0.0,0.0,0.0,0.0,0.0,0.0,0.0,0.0,0.0,0.0,2.6447,2.7824,2.887,2.9085,2.9582,2.9682,2.9152,2.892,2.8246,2.6971,0.0,0.0,0.0,0.0,0.0,0.0,0.0,0.0,0.0,0.0,0.0,0.0,0.0,0.0,0.0,0.0,0.0,0.0,0.0,0.0,0.0,0.0,0.0,0.0,0.0,0.0,0.0,0.0,0.0,0.0,0.0,0.0,0.0,0.0,0.0,0.0,0.0,0.0,0.0,0.0,0.0,0.0,0.0,0.0,0.0,0.0,0.0,0.0,0.0,0.0,0.0,0.0,0.0,0.0,0.0,0.0,0.0,0.0,0.0,0.0,0.0,0.0,0.0,0.0,0.0,0.0,0.0,0.0,0.0,0.0,0.0,0.0,0.0,0.0,0.0,0.0,0.0,0.0,0.0,0.0,0.0,0.0,0.0,0.0,0.0,0.0,0.0,0.0,0.0,0.0,0.0,0.0,0.0,0.0,0.0,0.0,0.0,0.0,0.0,0.0,0.0,0.0,2.7411,2.8856,2.9943,3.0241,3.094,3.109,3.034,3.0009,2.9159,2.7602,0.0,0.0,0.0,0.0,0.0,0.0,0.0,0.0,0.0,0.0,0.0,0.0,0.0,0.0,0.0,0.0,0.0,0.0,0.0,0.0,0.0,0.0,0.0,0.0,0.0,0.0,0.0,0.0,0.0,0.0,0.0,0.0,0.0,0.0,0.0,0.0,0.0,0.0,0.0,0.0,0.0,0.0,0.0,0.0,0.0,0.0,0.0,0.0,0.0,0.0,0.0,0.0,0.0,0.0,0.0,0.0,0.0,0.0,0.0,0.0,0.0,0.0,0.0,0.0,0.0,0.0,0.0,0.0,0.0,0.0,0.0,0.0,0.0,0.0,0.0,0.0,0.0,0.0,0.0,0.0,0.0,0.0,0.0,0.0,0.0,0.0,0.0,0.0,0.0,0.0,0.0,0.0,0.0,0.0,0.0,0.0,0.0,0.0,0.0,0.0,0.0,0.0,2.8619,2.9829,3.0928,3.1722,3.2392,3.2525,3.1833,3.1087,2.9935,2.823,0.0,0.0,0.0,0.0,0.0,0.0,0.0,0.0,0.0,0.0,0.0,0.0,0.0,0.0,0.0,0.0,0.0,0.0,0.0,0.0,0.0,0.0,0.0,0.0,0.0,0.0,0.0,0.0,0.0,0.0,0.0,0.0,0.0,0.0,0.0,0.0,0.0,0.0,0.0,0.0,0.0,0.0,0.0,0.0,0.0,0.0,0.0,0.0,0.0,0.0,0.0,0.0,0.0,0.0,0.0,0.0,0.0,0.0,0.0,0.0,2.2828,2.2677,0.0,0.0,0.0,0.0,0.0,0.0,0.0,0.0,0.0,0.0,0.0,0.0,0.0,0.0,0.0,0.0,0.0,0.0,0.0,0.0,0.0,0.0,0.0,0.0,0.0,0.0,0.0,0.0,0.0,0.0,0.0,0.0,0.0,0.0,0.0,0.0,0.0,0.0,0.0,0.0,3.0976,3.1404,3.1972,3.3124,3.339,3.3383,3.3109,3.2415,3.1551,3.0448,2.8887,0.0,0.0,0.0,0.0,0.0,0.0,0.0,0.0,0.0,0.0,0.0,0.0,0.0,0.0,0.0,0.0,0.0,0.0,0.0,0.0,0.0,0.0,0.0,0.0,0.0,0.0,0.0,0.0,0.0,0.0,0.0,0.0,0.0,0.0,0.0,0.0,0.0,0.0,0.0,0.0,0.0,0.0,0.0,0.0,0.0,0.0,0.0,0.0,0.0,0.0,0.0,0.0,0.0,0.0,0.0,0.0,0.0,0.0,0.0,2.318,2.276,0.0,0.0,0.0,0.0,0.0,0.0,0.0,0.0,0.0,0.0,0.0,0.0,0.0,0.0,0.0,0.0,0.0,0.0,0.0,0.0,0.0,0.0,0.0,0.0,0.0,0.0,0.0,0.0,0.0,0.0,0.0,0.0,0.0,0.0,0.0,0.0,0.0,0.0,0.0,0.0,3.1847,3.2553,3.3208,3.3867,3.444,3.4596,3.4161,3.3951,3.3193,3.169,3.0803,0.0,0.0,0.0,0.0,0.0,0.0,0.0,0.0,0.0,0.0,0.0,0.0,0.0,0.0,0.0,0.0,0.0,0.0,0.0,0.0,0.0,0.0,0.0,0.0,0.0,0.0,0.0,0.0,0.0,0.0,0.0,0.0,0.0,0.0,0.0,0.0,0.0,0.0,0.0,0.0,0.0,0.0,0.0,0.0,0.0,0.0,0.0,0.0,0.0,0.0,0.0,0.0,0.0,2.5384,2.5929,2.6709,2.6367,2.6243,2.6168,2.3909,2.3119,2.3447,2.3795,0.0,0.0,0.0,0.0,0.0,0.0,0.0,0.0,0.0,0.0,0.0,0.0,0.0,0.0,0.0,0.0,0.0,0.0,0.0,0.0,0.0,0.0,2.6118,2.6151,2.7062,2.7571,2.6301,0.0,0.0,0.0,0.0,0.0,0.0,0.0,0.0,0.0,0.0,0.0,3.249,3.3649,3.4494,3.474,3.5791,3.6148,3.5351,3.5561,3.4853,3.2753,3.2648,3.1436,0.0,0.0,0.0,0.0,0.0,0.0,0.0,0.0,0.0,0.0,0.0,0.0,0.0,0.0,0.0,0.0,0.0,0.0,0.0,0.0,0.0,0.0,0.0,0.0,0.0,0.0,0.0,0.0,0.0,0.0,0.0,0.0,1.9325,1.999,0.0,0.0,0.0,0.0,0.0,0.0,0.0,0.0,0.0,0.0,0.0,0.0,0.0,2.471,2.4938,2.583,2.6158,2.5869,2.648,2.6762,2.6788,2.6967,2.7043,2.7054,2.6788,0.0,2.6246,2.613,0.0,0.0,0.0,0.0,0.0,0.0,0.0,0.0,0.0,0.0,0.0,0.0,0.0,0.0,0.0,0.0,0.0,0.0,0.0,0.0,0.0,0.0,2.8517,2.8391,2.8614,2.8924,2.9227,2.828,2.7233,2.6752,2.7308,2.808,0.0,0.0,0.0,0.0,0.0,0.0,3.4458,3.5074,3.5768,3.6847,3.8051,3.8318,3.7236,3.7134,3.644,3.48,3.3317,3.231,3.1803,2.9572,0.0,0.0,0.0,0.0,0.0,0.0,0.0,0.0,0.0,0.0,0.0,0.0,0.0,0.0,0.0,0.0,0.0,0.0,0.0,0.0,0.0,0.0,0.0,0.0,0.0,0.0,0.0,0.0,0.0,1.9725,2.0308,2.1146,2.1468,2.1897,0.0,0.0,0.0,0.0,0.0,0.0,0.0,0.0,0.0,2.5707,2.6263,2.6804,2.7272,2.7604,2.7777,2.7751,2.7949,2.815,2.8287,2.8379,2.864,2.9,2.9342,2.9569,2.9605,2.7992,2.7579,2.7921,0.0,0.0,0.0,0.0,2.6702,2.6789,2.6823,2.684,2.6892,2.691,0.0,0.0,0.0,0.0,0.0,0.0,0.0,2.9575,2.9896,3.043,3.0835,3.0796,3.1137,3.1543,3.1742,3.1284,3.0594,2.9706,2.9812,3.0438,3.1648,3.197,0.0,0.0,0.0,3.479,3.5953,3.6775,3.7548,3.8376,3.8902,3.91,3.8871,3.8775,3.8198,3.6914,3.613,3.4839,3.2938,3.1789,3.0161,0.0,0.0,0.0,0.0,0.0,0.0,0.0,0.0,0.0,0.0,0.0,0.0,0.0,0.0,0.0,0.0,0.0,0.0,0.0,0.0,0.0,0.0,0.0,0.0,0.0,0.0,0.0,0.0,2.0773,2.1318,2.2389,2.2738,2.3199,0.0,0.0,0.0,0.0,0.0,0.0,2.514,2.6266,2.7037,2.7401,2.7898,2.8408,2.8959,2.9199,2.9416,2.9613,2.9881,3.0128,3.0327,3.058,3.0937,3.1393,3.1956,3.2419,3.2595,3.0199,2.935,2.955,2.9367,2.9323,2.9346,2.9185,2.9195,2.9288,2.9288,2.9309,2.9366,2.9402,2.9402,2.9495,2.9864,0.0,0.0,0.0,0.0,3.137,3.1989,3.2511,3.2869,3.2869,3.3423,3.4011,3.4144,3.4211,3.3774,3.2332,3.2027,3.2445,3.3969,3.3983,0.0,3.5469,3.6127,3.6692,3.726,3.8248,3.9059,3.9515,3.9799,3.9999,4.0103,4.0222,3.9839,3.8811,3.8392,3.7074,3.4497,3.3771,3.2108,2.9345,0.0,0.0,0.0,0.0,0.0,0.0,0.0,0.0,0.0,0.0,0.0,0.0,0.0,0.0,0.0,0.0,0.0,0.0,0.0,0.0,0.0,0.0,0.0,0.0,0.0,0.0,0.0,0.0,0.0,2.4005,2.4091,0.0,0.0,0.0,0.0,2.6061,2.72,2.7842,2.7737,2.838,2.8773,2.8801,2.883,2.8915,2.9098,3.035,3.0984,3.1028,3.242,3.2998,3.2861,3.3756,3.4109,3.4066,3.4826,3.508,3.4822,3.3155,3.2475,3.242,3.1719,3.1449,3.1371,3.08,3.0612,3.0616,3.0821,3.0884,3.0903,3.1033,3.1089,3.115,3.1478,3.1861,0.0,0.0,3.2983,3.3258,3.3309,3.385,3.4409,3.4409,3.4962,3.5684,3.6451,3.6603,3.5915,3.3513,3.3131,3.3558,3.4662,0.0,3.5501,3.6965,3.7214,3.7546,3.8402,3.9192,3.9817,4.0284,4.136,4.1685,4.0734,4.1238,4.1197,4.0238,3.8938,3.8034,3.7682,3.4927,3.2885,3.1753,2.9679,0.0,0.0,0.0,0.0,0.0,0.0,0.0,0.0,0.0,0.0,0.0,0.0,0.0,0.0,0.0,0.0,0.0,0.0,0.0,0.0,0.0,0.0,0.0,0.0,0.0,0.0,0.0,0.0,2.5889,2.6025,0.0,2.7728,2.7986,2.8134,2.8254,2.8562,2.8923,2.9307,2.9941,3.0514,3.0955,3.1338,3.1619,3.1812,3.2151,3.2418,3.2661,3.3076,3.3299,3.3347,3.4088,3.4601,3.4945,3.5628,3.608,3.6344,3.577,3.4684,3.3375,3.311,3.2774,3.2413,3.219,3.2231,3.2374,3.2458,3.2508,3.2553,3.2591,3.2628,3.2733,3.3318,3.3617,3.3956,3.5069,3.5479,3.569,3.618,3.6502,3.6688,3.6688,3.6891,3.7178,3.7449,3.7499,3.7239,3.6359,3.6224,3.6474,3.7104,3.704,3.7177,3.7949,3.8277,3.8617,3.9227,4.0219,4.1051,4.1502,4.1955,4.2172,4.2122,4.2065,4.1781,4.1251,4.0745,3.9732,3.816,3.7071,3.5336,3.2907,3.2083,3.0785,0.0,0.0,0.0,0.0,0.0,0.0,0.0,0.0,0.0,0.0,0.0,0.0,0.0,0.0,0.0,0.0,0.0,0.0,0.0,0.0,0.0,0.0,0.0,0.0,0.0,2.4932,2.5771,2.7623,2.7765,2.8218,2.9514,2.9727,2.9921,3.0284,3.0378,3.0615,3.1043,3.1501,3.1988,3.2492,3.2892,3.3191,3.336,3.3238,3.3285,3.3499,3.3646,3.375,3.386,3.4713,3.5298,3.5736,3.6568,3.7144,3.7512,3.7753,3.6846,3.5319,3.5039,3.4695,3.4378,3.4424,3.4594,3.4785,3.4829,3.4879,3.4928,3.4928,3.4928,3.5013,3.5504,3.5639,3.5859,3.6874,3.7161,3.728,3.777,3.8091,3.8278,3.8278,3.865,3.9022,3.9022,3.9208,3.9427,3.963,3.8686,3.8068,3.8578,3.8459,3.8581,3.9537,3.9712,4.0073,4.0972,4.1632,4.2271,4.2899,4.273,4.2772,4.3261,4.301,4.2629,4.2139,4.2103,4.1289,3.946,3.888,3.7468,3.5059,3.3954,3.2488,3.06,0.0,0.0,0.0,0.0,0.0,0.0,0.0,0.0,0.0,0.0,0.0,0.0,0.0,0.0,0.0,0.0,0.0,0.0,0.0,0.0,0.0,0.0,0.0,2.7431,2.7328,2.7779,2.9188,2.9254,2.9492,3.0314,3.088,3.1442,3.2092,3.2682,3.3022,3.3051,3.3051,3.3143,3.3373,3.3373,3.342,3.3559,3.3559,3.3559,3.3559,3.4218,3.4563,3.4656,3.5904,3.6523,3.6616,3.7857,3.8415,3.8444,3.9116,3.903,3.8419,3.7484,3.7219,3.7336,3.746,3.7582,3.772,3.7858,3.7905,3.7905,3.7905,3.7905,3.7905,3.7939,3.7956,3.7973,3.8007,3.8024,3.8041,3.8041,3.8565,3.9089,3.9089,4.0214,4.1264,4.1238,4.1822,4.2481,4.3011,4.0373,3.8285,3.902,3.9163,3.981,4.1767,4.1613,0.0,4.3588,4.3339,4.3395,4.4405,4.3797,4.354,4.4093,4.4132,4.3788,4.2992,4.2955,4.2574,4.1723,4.0274,3.9078,3.8227,3.5113,3.3103,3.227,0.0,0.0,0.0,0.0,0.0,0.0,0.0,0.0,0.0,0.0,0.0,0.0,0.0,0.0,0.0,0.0,0.0,0.0,0.0,0.0,0.0,2.8055,2.8675,2.82,2.8394,2.9096,3.0437,3.0571,3.1072,3.2362,3.2599,3.2807,3.3093,3.3257,3.357,3.4079,3.4109,3.4332,3.4887,3.4902,3.4919,3.4951,3.4951,3.4951,3.4966,3.5624,3.6187,3.6734,3.7997,3.8871,3.9434,4.0214,4.0628,4.0784,4.094,4.1005,4.0729,3.8811,3.787,3.7582,3.7648,3.772,3.7858,3.7882,3.7905,3.7905,3.7905,3.7905,3.8007,3.8531,3.9073,3.9606,4.0155,4.0679,4.1085,4.1085,4.1238,4.139,4.139,4.1997,4.2466,4.2087,4.2458,4.2935,4.3086,4.2332,4.1864,4.2438,4.2544,4.273,4.329,4.3242,4.333,4.3804,4.3699,4.3839,4.4488,4.4335,4.4402,4.4907,4.4965,4.4621,4.3806,4.3769,4.3154,4.1759,4.1288,4.0166,3.8245,3.6759,3.5328,0.0,0.0,0.0,0.0,0.0,0.0,0.0,0.0,0.0,0.0,0.0,0.0,0.0,0.0,0.0,0.0,0.0,0.0,0.0,0.0,0.0,0.0,2.9824,3.0335,3.0499,3.0225,3.0524,3.1856,3.2064,3.2555,3.3689,3.3794,3.3944,3.4322,3.4337,3.4502,3.4891,3.4906,3.522,3.5893,3.5923,3.6043,3.6297,3.6043,3.5923,3.5923,3.6297,3.6862,3.751,3.8558,3.9408,4.0116,4.0743,4.1136,4.1307,4.1566,4.1805,4.1846,0.0,0.0,0.0,0.0,3.9699,3.9749,3.9749,3.9749,3.9749,3.9749,3.9749,3.9817,4.024,4.0679,4.1119,4.1542,4.1965,4.2286,4.2286,4.2286,4.2286,4.2286,4.2771,4.315,4.284,4.3265,4.3786,4.3967,4.4018,0.0,4.4734,4.4119,4.3828,4.4579,4.4314,4.4294,4.5051,4.4924,4.4876,4.5197,4.5098,4.5122,4.5435,4.5678,0.0,0.0,0.0,4.3878,4.2266,4.1868,0.0,0.0,0.0,3.7377,3.6109,3.5765,0.0,0.0,3.1673,3.1256,0.0,0.0,0.0,0.0,0.0,0.0,0.0,0.0,0.0,0.0,0.0,0.0,0.0,0.0,0.0,0.0,3.163,3.2153,3.3425,3.2497,3.2109,3.3269,3.3527,3.3858,3.4563,3.4623,3.4876,3.5564,3.5609,3.5654,3.5714,3.5714,0.0,0.0,0.0,3.6851,3.7404,3.6866,3.6596,3.6596,3.6671,3.7056,3.7757,3.85,3.92,3.9895,4.0554,4.0942,4.1131,4.1714,4.2138,4.2368,4.2074,4.2007,4.2132,4.2277,4.2286,4.2286,4.2286,0.0,0.0,4.2286,4.2286,4.2286,4.2286,4.2354,4.2422,4.2422,4.2472,4.2557,4.2557,4.2557,4.2557,4.2557,4.3102,4.3593,4.3555,4.4135,4.4814,4.5214,4.5303,4.5485,4.6,4.461,4.3979,4.5574,4.5074,4.5075,4.6687,4.6478,4.6196,4.6269,4.5998,0.0,4.5833,4.6262,4.6205,4.5391,4.5325,4.4621,4.31,4.2357,4.1886,4.1705,4.0365,3.926,3.8462,3.7738,3.7033,3.6293,3.4516,3.3665,0.0,0.0,0.0,0.0,0.0,0.0,0.0,0.0,0.0,0.0,0.0,0.0,0.0,0.0,0.0,3.1451,3.2392,3.338,3.4173,3.4068,3.3977,3.4231,3.4292,3.4562,3.5235,3.531,3.5579,3.6252,3.6297,3.6507,3.7015,3.7045,3.7105,3.7225,3.724,3.7285,3.7404,3.7285,3.724,3.724,3.7764,0.0,3.9159,4.0357,4.1325,4.204,4.2717,4.3151,4.3444,4.3576,4.3821,4.3984,4.2723,4.2233,4.226,4.2286,4.2286,4.2286,4.2286,4.2286,4.2286,4.2286,4.2286,4.2286,4.2286,4.2726,0.0,4.32,4.3656,4.4175,4.4175,4.4175,4.4175,4.4175,4.4538,4.4822,4.4444,4.4804,4.5188,4.5276,4.5303,4.5485,4.6,4.5779,4.5639,4.5991,4.6224,4.6506,4.685,4.6799,4.6908,4.7323,4.6941,4.6676,4.6676,4.6744,4.6489,4.5662,4.5413,4.4874,4.3896,4.3715,4.3027,4.1723,4.1397,4.0854,4.0039,3.9912,3.9749,3.9515,3.6655,3.5333,0.0,0.0,0.0,0.0,0.0,0.0,0.0,0.0,0.0,0.0,0.0,2.9654,2.9986,0.0,3.2617,3.2961,3.3559,3.4218,3.4906,3.4996,3.4996,3.4996,3.4996,3.525,3.5938,3.5998,3.6252,3.6896,3.6941,3.709,3.7389,3.7404,3.7554,3.7883,3.7898,3.8063,3.8407,3.8407,3.8407,3.8407,3.8751,3.9274,4.0019,4.0683,4.1607,4.2617,4.3019,4.3519,4.4097,4.4286,4.4457,4.453,4.3768,4.3464,4.3464,4.3464,4.3464,4.3464,4.3464,4.3464,4.3464,4.3464,4.3464,4.3464,4.3464,4.369,4.3995,4.3995,4.4282,4.4615,4.4615,4.4615,4.4615,4.4615,4.4786,4.4879,4.4654,4.4786,4.4944,4.4944,4.4944,4.5035,4.5284,4.5337,4.552,4.6024,4.6098,4.6213,4.6454,4.6501,4.6613,4.6863,4.6908,4.6908,4.6908,4.7147,4.6851,4.5766,4.584,4.5544,4.4729,4.4693,4.4313,4.3534,4.3118,4.252,4.1705,4.1288,4.089,4.0456,3.8881,3.8139,0.0,0.0,0.0,0.0,0.0,0.0,0.0,2.7705,2.8364,2.9026,3.0494,3.1735,3.1854,3.2886,3.3858,3.4414,3.4623,3.4861,3.5429,3.5609,3.5699,3.5699,3.5699,3.5953,3.6596,3.6671,3.6926,3.7554,3.7599,3.7659,3.7793,3.7793,3.8048,3.8571,3.8586,3.8856,3.9373,3.9388,3.9388,3.9388,3.9388,3.9717,4.0285,4.0581,4.1327,4.2427,4.2894,4.3502,4.4155,4.4485,4.4615,4.4615,4.4615,4.4615,4.4615,4.4615,4.4615,4.4615,4.4615,4.4615,4.4615,4.4615,4.4615,4.4615,4.4615,4.4615,4.4615,4.4615,4.4615,4.4615,4.4615,4.4615,4.4615,4.4615,4.4615,4.4615,4.4615,4.4615,4.4615,4.4615,4.4615,4.4615,4.4615,4.4615,4.4869,4.5683,4.5511,4.5459,4.5875,4.6042,4.6098,4.6098,4.659,4.6863,4.6753,4.7129,4.6944,4.5846,4.6266,4.6256,4.5562,4.5526,4.5454,4.5291,4.4657,4.4005,4.3372,4.2719,4.2067,4.1415,4.1415,4.1089,2.5405,2.5809,2.6557,2.7844,2.8158,2.8353,0.0,2.9729,3.0372,3.1032,3.1809,3.2557,3.317,3.3873,3.4414,3.4503,3.4996,3.5415,3.5489,3.6013,3.6372,3.6372,3.6372,3.6626,3.724,3.73,3.7569,3.8227,3.8287,3.8542,3.9119,3.92,3.9194,3.9305,3.9305,3.9298,3.9388,3.9388,3.9388,3.9388,3.9388,3.9445,3.9589,4.0839,4.1542,4.1901,4.3439,4.4179,4.431,4.4514,4.4615,4.4615,4.4615,4.4615,4.4615,4.4615,4.4615,4.4615,4.4615,4.4615,4.4615,4.4615,4.4615,4.4615,4.4615,4.4615,4.4615,4.4615,4.4615,4.4615,4.4615,4.4615,4.4615,4.4615,4.4615,4.4615,4.4615,4.4615,4.4615,4.4615,4.4615,4.4615,4.4615,4.4615,4.4626,4.4748,4.5089,4.5329,4.5381,4.5817,4.6098,4.6098,4.659,4.6707,4.6238,4.6244,4.6209,4.6048,4.6559,4.6711,4.6375,4.6377,4.6033,4.5309,4.52,4.5128,4.5037,4.4947,4.4856,4.4765,4.4765,4.3226,2.8082,2.8252,2.8587,2.9052,2.9744,3.0345,3.0629,3.1509,3.2332,3.2617,3.32,3.3739,3.4039,3.4622,3.507,3.507,3.5325,3.5639,3.6028,3.6312,3.6761,3.7509,3.7599,3.7689,3.7958,3.7973,3.8257,3.8931,3.899,3.911,3.9373,3.9388,3.9388,3.9388,3.9388,3.9388,3.9388,3.9388,3.9388,3.9388,3.9388,3.9445,3.9589,4.0181,4.1044,4.2125,4.3634,4.4367,4.4468,4.457,4.4615,4.4615,4.4615,4.4615,4.4615,4.4615,4.4615,4.4615,4.4615,4.4615,4.4615,4.4615,4.4615,4.4615,4.4615,4.4615,4.4615,4.4615,4.4615,4.4615,4.4615,4.4615,4.4615,4.4615,4.4615,4.4615,4.4615,4.4615,4.4615,4.4615,4.4615,4.4615,4.4615,4.4615,4.4615,4.4615,4.4759,4.4906,4.4906,4.5106,4.5337,4.5614,4.6098,4.6213,4.5673,4.5925,4.5968,4.5648,4.643,4.6856,4.6751,4.7027,4.7047,4.6703,4.625,4.5997,4.5997,4.5526,4.5291,4.5291,4.5291,4.4584,3.0543,3.0594,3.0584,3.064,3.1375,3.2049,3.2049,3.2961,3.3769,3.3769,3.4292,3.4788,3.4788,3.5175,3.5504,3.5504,3.5654,3.5953,3.6417,3.6791,3.736,3.8287,3.8556,3.8676,3.8676,3.8676,3.8886,3.9343,3.9388,3.9388,3.9388,3.9388,3.9388,3.9388,3.9388,3.9388,3.9388,3.9388,3.9388,3.9388,3.946,3.9553,3.9732,4.02,4.1211,4.2645,4.3856,4.4468,4.4615,4.4615,4.4615,4.4615,4.4615,4.4615,4.4615,4.4615,4.4615,4.4615,4.4615,4.4615,4.4615,4.4615,4.4615,4.4615,4.4615,4.4615,4.4615,4.4615,4.4615,4.4615,4.4615,4.4615,4.4615,4.4615,4.4615,4.4615,4.4615,4.4615,4.4615,4.4615,4.4615,4.4615,4.4615,4.4615,4.4615,4.4615,4.4615,4.4615,4.4615,4.4615,4.4786,4.5267,4.5648,4.5724,4.5329,4.5665,4.5699,4.5329,4.6024,4.659,4.6886,4.728,4.7554,4.7696,4.7138,4.683,4.683,4.625,4.5961,4.5961,4.5961,4.5961,3.2356,3.2556,3.2572,3.3215,3.341,3.344,3.344,3.3963,3.4474,3.4474,3.4996,3.5474,3.5474,3.5489,3.5504,3.5504,3.6043,3.6462,3.6492,3.7554,3.8347,3.8392,3.8975,3.9394,3.9394,3.9394,3.9394,3.9388,3.9388,3.9388,3.9388,3.9388,3.9388,3.9388,3.9388,3.9388,3.9388,3.9388,3.9388,3.9388,3.9589,3.9681,3.9753,4.1461,4.2583,4.3306,4.4196,4.4598,4.4615,4.4615,4.4615,4.4615,4.4615,4.4615,4.4615,4.4615,4.4615,4.4615,4.4615,4.4615,4.4615,4.4615,4.4615,4.4615,4.4615,4.4615,4.4615,4.4615,4.4615,4.4615,4.4615,4.4615,4.4615,4.4615,4.4615,4.4615,4.4615,4.4615,4.4615,4.4615,4.4615,4.4615,4.4615,4.4615,4.4615,4.4615,4.4615,4.4615,4.4615,4.4615,4.4786,4.5267,4.5303,4.5329,4.5303,4.5303,4.5303,4.5303,4.5329,4.5817,4.6863,4.6908,4.7151,4.7678,4.7681,4.7663,4.7663,4.7645,4.7645,4.7645,4.7645,4.7645,3.35,3.3457,3.3321,3.347,3.3829,3.4174,3.4174,3.4666,3.516,3.516,3.534,3.5504,3.5504,3.5504,3.5504,3.5504,3.6058,3.6626,3.7045,3.7838,3.8556,3.902,3.9239,3.9388,3.9388,3.9388,3.9388,3.9388,3.9388,3.9388,3.9388,3.9388,3.9388,3.9388,3.9388,3.9388,3.9388,3.9388,3.9388,3.9388,3.9747,3.996,4.0121,4.126,4.2157,4.2816,4.3558,4.415,4.4615,4.4615,4.4615,4.4615,4.4615,4.4615,4.4615,4.4615,4.4615,4.4615,4.4615,4.4615,4.4615,4.4615,4.4615,4.4615,4.4615,4.4615,4.4615,4.4615,4.4615,4.4615,4.4615,4.4615,4.4615,4.4615,4.4615,4.4615,4.4615,4.4615,4.4615,4.4615,4.4615,4.4615,4.4615,4.4615,4.4615,4.4615,4.4615,4.4615,4.4615,4.4615,4.4654,4.4814,4.4841,4.4841,4.4841,4.4841,4.4841,4.4841,4.5125,4.5459,4.5825,4.6525,4.6976,4.7169,4.7511,4.7717,4.7717,4.7717,4.7717,4.7717,4.7717,4.7717,3.4592,3.4468,3.4328,3.4249,3.4532,3.4846,3.4846,3.519,3.5504,3.5504,3.5504,3.5504,3.5504,3.5504,3.5579,3.5818,3.6402,3.703,3.7674,3.8332,3.8931,3.9364,3.9388,3.9388,3.9388,3.9388,3.9388,3.9388,3.9388,3.9388,3.9388,3.9388,3.9388,3.9388,3.9388,3.9388,3.9388,3.9388,3.946,3.9604,3.9889,4.0261,4.0734,4.1525,4.2205,4.2892,4.3588,4.4179,4.4615,4.4615,4.4615,4.4615,4.4615,4.4615,4.4615,4.4615,4.4615,4.4615,4.4615,4.4615,4.4615,4.4615,4.4615,4.4615,4.4615,4.4615,4.4615,4.4615,4.4615,4.4615,4.4615,4.4615,4.4615,4.4615,4.4615,4.4615,4.4615,4.4615,4.4615,4.4615,4.4615,4.4615,4.4615,4.4615,4.4615,4.4615,4.4615,4.4615,4.4615,4.4615,4.4615,4.4615,4.4615,4.4615,4.4615,4.4615,4.4615,4.4615,4.4879,4.5125,4.5276,4.595,4.6501,4.6886,4.7236,4.7511,4.7717,4.7717,4.7717,4.7717,4.7717,4.7717,3.5586,3.5589,3.5504,3.5504,3.5504,3.5504,3.5504,3.5504,3.5504,3.5504,3.5504,3.5504,3.5504,3.5504,3.5714,3.6342,3.6985,3.7629,3.8257,3.896,3.9388,3.9388,3.9388,3.9388,3.9388,3.9388,3.9388,3.9388,3.9388,3.9388,3.9388,3.9388,3.9388,3.9388,3.9388,3.9388,3.9388,3.9388,3.9604,4.0011,4.0011,4.0509,4.1459,4.2109,4.28,4.3482,4.4179,4.4542,4.4615,4.4615,4.4615,4.4615,4.4615,4.4615,4.4615,4.4615,4.4615,4.4615,4.4615,4.4615,4.4615,4.4615,4.4615,4.4615,4.4615,4.4615,4.4615,4.4615,4.4615,4.4615,4.4615,4.4615,4.4615,4.4615,4.4615,4.4615,4.4615,4.4615,4.4615,4.4615,4.4615,4.4615,4.4615,4.4615,4.4615,4.4615,4.4615,4.4615,4.4615,4.4615,4.4615,4.4615,4.4615,4.4615,4.4615,4.4615,4.4615,4.4615,4.4615,4.4814,4.5241,4.5276,4.5775,4.6799,4.6863,4.7107,4.7615,4.7615,4.7636,4.7657,4.7657,4.7678,3.5674,3.5589,3.5504,3.5504,3.5504,3.5504,3.5504,3.5504,3.5504,3.5504,3.5504,3.5504,3.5504,3.5504,3.5564,3.5729,3.6686,3.7464,3.7629,3.8676,3.9388,3.9388,3.9388,3.9388,3.9388,3.9388,3.9388,3.9388,3.9388,3.9388,3.9388,3.9388,3.9388,3.9388,3.9388,3.9388,3.9388,3.9388,3.9604,4.0011,4.0011,4.0261,4.0783,4.0922,4.1641,4.2769,4.2953,4.3634,4.4615,4.4615,4.4615,4.4615,4.4615,4.4615,4.4615,4.4615,4.4615,4.4615,4.4615,4.4615,4.4615,4.4615,4.4615,4.4615,4.4615,4.4615,4.4615,4.4615,4.4615,4.4615,4.4615,4.4615,4.4615,4.4615,4.4615,4.4615,4.4615,4.4615,4.4615,4.4615,4.4615,4.4615,4.4615,4.4615,4.4615,4.4615,4.4615,4.4615,4.4615,4.4615,4.4615,4.4615,4.4615,4.4615,4.4615,4.4615,4.4615,4.4615,4.4615,4.4654,4.4759,4.5125,4.5433,4.5699,4.6098,4.6382,4.6501,4.6501,4.6707,4.7107,4.7107,4.7302,3.5621,3.5554,3.5504,3.5504,3.5504,3.5504,3.5504,3.5504,3.5537,3.5572,3.5604,3.5604,3.5604,3.5604,3.5662,3.5911,3.6761,3.7509,3.7808,3.8751,3.9388,3.9388,3.9388,3.9388,3.9388,3.9388,3.9388,3.9388,3.9388,3.9388,3.9388,3.9388,3.9388,3.9388,3.9388,3.9445,3.9517,3.964,3.9818,4.0137,4.0137,4.0436,4.0922,4.0922,4.1525,4.252,4.2831,4.3393,4.4105,4.4105,4.4105,4.4105,4.4105,4.4105,4.4179,4.4468,4.4615,4.4615,4.4615,4.4615,4.4615,4.4615,4.4615,4.4615,4.4615,4.4615,4.4615,4.4615,4.4615,4.4615,4.4615,4.4615,4.4615,4.4615,4.4615,4.4615,4.4615,4.4615,4.4615,4.4615,4.4615,4.4615,4.4615,4.4615,4.4615,4.4615,4.4615,4.4615,4.4615,4.4615,4.4615,4.4615,4.4615,4.4615,4.4615,4.4615,4.4615,4.4615,4.4615,4.4615,4.4615,4.4852,4.5072,4.5303,4.5614,4.585,4.6098,4.6098,4.6244,4.6548,4.6548,4.6707,3.5522,3.5504,3.5504,3.5504,3.5504,3.5504,3.5537,3.5537,3.5587,3.5703,3.5752,3.5752,3.5752,3.572,3.5851,3.6319,3.69,3.7509,3.8167,3.8856,3.932,3.9373,3.9388,3.9388,3.9388,3.9388,3.9388,3.9388,3.9388,3.9388,3.9388,3.9388,3.9409,3.946,3.946,3.9553,3.9732,3.9925,4.0101,4.0312,4.0312,4.0681,4.1376,4.1376,4.1739,4.2379,4.3075,4.3363,4.3376,4.3453,4.3453,4.3393,4.3482,4.3512,4.3588,4.4456,4.475,4.4767,4.4869,4.4902,4.4869,4.4666,4.4682,4.475,4.475,4.4818,4.4902,4.4902,4.4902,4.4886,4.4784,4.475,4.4733,4.4632,4.4615,4.4615,4.4615,4.4615,4.4615,4.4615,4.4615,4.4615,4.4615,4.4615,4.4615,4.4615,4.4615,4.4615,4.4615,4.4615,4.4615,4.4615,4.4615,4.4615,4.4615,4.4615,4.4615,4.4615,4.4615,4.4615,4.4615,4.4615,4.4786,4.5188,4.5214,4.5451,4.5893,4.5893,4.5943,4.6,4.6,4.6024,3.5504,3.5504,3.5504,3.5504,3.5504,3.5522,3.5638,3.5671,3.5735,3.591,3.5941,3.5941,3.5941,3.5831,3.5733,3.5821,3.6292,3.6866,3.7494,3.8153,3.8781,3.9313,3.9388,3.9388,3.9388,3.9388,3.9388,3.9388,3.9388,3.9388,3.9388,3.9388,3.9496,3.9661,3.9661,3.9732,3.996,3.996,4.0101,4.0312,4.0312,4.0436,4.0681,4.0681,4.1057,4.1706,4.2395,4.266,4.2707,4.3257,4.3166,4.2738,4.3287,4.3512,4.3654,4.5017,4.5517,4.5602,4.6194,4.6413,4.621,4.5004,4.4993,4.5517,4.5517,4.5923,4.6413,4.6413,4.6413,4.6278,4.5669,4.5517,4.5348,4.475,4.4615,4.4615,4.4615,4.4615,4.4615,4.4615,4.4615,4.4615,4.4615,4.4615,4.4615,4.4615,4.4615,4.4615,4.4615,4.4615,4.4615,4.4615,4.4615,4.4615,4.4615,4.4615,4.4615,4.4615,4.4615,4.4615,4.4615,4.4615,4.4654,4.472,4.472,4.4776,4.4869,4.4869,4.5052,4.5433,4.5433,4.5691,3.5415,3.5504,3.5504,3.5504,3.5504,3.5522,3.5671,3.5431,3.5269,3.5536,3.5293,3.5049,3.5049,3.5261,3.5364,3.519,3.5967,3.6787,3.7315,3.7973,3.8512,3.8841,3.92,3.9239,3.8916,3.9215,3.9388,3.9388,3.9388,3.9388,3.9388,3.9481,3.9589,3.9681,3.991,4.0051,4.0172,4.0242,4.0296,4.0401,4.0401,4.0436,4.0489,4.0489,4.0681,4.1024,4.1673,4.1981,4.2013,4.2332,4.2494,4.2557,4.2912,4.3489,4.4256,4.5316,4.5934,4.6254,4.623,4.6226,4.6049,4.4967,4.5106,4.5768,4.6174,4.6245,4.6317,4.6697,4.6786,4.6718,4.6363,4.6261,4.6177,4.5821,4.5449,4.4973,4.4231,4.4348,4.4468,4.4105,4.4338,4.4615,4.4615,4.4615,4.4615,4.4615,4.4615,4.4615,4.4615,4.4615,4.4615,4.4615,4.4615,4.4615,4.4615,4.4615,4.4615,4.4615,4.4615,4.4615,4.4615,4.4615,4.4615,4.4615,4.4615,4.4615,4.4615,4.4615,4.472,4.4944,4.4944,4.5062,3.513,3.5385,3.5504,3.5504,3.5537,3.5542,3.5554,3.5163,3.4848,3.5034,3.4635,3.4268,3.4268,3.4789,3.511,3.4863,3.5765,3.6706,3.7368,3.7888,3.8227,3.8377,3.899,3.9155,3.8467,3.902,3.9388,3.9388,3.958,3.967,3.967,4.0007,4.0226,4.0262,4.0548,4.074,4.0775,4.0916,4.0935,4.0935,4.0935,4.0935,4.0935,4.0935,4.0935,4.097,4.1664,4.185,4.1765,4.1883,4.2196,4.2614,4.275,4.3492,4.4558,4.5405,4.6057,4.6508,4.6066,4.5925,4.5829,4.5243,4.5375,4.579,4.64,4.6267,4.6069,4.6633,4.6803,4.6753,4.6602,4.6569,4.6518,4.6368,4.5898,4.5113,4.3862,4.4026,4.4161,4.3426,4.3885,4.4367,4.4367,4.4514,4.4615,4.4615,4.4615,4.4615,4.4615,4.4615,4.4615,4.4615,4.4615,4.4615,4.4615,4.4615,4.4615,4.4615,4.4615,4.4615,4.4615,4.4615,4.4615,4.4615,4.4615,4.4615,4.4615,4.4615,4.4615,4.4615,4.4615,4.4615,3.4593,3.5026,3.5504,3.5504,3.5604,3.5569,3.5168,3.511,3.5034,3.4661,3.4522,3.4475,3.4475,3.4879,3.5202,3.5171,3.5501,3.623,3.7492,3.7582,3.7719,3.8317,0.0,3.9155,3.8467,3.902,3.9388,3.9388,4.0145,4.0586,4.0586,4.1358,4.1876,4.2059,4.2096,4.222,4.2381,4.2417,4.2417,4.2417,4.2417,4.2417,4.2417,4.2417,4.2417,4.2453,4.3102,4.3067,4.2546,4.3172,4.3079,4.2638,4.3266,4.3595,4.386,4.5201,4.573,4.591,4.6493,4.6686,4.6686,4.6617,4.618,4.5696,4.5763,4.6234,4.672,4.6788,4.6788,4.6642,4.5975,4.5797,4.565,4.4951,4.4756,4.4496,4.3751,4.3653,4.3457,4.2744,4.3136,4.3601,4.3601,4.4179,4.4615,4.4615,4.4615,4.4615,4.4615,4.4615,4.4615,4.4615,4.4615,4.4615,4.4615,4.4615,4.4615,4.4615,4.4615,4.4615,4.4615,4.4615,4.4615,4.4615,4.4615,4.4615,4.4615,4.4615,4.4615,4.4615,4.4615,4.4615,3.443,3.4681,3.5013,3.5499,3.5353,3.5118,3.5125,3.4545,3.3977,3.3846,3.3506,3.3257,3.3257,3.371,3.4235,3.4559,3.5034,3.579,3.6923,3.7037,3.7042,3.7244,3.8167,3.8542,3.7853,3.8781,3.9625,4.0145,4.1464,4.2241,4.2241,4.2208,4.2206,4.2316,4.2404,4.2529,4.2602,4.2602,4.2602,4.2602,4.2602,4.2602,4.2602,4.2602,4.2602,4.2602,4.2875,4.2839,4.2602,4.2911,4.3071,4.3223,4.3485,4.4116,4.4907,4.5495,4.5977,4.6354,4.6192,4.6147,4.604,4.5624,4.5269,4.5214,4.6099,4.6274,4.6218,4.6673,4.6811,4.6712,4.6421,4.6356,4.6173,4.5416,4.5273,4.4842,4.3321,4.3338,4.3251,4.2141,4.2458,4.3045,4.3436,4.3735,4.4076,4.4542,4.4615,4.4615,4.4615,4.4615,4.4615,4.4615,4.4615,4.4615,4.4615,4.4615,4.4615,4.4615,4.4615,4.4615,4.4615,4.4615,4.4615,4.4615,4.4615,4.4615,4.4615,4.4615,4.4615,4.4615,4.4615,4.4615,3.3892,3.41,3.4355,3.4963,3.4799,3.4515,3.4592,3.3902,3.3163,3.2862,3.2582,3.2336,3.2136,3.2813,3.36,3.419,3.4789,3.5583,3.668,3.6811,3.6803,3.6847,3.7837,3.8282,3.7749,3.8951,4.016,4.11,4.2467,4.3402,4.3676,4.3232,4.2971,4.2971,4.3113,4.3187,4.3187,4.3187,4.3187,4.3187,4.3187,4.3187,4.3187,4.3187,4.3187,4.3187,4.3187,4.3187,4.3187,4.3187,4.3464,4.3917,4.3917,4.4514,4.5384,4.5384,4.5697,4.6092,4.5551,4.5384,4.5274,4.4746,4.461,4.4783,4.5841,4.5805,4.5494,4.6005,4.6147,4.6147,4.6147,4.6147,4.602,4.5494,4.5389,4.4906,4.3236,4.3125,4.2964,4.1765,4.1881,4.2363,4.2831,4.3227,4.3676,4.4207,4.4265,4.4338,4.457,4.4412,4.4367,4.457,4.4615,4.4615,4.4615,4.4615,4.4615,4.4615,4.4615,4.4615,4.4615,4.4615,4.4615,4.4615,4.4615,4.4615,4.4615,4.4615,4.4615,4.4615,4.4615,4.4615,3.2719,3.3111,3.353,3.3683,3.3864,3.3878,3.3339,3.3299,3.3013,3.1674,3.1921,3.2198,3.152,3.249,3.3644,3.4397,3.4894,3.5676,3.7021,3.7088,3.7149,3.7632,3.828,3.8617,3.8412,3.9769,4.1131,4.2218,4.289,4.3676,4.4526,4.4594,4.4594,4.4594,4.4594,4.4594,4.4594,4.4594,4.4594,4.4594,4.4594,4.4594,4.4594,4.4594,4.4594,4.4594,4.4594,4.4594,4.4594,4.4594,4.4594,4.461,4.461,4.461,4.461,4.461,4.4625,4.461,4.461,4.461,4.461,4.461,4.461,4.461,4.461,4.461,4.461,4.461,4.461,4.461,4.461,4.461,4.461,4.461,4.461,4.4409,4.3747,4.3085,4.2386,4.1724,4.1557,4.1525,4.1525,4.2614,4.3512,4.3512,4.3512,4.3781,4.4514,4.3972,4.381,4.4514,4.4615,4.4615,4.4615,4.4615,4.4615,4.4615,4.4615,4.4615,4.4615,4.4615,4.4615,4.4615,4.4615,4.4615,4.4615,4.4615,4.4615,4.4615,4.4615,4.4615,3.2925,3.3017,3.329,3.3908,3.3739,3.3308,3.2762,3.2339,3.1782,3.0905,3.1243,3.1643,3.1455,3.249,3.3644,3.4382,3.5,3.5815,3.7021,3.6677,3.6485,3.6957,3.75,3.8182,3.9204,4.0695,4.1793,4.2264,4.3468,4.4318,4.4572,4.461,4.461,4.461,4.461,4.461,4.461,4.461,4.461,4.461,4.461,4.461,4.461,4.461,4.461,4.461,4.461,4.461,4.461,4.461,4.461,4.461,4.461,4.461,4.461,4.461,4.461,4.461,4.461,4.461,4.461,4.461,4.461,4.461,4.461,4.461,4.461,4.461,4.461,4.461,4.461,4.461,4.461,4.461,4.461,4.4425,4.3747,4.3063,4.2402,4.1724,4.1175,4.0956,4.1426,4.1868,4.23,4.2738,4.2831,4.2892,4.3122,4.3363,4.3571,4.381,4.431,4.4615,4.4615,4.4615,4.4615,4.4615,4.4615,4.4615,4.4615,4.4615,4.4615,4.4615,4.4615,4.4615,4.4615,4.4615,4.4615,4.4615,4.4615,4.4615,3.2534,3.2661,3.2768,3.3308,3.3123,3.2767,3.2462,3.2074,3.1582,3.092,3.1305,3.169,3.1455,3.249,3.3644,3.4382,3.5075,3.5907,3.7053,3.6543,3.6339,3.6987,3.756,3.8387,3.9697,4.1195,4.2221,4.2404,4.378,4.461,4.461,4.461,4.461,4.461,4.461,4.461,4.461,4.461,4.461,4.461,4.461,4.461,4.461,4.461,4.461,4.461,4.461,4.461,0.0,4.461,4.461,4.461,4.461,4.461,4.461,4.461,4.461,4.461,4.461,4.461,4.461,4.461,4.461,4.461,4.461,4.461,4.461,4.461,4.461,4.461,4.461,4.461,4.461,4.461,4.461,4.4502,4.4071,4.3233,4.2479,4.2063,4.1166,4.0612,4.1057,4.1327,4.1641,4.2046,4.2109,4.2205,4.2458,4.2629,4.2953,4.3453,4.3914,4.431,4.457,4.4615,4.4615,4.4615,4.4615,4.4615,4.4615,4.4615,4.4615,4.4615,4.4615,4.4615,4.4615,4.4615,4.4615,4.4615,4.4615,4.4615,0.0,3.197,3.2005,3.213,3.2188,3.2231,3.2308,3.2321,0.0,3.1459,3.1844,3.2136,3.1593,3.2567,3.3706,3.4459,3.5136,3.5953,3.713,3.676,3.6723,3.759,3.8295,3.9058,3.9996,4.1407,4.242,4.2627,4.3864,4.461,4.461,4.461,4.461,4.461,4.461,4.461,4.461,4.461,4.461,4.461,4.461,4.461,4.461,4.461,4.461,4.461,4.461,4.461,4.461,4.461,4.461,4.461,4.461,4.461,4.461,4.461,4.461,4.461,4.461,4.461,4.461,4.461,4.461,4.461,4.461,4.461,4.461,4.461,4.461,4.461,4.461,4.461,4.461,4.461,4.461,4.461,4.461,4.3571,4.2663,4.2617,4.1524,4.0551,4.0505,4.1024,4.1426,4.1426,4.1426,4.1641,4.2269,4.1868,4.1981,4.3227,4.3453,4.3781,4.4468,4.457,4.4615,4.4615,4.4615,4.4615,4.4615,4.4615,4.4615,4.4615,4.4615,4.4615,4.4615,4.4615,4.4615,4.4615,4.4615,4.4615,2.9807,0.0,3.1547,3.1574,3.1958,3.2232,0.0,3.1655,3.1428,3.0782,3.1166,3.1747,3.209,3.329,3.4474,3.5152,3.5845,3.666,3.7818,3.8056,3.802,3.7737,3.8295,3.9294,4.0848,4.179,4.2603,4.3294,4.4148,4.461,4.461,4.461,4.461,4.461,4.461,4.461,4.461,4.461,4.461,4.461,4.461,4.461,4.461,4.461,4.461,4.461,4.461,4.461,4.461,4.461,4.461,4.461,4.461,4.461,4.461,4.461,4.461,4.461,4.461,4.461,4.461,4.461,4.461,4.461,4.461,4.461,4.461,4.461,4.461,4.461,4.461,4.461,4.461,4.461,4.461,4.461,4.461,4.3963,4.3202,4.2709,4.1925,4.117,4.0597,4.0612,4.0749,4.0749,4.0749,4.0802,4.0972,4.1276,4.1608,4.1933,4.2892,4.3571,4.3735,4.4281,4.4615,4.4615,4.4615,4.4615,4.4615,4.4615,4.4615,4.4615,4.4615,4.4615,4.4615,4.4615,4.4615,4.4615,4.4615,4.4615,2.8211,2.9458,3.0628,3.1255,3.1659,3.1921,3.1859,3.1844,3.1751,3.1397,3.1859,3.2428,3.2782,3.4027,3.509,3.5444,3.623,3.7009,3.758,3.8065,3.8232,3.7869,3.8516,3.958,4.1148,4.2006,4.2754,4.3547,4.424,4.461,4.461,4.461,4.461,4.461,4.461,4.461,4.461,4.461,4.461,4.461,4.461,4.461,4.461,4.461,4.461,4.461,4.461,4.461,4.461,4.461,4.461,4.461,4.461,4.461,4.461,4.461,4.461,4.461,4.461,4.461,4.461,4.461,4.461,4.461,4.461,4.461,4.461,4.461,4.461,4.461,4.461,4.461,4.461,4.461,4.461,4.461,4.461,4.4086,4.3408,4.274,4.2063,4.137,4.0612,4.0489,4.0489,4.0489,4.0489,4.0489,4.0489,4.0802,4.1142,4.1459,4.241,4.3166,4.3482,4.4179,4.4615,4.4615,4.4615,4.4615,4.4615,4.4615,4.4615,4.4615,4.4615,4.4615,4.4615,4.4615,4.4615,4.4615,4.4615,4.4615,2.6919,2.8227,2.9581,3.0905,3.1305,3.1593,3.2244,3.2475,3.2552,3.2552,3.309,3.3598,3.3706,3.4691,3.5583,3.5753,3.6689,3.7308,3.7223,3.7749,3.8159,3.8193,3.9047,4.0097,4.1388,4.2283,4.3033,4.3716,4.4286,4.461,4.461,4.461,4.461,4.461,4.461,4.461,4.461,4.461,4.461,4.461,4.461,4.461,4.461,4.461,4.461,4.461,4.461,4.461,4.461,4.461,4.461,4.461,4.461,4.461,4.461,4.461,4.461,4.461,4.461,4.461,4.461,4.461,4.461,4.461,4.461,4.461,4.461,4.461,4.461,4.461,4.461,4.461,4.461,4.461,4.461,4.461,4.461,4.4163,4.3562,4.2879,4.2217,4.1524,4.0782,4.0566,4.0489,4.0489,4.0489,4.0489,4.0489,4.0489,4.0715,4.1276,4.1965,4.2614,4.3287,4.4018,4.4468,4.4598,4.4615,4.4615,4.4615,4.4615,4.4615,4.4615,4.4615,4.4615,4.4615,4.4615,4.4615,4.4615,4.4615,4.4615,2.6488,2.7534,2.8889,3.0202,3.0982,3.1593,3.2244,3.2844,3.3244,3.3244,3.3814,3.452,3.506,3.5337,3.5861,3.7015,3.7653,3.806,3.8106,3.8534,3.8926,3.9081,4.0216,4.1342,4.2299,4.3033,4.3732,4.4409,4.4548,4.461,4.461,4.461,4.461,4.461,4.461,4.461,4.461,4.461,4.461,4.461,4.461,4.461,4.461,4.461,4.461,4.461,4.461,4.461,4.461,4.461,4.461,4.461,4.461,4.461,4.461,4.461,4.461,4.461,4.461,4.461,4.461,4.461,4.461,4.461,4.461,4.461,4.461,4.461,4.461,4.461,4.461,4.461,4.461,4.461,4.461,4.461,4.461,4.4533,4.4255,4.3593,4.291,4.2232,4.1555,4.0889,4.0489,4.0489,4.0489,4.0489,4.0489,4.0489,4.0524,4.0646,4.1243,4.1917,4.2614,4.3273,4.3943,4.457,4.4615,4.4615,4.4615,4.4615,4.4615,4.4615,4.4615,4.4615,4.4615,4.4615,4.4615,4.4615,4.4615,4.4615,2.6718,2.7642,2.8904,3.0966,3.1705,3.2105,3.2782,3.3475,3.3983,3.3983,3.4566,3.5136,3.5444,3.6076,3.686,3.7732,3.7855,3.7914,3.8216,3.8519,3.8889,3.9342,4.0635,4.1776,4.254,4.3223,4.3886,4.4564,4.461,4.461,4.461,4.461,4.461,4.461,4.461,4.461,4.461,4.461,4.461,4.461,4.461,4.461,4.461,4.461,4.461,4.461,4.461,4.461,4.461,4.461,4.461,4.461,4.461,4.461,4.461,4.461,4.461,4.461,4.461,4.461,4.461,4.461,4.461,4.461,4.461,4.461,4.461,4.461,4.461,4.461,4.461,4.461,4.461,4.461,4.461,4.461,4.461,4.461,4.4409,4.3732,4.3362,4.2802,4.1786,4.1324,4.097,4.0551,4.0489,4.0489,4.0489,4.0489,4.0489,4.0489,4.1091,4.1771,4.2458,4.3106,4.381,4.4542,4.4615,4.4615,4.4615,4.4615,4.4615,4.4615,4.4615,4.4615,4.4615,4.4615,4.4615,4.4615,4.4615,4.4615,2.7257,2.835,2.9627,3.1844,3.2398,3.2613,3.346,3.4227,3.4736,3.4736,3.5275,3.5768,3.5922,3.6938,3.7814,3.7988,3.7856,3.7904,3.8417,3.8639,3.9062,3.9908,4.1093,4.2094,4.2771,4.3454,4.4055,4.4579,4.461,4.461,4.461,4.461,4.461,4.461,4.461,4.461,4.461,4.461,4.461,4.461,4.461,4.461,4.461,4.461,4.461,4.461,4.461,4.461,4.461,4.461,4.461,4.461,4.461,4.461,4.461,4.461,4.461,4.461,4.461,4.461,4.461,4.461,4.461,4.461,4.461,4.461,4.461,4.461,4.461,4.461,4.461,4.461,4.461,4.461,4.461,4.461,4.461,4.461,4.4471,4.3947,4.3716,4.3239,4.2032,4.1694,4.1355,4.0597,4.0489,4.0489,4.0489,4.0489,4.0489,4.0489,4.0956,4.1608,4.2426,4.3273,4.4001,4.457,4.4615,4.4615,4.4615,4.4615,4.4615,4.4615,4.4615,4.4615,4.4615,4.4615,4.4615,4.4615,4.4615,4.4615,2.795,2.972,3.1366,3.2198,3.2398,3.2736,3.412,3.4951,3.5444,3.5444,3.5953,3.6615,3.723,3.7938,3.8246,3.7629,3.8061,3.8677,3.9321,3.9413,3.9939,4.1294,4.2094,4.2786,4.347,4.4148,4.4564,4.461,4.461,4.461,4.461,4.461,4.461,4.461,4.461,4.461,4.461,4.461,4.461,4.461,4.461,4.461,4.461,4.461,4.461,4.461,4.461,4.461,4.461,4.461,4.461,4.461,4.461,4.461,4.461,4.461,4.461,4.461,4.461,4.461,4.461,4.461,4.461,4.461,4.461,4.461,4.461,4.461,4.461,4.461,4.461,4.461,4.461,4.461,4.461,4.461,4.461,4.461,4.461,4.4548,4.404,4.3393,4.2648,4.2017,4.1355,4.0597,4.0489,4.0489,4.0489,4.0489,4.0489,4.0489,4.0524,4.1091,4.2395,4.3739,4.4542,4.4615,4.4615,4.4615,4.4615,4.4615,4.4615,4.4615,4.4615,4.4615,4.4615,4.4615,4.4615,4.4615,4.4615,4.4615,2.8731,3.0489,3.2275,3.3426,3.3998,3.4489,3.5013,3.566,3.623,3.6661,3.6953,3.7323,3.8,3.8338,3.8431,3.8169,3.8338,3.8739,3.9431,3.9844,4.0474,4.1478,4.2556,4.331,4.3578,4.4225,4.461,4.461,4.461,4.461,4.461,4.461,4.461,4.461,4.461,4.461,4.461,4.461,4.461,4.461,4.461,4.461,4.461,4.461,4.461,4.461,4.461,4.461,4.461,4.461,4.461,4.461,4.461,4.461,4.461,4.461,4.461,4.461,4.461,4.461,4.461,4.461,4.461,4.461,4.461,4.461,4.461,4.461,4.461,4.461,4.461,4.461,4.461,4.461,4.461,4.461,4.461,4.461,4.461,4.461,4.4409,4.4024,4.3362,4.2987,4.2448,4.1355,4.1186,4.1032,4.0551,4.0489,4.0489,4.0489,4.087,4.1492,4.2426,4.3363,4.4105,4.457,4.4615,4.4615,4.4615,4.4615,4.4615,4.4615,4.4615,4.4615,4.4615,4.4615,4.4615,4.4615,4.4615,4.4615,2.9388,3.1182,3.2998,3.4212,3.5167,3.5829,3.5829,3.6153,3.6676,3.7353,3.7846,3.8077,3.7908,3.84,3.8692,3.8262,3.8554,3.9062,3.9705,4.0397,4.1201,4.2109,4.3054,4.3685,4.3917,4.4348,4.461,4.461,4.461,4.461,4.461,4.461,4.461,4.461,4.461,4.461,4.461,4.461,4.461,4.461,4.461,4.461,4.461,4.461,4.461,4.461,4.461,4.461,4.461,4.461,4.461,4.461,4.461,4.461,4.461,4.461,4.461,4.461,4.461,4.461,4.461,4.461,4.461,4.461,4.461,4.461,4.461,4.461,4.461,4.461,4.461,4.461,4.461,4.461,4.461,4.461,4.461,4.461,4.461,4.461,4.461,4.4409,4.3732,4.3608,4.3239,4.2094,4.174,4.1432,4.0889,4.0628,4.0489,4.0489,4.1091,4.1771,4.2458,4.3106,4.381,4.4542,4.4615,4.4615,4.4615,4.4615,4.4615,4.4615,4.4615,4.4615,4.4615,4.4615,4.4615,4.4615,4.4615,4.4615,2.9975,3.189,3.3583,3.4335,3.5521,3.6492,3.6492,3.6492,3.6676,3.7353,3.8585,3.8908,3.6892,3.8154,3.9077,3.7738,3.8646,3.9721,4.0413,4.1155,4.2094,4.3454,4.3608,4.3886,4.4548,4.461,4.461,4.461,4.461,4.461,4.461,4.461,4.461,4.461,4.461,4.461,4.461,4.461,4.461,4.461,4.461,4.461,4.461,4.461,4.461,4.461,4.461,4.461,4.461,4.461,4.461,4.461,4.461,4.461,4.461,4.461,4.461,4.461,4.461,4.461,4.461,4.461,4.461,4.461,4.461,4.461,4.461,4.461,4.461,4.461,4.461,4.461,4.461,4.461,4.461,4.461,4.461,4.461,4.461,4.461,4.461,4.4409,4.3732,4.3624,4.3393,4.2709,4.2048,4.1617,4.1601,4.097,4.0489,4.0489,4.1091,4.1771,4.2426,4.3106,4.381,4.4542,4.4615,4.4615,4.4615,4.4615,4.4615,4.4615,4.4615,4.4615,4.4615,4.4615,4.4615,4.4615,4.4615,4.4615,3.068,3.2598,3.4351,3.5044,3.5845,3.6492,3.6492,3.6492,3.6676,3.7353,3.8585,3.9152,3.8108,3.8785,3.9351,3.8985,3.9628,4.0443,4.1186,4.2263,4.3162,4.3562,4.4024,4.4394,4.4594,4.461,4.461,4.461,4.461,4.461,4.461,4.461,4.461,4.461,4.461,4.461,4.461,4.461,4.461,4.461,4.461,4.461,4.461,4.461,4.461,4.461,4.461,4.461,4.461,4.461,4.461,4.461,4.461,4.461,4.461,4.461,4.461,4.461,4.461,4.461,4.461,4.461,4.461,4.461,4.461,4.461,4.461,4.461,4.461,4.461,4.461,4.461,4.461,4.461,4.461,4.461,4.461,4.461,4.461,4.461,4.461,4.4548,4.4348,4.4317,4.4086,4.3387,4.311,4.2648,4.1724,4.097,4.0489,4.0489,4.0681,4.1057,4.1739,4.2426,4.3075,4.3781,4.431,4.4615,4.4615,4.4615,4.4615,4.4615,4.4615,4.4615,4.4615,4.4615,4.4615,4.4615,4.4615,4.4615,3.065,3.269,3.4597,3.5013,3.5799,3.6492,3.6492,3.6707,3.7092,3.7769,3.8769,3.929,3.8631,3.9277,3.989,3.989,4.0474,4.1294,4.2248,4.31,4.3701,4.3978,4.4363,4.461,4.461,4.461,4.461,4.461,4.461,4.461,4.461,4.461,4.461,4.461,4.461,4.461,4.461,4.461,4.461,4.461,4.461,4.461,4.461,4.461,4.461,4.461,4.461,4.461,4.461,4.461,4.461,4.461,4.461,4.461,4.461,4.461,4.461,4.461,4.461,4.461,4.461,4.461,4.461,4.461,4.461,4.461,4.461,4.461,4.461,4.461,4.461,4.461,4.461,4.461,4.461,4.461,4.461,4.461,4.461,4.461,4.461,4.461,4.461,4.461,4.4471,4.4071,4.3778,4.3223,4.214,4.1386,4.1044,4.1305,4.0816,4.087,4.1836,4.2269,4.28,4.3453,4.4179,4.4615,4.4615,4.4615,4.4615,4.4615,4.4615,4.4615,4.4615,4.4615,4.4615,4.4615,4.4615,4.4615,3.0145,3.2413,3.452,3.4582,3.5614,3.6584,3.6584,3.7061,3.7677,3.8292,3.8954,3.9262,3.8708,3.9674,4.0597,4.0597,4.1278,4.2202,4.3439,4.3655,4.3932,4.4548,4.461,4.461,4.461,4.461,4.461,4.461,4.461,4.461,4.461,4.461,4.461,4.461,4.461,4.461,4.461,4.461,4.461,4.461,4.461,4.461,4.461,4.461,4.461,4.461,4.461,4.461,4.461,4.461,4.461,4.461,4.461,4.461,4.461,4.461,4.461,4.461,4.461,4.461,4.461,4.461,4.461,4.461,4.461,4.461,4.461,4.461,4.461,4.461,4.461,4.4587,4.4572,4.4572,4.4587,4.4572,4.4587,4.4587,4.461,4.461,4.461,4.461,4.461,4.461,4.461,4.461,4.404,4.3393,4.2771,4.2109,4.1914,4.253,4.1454,4.1187,4.2395,4.2552,4.2862,4.3453,4.4179,4.4615,4.4615,4.4615,4.4615,4.4615,4.4615,4.4615,4.4615,4.4615,4.4615,4.4615,4.4615,4.4615,3.0145,3.2413,3.4628,3.5152,3.6276,3.7277,3.7277,3.74,3.7538,3.7692,3.8262,3.8846,3.9198,4.0432,4.137,4.137,4.2371,4.3285,4.3562,4.4055,4.4456,4.4594,4.461,4.461,4.461,4.461,4.461,4.461,4.461,4.461,4.461,4.461,4.461,4.461,4.461,4.461,4.461,4.461,4.461,4.461,4.461,4.461,4.461,4.461,4.461,4.461,4.461,4.461,4.461,4.461,4.461,4.461,4.461,4.461,4.461,4.461,4.461,4.461,4.461,4.461,4.461,4.461,4.461,4.461,4.461,4.461,4.461,4.461,4.461,4.461,4.461,4.4473,4.4358,4.4358,4.4511,4.4549,4.4396,4.4511,4.461,4.461,4.461,4.461,4.461,4.461,4.461,4.461,4.404,4.3562,4.3408,4.2802,4.2441,4.2577,4.232,4.2241,4.2475,4.2984,4.3363,4.3482,4.4179,4.4615,4.4615,4.4615,4.4615,4.4615,4.4615,4.4615,4.4615,4.4615,4.4615,4.4615,4.4615,4.4615,2.9884,3.2315,3.4751,3.5737,3.6738,3.7507,3.7507,3.7507,3.7692,3.8338,3.8492,3.8923,4.0262,4.1109,4.1801,4.2432,4.3162,4.3716,4.404,4.4394,4.461,4.461,4.461,4.461,4.461,4.461,4.461,4.461,4.461,4.461,4.461,4.461,4.461,4.461,4.461,4.461,4.461,4.461,4.461,4.461,4.461,4.461,4.461,4.461,4.461,4.461,4.461,4.461,4.461,4.461,4.461,4.461,4.461,4.461,4.461,4.461,4.461,4.461,4.461,4.461,4.461,4.461,4.461,4.461,4.461,4.461,4.461,4.461,4.461,4.461,4.461,4.4473,4.4281,4.4166,4.4243,4.4281,4.4166,4.432,4.4473,4.4473,4.4534,4.461,4.461,4.461,4.461,4.461,4.4317,4.4086,4.4086,4.3479,4.3329,4.3988,4.35,4.3242,4.3544,4.3878,4.391,4.3529,4.4179,4.4615,4.4615,4.4615,4.4615,4.4615,4.4615,4.4615,4.4615,4.4615,4.4615,4.4615,4.4615,4.4615,2.9596,3.2209,3.4797,3.6014,3.6907,3.7507,3.7507,3.7507,3.7877,3.9198,3.8985,3.9108,4.1047,4.1617,4.214,4.327,4.3624,4.3978,4.4533,4.461,4.461,4.461,4.461,4.461,4.461,4.461,4.461,4.461,4.461,4.461,4.461,4.461,4.461,4.461,4.461,4.461,4.461,4.461,4.461,4.461,4.461,4.461,4.461,4.461,4.461,4.461,4.461,4.461,4.461,4.461,4.461,4.461,4.461,4.461,4.461,4.461,4.461,4.461,4.461,4.461,4.461,4.461,4.461,4.461,4.461,4.461,4.461,4.461,4.461,4.4572,4.4549,4.4396,4.4205,4.3988,4.3895,4.391,4.3949,4.4127,4.4281,4.4281,4.4458,4.461,4.461,4.461,4.461,4.461,4.461,4.461,4.461,4.4132,4.4289,4.554,4.4719,4.4329,4.4998,4.4953,4.4604,4.3909,4.4349,4.4615,4.4615,4.4615,4.4615,4.4615,4.4615,4.4615,4.4615,4.4615,4.4615,4.4615,4.4615,4.4615,2.9545,3.2246,3.469,3.5444,3.6569,3.7507,3.7507,3.7507,3.7877,3.9198,3.8985,3.8954,4.0366,4.1627,4.254,4.2709,4.3694,4.4517,4.461,4.461,4.461,4.461,4.461,4.461,4.461,4.461,4.461,4.461,4.461,4.461,4.461,4.461,4.461,4.461,4.461,4.461,4.461,4.461,4.461,4.461,4.461,4.461,4.461,4.461,4.461,4.461,4.461,4.461,4.461,4.461,4.461,4.461,4.461,4.461,4.461,4.461,4.461,4.461,4.461,4.461,4.461,4.461,4.461,4.461,4.461,4.461,4.461,4.461,4.461,4.4572,4.4396,4.4166,4.3988,4.3808,4.3542,4.3463,4.3675,4.4026,4.4281,4.4281,4.4458,4.461,4.461,4.461,4.461,4.461,4.461,4.461,4.461,4.4533,4.4767,4.5588,4.5545,4.5751,4.6447,4.5942,4.5537,4.5419,4.4897,4.4615,4.4615,4.4615,4.4615,4.4615,4.4615,4.4615,4.4615,4.4615,4.4615,4.4615,4.4615,4.4615,3.051,3.2342,3.366,3.5152,3.6215,3.703,3.7415,3.7507,3.7769,3.8754,3.9016,3.9459,4.0878,4.1632,4.2294,4.3033,4.367,4.4178,4.4564,4.461,4.461,4.461,4.461,4.461,4.461,4.461,4.461,4.461,4.461,4.461,4.461,4.461,4.461,4.461,4.461,4.461,4.461,4.461,4.461,4.461,4.461,4.461,4.461,4.461,4.461,4.461,4.461,4.461,4.461,4.461,4.461,4.461,4.461,4.461,4.461,4.461,4.461,4.461,4.461,4.461,4.4572,4.4473,4.4435,4.4435,4.4435,4.4435,4.4473,4.4572,4.4511,4.4396,4.432,4.4065,4.3793,4.3729,4.3518,4.3329,4.3463,4.3738,4.4026,4.4243,4.4458,4.461,4.461,4.461,4.461,4.461,4.461,4.461,4.461,4.461,4.4884,4.561,4.6067,4.6469,4.6772,4.6868,4.6599,4.5754,4.5399,4.501,4.4632,4.4615,4.4615,4.4615,4.4615,4.4615,4.4615,4.4615,4.4615,4.4615,4.4615,4.4615,3.0248,3.1705,3.2798,3.4522,3.5599,3.6461,3.7307,3.7507,3.7738,3.8585,3.917,3.9831,4.0878,4.137,4.1925,4.2946,4.3393,4.3778,4.4286,4.4502,4.461,4.461,4.461,4.461,4.461,4.461,4.461,4.461,4.461,4.461,4.461,4.461,4.461,4.461,4.461,4.461,4.461,4.461,4.461,4.461,4.461,4.461,4.461,4.461,4.461,4.461,4.461,4.461,4.461,4.461,4.461,4.461,4.461,4.461,4.461,4.461,4.461,4.4572,4.4549,4.4534,4.4511,4.4281,4.4205,4.4205,4.4205,4.4205,4.4243,4.4396,4.4358,4.4205,4.4166,4.391,4.369,4.3596,4.3463,4.3329,4.3384,4.3557,4.3793,4.4166,4.4396,4.4534,4.4534,4.4587,4.461,4.461,4.461,4.461,4.461,4.461,4.4918,4.5805,4.6429,4.6941,4.7301,4.7651,4.7415,4.6346,4.5923,4.5449,4.4919,4.4699,4.4615,4.4615,4.4615,4.4615,4.4615,4.4615,4.4615,4.4615,4.4615,4.4615,2.7397,2.9781,3.2567,3.3321,3.4537,3.5876,3.72,3.7507,3.7877,3.92,3.9459,3.9505,3.9616,4.0709,4.1617,4.1694,4.2756,4.3624,4.3655,4.4209,4.461,4.461,4.461,4.461,4.461,4.461,4.461,4.461,4.461,4.461,4.461,4.461,4.461,4.461,4.461,4.461,4.461,4.461,4.461,4.461,4.461,4.461,4.461,4.461,4.461,4.461,4.461,4.461,4.461,4.461,4.461,4.461,4.461,4.461,4.461,4.461,4.461,4.4572,4.4396,4.432,4.4281,4.4089,4.4026,4.4026,4.4026,4.4026,4.4026,4.4026,4.4026,4.3988,4.3754,4.3729,4.3636,4.3384,4.329,4.3384,4.3596,4.369,4.3769,4.3988,4.4166,4.432,4.432,4.4473,4.461,4.461,4.461,4.461,4.461,4.461,4.5067,4.6324,4.6673,4.7322,4.8576,4.8203,4.7855,4.7787,4.6481,4.5686,4.5652,4.4959,4.4615,4.4615,4.4615,4.4615,4.4615,4.4615,4.4615,4.4615,4.4615,4.4615,2.6511,2.881,3.1289,3.1951,3.3814,3.5645,3.6107,3.6876,3.7507,3.7569,3.8616,3.9385,3.8954,3.9985,4.0874,4.0874,4.1694,4.2463,4.2894,4.3525,4.3978,4.3978,4.4348,4.461,4.461,4.461,4.461,4.461,4.461,4.461,4.461,4.461,4.461,4.461,4.461,4.461,4.461,4.461,4.461,4.4625,4.5018,4.5218,4.5249,4.568,4.588,4.588,4.588,4.5556,4.511,4.5656,4.554,4.5079,4.518,4.4995,4.4572,4.4473,4.4396,4.4396,4.4166,4.4104,4.405,4.3871,4.3808,4.3808,4.3808,4.3808,4.3832,4.3949,4.391,4.3808,4.3729,4.3557,4.3423,4.3329,4.329,4.3329,4.3423,4.3596,4.3729,4.3808,4.405,4.4281,4.4281,4.4473,4.461,4.461,4.461,4.461,4.461,4.461,4.4783,4.5237,4.6182,4.6983,4.7489,4.8201,4.8409,4.7922,4.6972,4.6194,4.572,4.4976,4.4615,4.4615,4.4615,4.4615,4.4615,4.4615,4.4615,4.4615,4.4615,4.4615,2.5852,2.7842,3.0012,3.1105,3.2921,3.4629,3.5322,3.6353,3.7092,3.6876,3.8077,3.9046,3.86,3.9398,4.0151,4.0151,4.0986,4.1678,4.1878,4.2679,4.3248,4.3248,4.3648,4.4002,4.4255,4.4271,4.4379,4.4594,4.461,4.461,4.461,4.461,4.461,4.461,4.461,4.461,4.461,4.461,4.4733,4.4964,4.5372,4.5711,4.5942,4.6309,4.6524,4.6499,4.6649,4.6333,4.5697,4.626,4.6183,4.5666,4.5769,4.5571,4.5118,4.4772,4.4579,4.4471,4.4063,4.391,4.3871,4.3636,4.3557,4.3557,4.3557,4.3557,4.3596,4.3738,4.3675,4.3557,4.3557,4.3423,4.329,4.329,4.329,4.329,4.329,4.3423,4.3557,4.3557,4.3856,4.4104,4.4104,4.432,4.4496,4.4496,4.4549,4.4685,4.4933,4.4971,4.5142,4.5551,4.6518,4.7254,4.7439,4.8403,4.8798,4.8308,4.7581,4.6836,4.6109,4.5348,4.4869,4.4615,4.4615,4.4615,4.4615,4.4615,4.4615,4.4615,4.4615,4.4615,0.0,0.0,0.0,3.0812,3.1844,3.289,3.4922,3.5953,3.6645,3.7307,3.8,3.8477,3.8477,3.9031,3.9444,3.9428,4.0647,4.1324,4.0597,4.1709,4.2586,4.2586,4.2602,4.2863,4.3516,4.3593,4.3886,4.4533,4.461,4.461,4.461,4.461,4.461,4.461,4.461,4.461,4.461,4.4641,4.4979,4.5588,4.5618,4.5988,4.6634,4.641,4.6345,4.6391,4.6833,4.6782,4.6345,4.6345,4.633,4.6314,4.6314,4.6299,4.6207,4.555,4.5203,4.4874,4.4025,4.372,4.3666,4.3384,4.329,4.329,4.329,4.329,4.329,4.329,4.329,4.329,4.329,4.329,4.329,4.329,4.329,4.329,4.329,4.329,4.329,4.329,4.3518,4.369,4.369,4.4026,4.4281,4.4281,4.4473,4.4858,4.5588,4.5697,4.6182,4.7422,4.7754,4.8145,4.8738,4.8925,4.9001,4.9001,4.8325,4.7581,4.6819,4.6092,4.5348,4.4615,4.4615,4.4615,4.4615,4.4615,4.4615,4.4615,4.4615,4.4615,2.5296,0.0,0.0,0.0,0.0,0.0,3.3013,3.4552,3.5845,3.603,3.6969,3.7784,3.7784,3.8323,3.8631,3.8138,3.9616,4.072,4.052,4.1309,4.1878,4.1878,4.2309,4.2679,4.2863,4.3331,4.3685,4.387,4.4348,4.461,4.461,4.461,4.461,4.461,4.461,4.461,4.461,4.5103,4.5403,4.5603,4.6429,4.6956,4.7114,4.7398,4.7543,4.7543,4.7657,4.7558,4.725,4.746,4.713,4.6539,4.672,4.6498,4.5971,4.5652,4.5495,4.5298,4.4434,4.4128,4.4053,4.3494,4.329,4.329,4.329,4.329,4.329,4.329,4.329,4.329,4.329,4.329,4.329,4.329,4.329,4.329,4.329,4.329,4.329,4.329,4.3518,4.369,4.369,4.391,4.4127,4.4281,4.4358,4.4708,4.5588,4.5697,4.604,4.6914,4.7556,4.7967,4.8145,4.8656,4.9001,4.9001,4.8325,4.7581,4.6819,4.6092,4.5348,4.4615,4.4615,4.4615,4.4615,4.4615,4.4615,4.4615,4.4615,4.4615,2.5711,2.6626,2.7703,2.8273,0.0,0.0,3.169,3.3149,3.4445,3.5337,3.6107,3.683,3.74,3.7831,3.8061,3.7938,3.8908,3.9659,3.9659,4.0539,4.1155,4.1155,4.1509,4.1848,4.2155,4.2525,4.2863,4.314,4.3824,4.4317,4.461,4.461,4.461,4.461,4.461,4.4672,4.4903,4.5287,4.5723,4.6186,4.686,4.7322,4.7596,4.774,4.7837,4.7837,4.7752,4.7639,4.751,4.7639,4.7455,4.7009,4.7193,4.6993,4.6558,4.6173,4.5943,4.5785,4.5001,4.4541,4.4257,4.3828,4.3514,4.329,4.329,4.329,4.329,4.329,4.329,4.329,4.329,4.329,4.329,4.329,4.329,4.329,4.329,4.329,4.329,4.329,4.3423,4.3518,4.3518,4.3714,4.3949,4.4127,4.4243,4.4632,4.5588,4.5985,4.6429,4.7187,4.7934,4.837,4.837,4.875,4.9001,4.9001,4.8612,4.8037,4.7293,4.6549,4.5805,4.506,4.4767,4.4615,4.4615,4.4615,4.4615,4.4615,4.4615,4.4626,2.645,2.6349,2.6565,2.7857,2.8181,0.0,3.0638,3.169,3.2813,3.4752,3.529,3.5737,3.6953,3.723,3.7477,3.8077,3.8292,3.8415,3.8492,3.9582,4.0382,4.0382,4.0443,4.0751,4.1417,4.1555,4.1848,4.2448,4.3156,4.387,4.4471,4.4579,4.461,4.461,4.4587,4.4811,4.5282,4.5327,4.5934,4.7023,4.7058,4.7376,4.7964,4.7666,4.7596,4.7553,4.7396,4.7309,4.7309,4.7309,4.7424,4.7596,4.7596,4.7596,4.7463,4.6903,4.6566,4.6337,4.5648,4.502,4.4526,4.4451,4.3947,4.3409,4.3409,4.3349,4.329,4.329,4.329,4.329,4.329,4.329,4.329,4.329,4.329,4.329,4.329,4.329,4.329,4.329,4.329,4.329,4.329,4.3518,4.3714,4.3988,4.4127,4.4594,4.5604,4.6324,4.7085,4.7819,4.8545,4.9001,4.9001,4.9001,4.9001,4.9001,4.9001,4.868,4.7922,4.7192,4.6447,4.572,4.4976,4.4615,4.4615,4.4615,4.4615,4.4615,4.4615,4.4682,2.7334,2.638,2.5733,2.6565,2.678,0.0,2.8642,3.0335,3.1844,3.2798,3.3919,3.4782,3.5044,3.5537,3.5922,3.6045,3.6984,3.7892,3.8431,3.92,3.969,3.969,4.0166,4.0551,4.0689,4.1263,4.1648,4.1786,4.2931,4.367,4.3793,4.4317,4.461,4.461,4.4435,4.4641,4.5275,4.5666,4.6244,4.6982,4.7329,4.7546,4.7666,4.7467,4.7337,4.7337,4.7309,4.7309,4.7309,4.7309,4.7309,4.7337,4.7337,4.7337,4.7322,4.7188,4.7158,4.7025,4.6352,4.5995,4.5843,4.5289,4.4661,4.4122,4.4122,4.3708,4.329,4.329,4.329,4.329,4.329,4.329,4.329,4.329,4.329,4.329,4.329,4.329,4.329,4.329,4.329,4.329,4.329,4.3329,4.3503,4.3949,4.4026,4.4458,4.5551,4.6324,4.7085,4.7819,4.8545,4.9001,4.9001,4.9001,4.9001,4.9001,4.9001,4.868,4.7922,4.7192,4.6447,4.572,4.4976,4.4615,4.4615,4.4615,4.4615,4.4615,4.4615,4.4682,0.0,0.0,0.0,2.638,0.0,0.0,0.0,2.8442,2.9689,3.0705,3.1736,3.2659,3.3349,3.4226,3.4872,3.4966,3.6087,3.68,3.6554,3.7954,3.9016,3.9016,3.929,3.9613,3.9967,4.0355,4.0847,4.1555,4.2525,4.327,4.3593,4.4255,4.4534,4.4473,4.4358,4.4678,4.543,4.5657,4.6271,4.7171,4.736,4.7467,4.7467,4.7352,4.7309,4.7309,4.7309,4.7309,4.7309,4.7309,4.7309,4.7309,4.7309,4.7309,4.7309,4.7309,4.7309,4.7249,4.6935,4.6591,4.6219,4.5918,4.5349,4.4751,4.4407,4.3813,4.329,4.329,4.329,4.329,4.329,4.329,4.329,4.329,4.329,4.329,4.329,4.329,4.329,4.329,4.329,4.329,4.329,4.329,4.3423,4.3793,4.3949,4.4243,4.4918,4.604,4.6949,4.7322,4.8354,4.9001,4.9001,4.9001,4.9001,4.9001,4.9001,4.8832,4.8477,4.7394,4.6278,4.5162,4.4801,4.4615,4.4615,4.4615,4.4615,4.4615,4.4615,4.4709,0.0,0.0,0.0,0.0,0.0,2.5903,0.0,0.0,0.0,2.911,2.9786,3.0485,3.1716,3.2917,3.3682,3.3566,3.4933,3.5578,3.434,3.6412,0.0,3.8125,3.8354,3.8723,3.9228,3.9413,4.0031,4.1294,4.2032,4.2694,4.3393,4.4055,4.4373,4.432,4.4243,4.4673,4.5589,4.5563,4.613,4.7309,4.7309,4.7309,4.7309,4.7309,4.7309,4.7309,4.7309,4.7309,4.7309,4.7309,4.7309,4.7309,4.7309,4.7309,4.7309,4.7309,4.7309,4.7309,4.7309,4.6965,4.6516,4.6516,4.6052,4.5349,4.4556,4.3902,4.3454,4.3334,4.329,4.329,4.329,4.329,4.329,4.329,4.329,4.329,4.329,4.329,4.329,4.329,4.329,4.329,4.329,4.329,4.3423,4.3714,4.391,4.4104,4.432,4.566,4.6638,4.6777,4.7983,4.8861,4.9001,4.9001,4.9001,4.9001,4.9001,4.9001,4.9001,4.7581,4.616,4.4852,4.4682,4.4615,4.4615,4.4615,4.4615,4.4615,4.4643,4.4776,0.0,0.0,0.0,0.0,2.7657,0.0,0.0,0.0,2.778,2.911,0.0,2.9391,0.0,0.0,0.0,3.0264,3.288,3.4561,3.3118,3.491,3.646,3.6693,3.7784,3.8539,3.8616,3.917,3.9797,4.0566,4.1309,4.2001,4.2679,4.3362,4.3881,4.4305,4.4143,4.4531,4.5589,4.5413,4.602,4.7309,4.7309,4.7309,4.7309,4.7309,4.7309,4.7309,4.7309,4.7309,4.7309,4.7309,4.7309,4.7309,4.7309,4.7309,4.7309,4.7309,4.7309,4.7309,4.7309,4.7249,4.7189,4.7189,4.6741,4.5935,4.4691,4.4272,4.4077,4.3454,4.329,4.329,4.329,4.329,4.329,4.329,4.329,4.329,4.329,4.329,4.329,4.329,4.329,4.329,4.329,4.329,4.3463,4.391,4.3988,4.4143,4.4511,4.5311,4.6092,4.6742,4.7522,4.8306,4.894,4.9001,4.9001,4.9001,4.9001,4.9001,4.9001,4.7581,4.6413,4.5602,4.4925,4.4615,4.4615,4.4615,4.4615,4.4598,4.4737,4.4858,0.0,0.0,0.0,0.0,0.0,0.0,2.8427,0.0,2.7781,0.0,0.0,0.0,0.0,0.0,0.0,0.0,3.2707,0.0,0.0,0.0,3.5145,0.0,0.0,0.0,3.8388,3.9075,3.9598,3.989,4.097,4.1724,4.2001,4.3002,4.3598,4.3549,4.3852,4.4452,4.5398,4.5331,4.5963,4.7309,4.7309,4.7309,4.7309,4.7309,4.7309,4.7309,4.7309,4.7309,4.7309,4.7309,4.7309,4.7309,4.7309,4.7309,4.7309,4.7309,4.7309,4.7309,4.7309,4.7309,4.7309,4.7309,4.686,4.6175,4.5648,4.52,4.4751,4.4092,4.3898,4.3768,4.3394,4.329,4.329,4.329,4.329,4.329,4.329,4.329,4.329,4.329,4.329,4.329,4.329,4.329,4.3369,4.3581,4.3832,4.4065,4.4243,4.5478,4.6464,4.6777,4.7836,4.8656,4.897,4.9001,4.9001,4.9001,4.9001,4.8815,4.8392,4.7361,4.6447,4.572,4.4976,4.4615,4.4615,4.4615,4.4615,4.4598,4.4737,4.4886,3.4522,3.3398,3.2351,3.169,3.1028,3.0335,2.9658,2.9104,0.0,0.0,0.0,0.0,0.0,0.0,0.0,0.0,0.0,3.2122,0.0,0.0,0.0,0.0,0.0,0.0,0.0,3.8842,3.9358,3.973,4.055,4.1201,4.1571,4.2642,4.3164,4.3024,4.36,4.4257,4.502,4.5214,4.5888,4.704,4.7219,4.7309,4.7309,4.7309,4.7309,4.7309,4.7309,4.7309,4.7309,4.7309,4.7309,4.7309,4.7309,4.7309,4.7309,4.7309,4.7309,4.7309,4.7309,4.7309,4.7309,4.7309,4.698,4.6561,4.6381,4.5978,4.5439,4.4766,4.4586,4.4436,4.3738,4.3559,4.3514,4.3334,4.329,4.329,4.329,4.329,4.329,4.329,4.329,4.329,4.329,4.329,4.3329,4.3384,4.3754,4.4026,4.4065,4.5515,4.6569,4.6777,4.7934,4.8798,4.897,4.9001,4.9001,4.9001,4.9001,4.8765,4.821,4.7293,4.6549,4.6007,4.506,4.4615,4.4615,4.4615,4.4626,4.4654,4.4776,4.4913,3.6399,3.5891,3.5213,3.4536,3.3814,3.3106,3.2413,3.1259,3.0062,0.0,0.0,0.0,0.0,0.0,0.0,0.0,0.0,0.0,0.0,0.0,0.0,0.0,0.0,0.0,0.0,3.835,3.8967,0.0,3.9891,4.017,4.1524,4.2052,4.2541,4.3009,4.3445,4.3927,4.4347,4.4975,4.5648,4.6324,4.6995,4.7309,4.7309,4.7309,4.7309,4.7309,4.7309,4.7309,4.7309,4.7309,4.7309,4.7309,4.7309,4.7309,4.7309,4.7309,4.7309,4.7309,4.7309,4.7309,4.7309,4.7309,4.7294,4.716,4.6516,4.6264,4.6157,4.5454,4.5259,4.511,4.4451,4.4287,4.4122,4.3439,4.329,4.329,4.329,4.329,4.329,4.329,4.329,4.329,4.329,4.329,4.3384,4.3651,4.3871,4.4065,4.4281,4.5126,4.602,4.6708,4.7489,4.8225,4.894,4.9001,4.9001,4.9001,4.9001,4.8984,4.8968,4.7564,4.6786,4.6752,4.5359,4.4615,4.4615,4.4615,4.4654,4.482,4.494,4.5005,3.7707,3.7015,3.6107,3.5891,3.563,3.5153,3.4058,3.2967,3.1867,0.0,0.0,0.0,0.0,0.0,0.0,0.0,0.0,0.0,0.0,0.0,0.0,0.0,0.0,0.0,0.0,0.0,0.0,0.0,3.9051,0.0,4.0201,4.1238,4.1964,4.2272,4.2895,4.3579,4.4302,4.496,4.5648,4.6294,4.6995,4.7309,4.7309,4.7309,4.7309,4.7309,4.7309,4.7309,4.7309,4.7309,4.7309,4.7309,4.7309,4.7309,4.7309,4.7309,4.7309,4.7309,4.7309,4.7309,4.7309,4.7309,4.7309,4.7264,4.704,4.698,4.683,4.6157,4.5978,4.5813,4.514,4.496,4.4796,4.4137,4.3947,4.3828,4.3394,4.329,4.329,4.329,4.329,4.329,4.329,4.329,4.3329,4.3423,4.3754,4.4205,4.4768,4.5753,4.6708,4.7456,4.821,4.8719,4.897,4.9001,4.9001,4.9001,4.9001,4.9001,4.9001,4.7581,4.6844,4.6915,4.5484,4.4793,4.4858,4.4858,4.4886,4.494,4.5059,4.514,3.9075,3.8415,3.7507,3.7277,3.703,3.6553,3.5475,3.4552,3.3583,3.2237,0.0,0.0,0.0,0.0,0.0,0.0,0.0,0.0,0.0,0.0,0.0,0.0,0.0,0.0,0.0,0.0,0.0,0.0,0.0,0.0,0.0,4.0747,4.1597,4.1871,4.2531,4.3193,4.3958,4.4855,4.5529,4.5978,4.6875,4.7309,4.7309,4.7309,4.7309,4.7309,4.7309,4.7309,4.7309,4.7309,4.7309,4.7309,4.7309,4.7309,4.7309,4.7309,4.7309,4.7309,4.7309,4.7309,4.7309,4.7309,4.7309,4.7309,4.7309,4.7309,4.7174,4.6516,4.6444,4.6456,4.5544,4.5484,4.5499,4.4825,4.4661,4.4481,4.3783,4.3648,4.3574,4.3349,4.329,4.329,4.329,4.329,4.329,4.329,4.3699,4.4166,4.4655,4.5933,4.6983,4.7456,4.8418,4.9001,4.9001,4.9001,4.9001,4.9001,4.9001,4.9001,4.9001,4.7834,4.7234,4.7393,4.5932,4.5267,4.5398,4.5142,4.5032,4.5086,4.515,4.5247]}]]